[[{"header":{"parameterUnit":"m.s-1","parameterCategory":1,"la1":30.6,"la2":28.766,"lo1":-90.7593,"lo2":-88.6598,"dy":0.0162,"dx":0.0183,"nx":116,"ny":114,"refTime":"2023-08-24T06:00:00:Z","depth":0,"parameterNumber":2,"parameterNumberName":"U-component_of_WINDS"},"data":[0.0,0.0,0.0,0.0,0.0,0.0,0.0,0.0,0.0,0.0,0.0,0.0,0.0,0.0,0.0,0.0,0.0,0.0,0.0,0.0,0.0,0.0,0.0,0.0,0.0,0.0,0.0,0.0,0.0,0.0,0.0,0.0,0.0,0.0,0.0,0.0,0.0,0.0,0.0,0.0,0.0,0.0,0.0,0.0,0.0,0.0,0.0,0.0,0.0,0.0,0.0,0.0,0.0,0.0,0.0,0.0,0.0,0.0,0.0,0.0,0.0,0.0,0.0,0.0,0.0,0.0,0.0,0.0,0.0,0.0,0.0,0.0,0.0,0.0,0.0,0.0,0.0,0.0,0.0,0.0,0.0,0.0,0.0,0.0,0.0,0.0,0.0,0.0,0.0,0.0,0.0,0.0,0.0,0.0,0.0,0.0,0.0,0.0,0.0,0.0,0.0,0.0,0.0,0.0,0.0,0.0,0.0,0.0,0.0,0.0,0.0,0.0,0.0,0.0,0.0,0.0,0.0,0.0,0.0,0.0,0.0,0.0,0.0,0.0,0.0,0.0,0.0,0.0,0.0,0.0,0.0,0.0,0.0,0.0,0.0,0.0,0.0,0.0,0.0,0.0,0.0,0.0,0.0,0.0,0.0,0.0,0.0,0.0,0.0,0.0,0.0,0.0,0.0,0.0,0.0,0.0,0.0,0.0,0.0,0.0,0.0,0.0,0.0,0.0,0.0,0.0,0.0,0.0,0.0,0.0,0.0,0.0,0.0,0.0,0.0,0.0,0.0,0.0,0.0,0.0,0.0,0.0,0.0,0.0,0.0,0.0,0.0,0.0,0.0,0.0,0.0,0.0,0.0,0.0,0.0,0.0,0.0,0.0,0.0,0.0,0.0,0.0,0.0,0.0,0.0,0.0,0.0,0.0,0.0,0.0,0.0,0.0,0.0,0.0,0.0,0.0,0.0,0.0,0.0,0.0,0.0,0.0,0.0,0.0,0.0,0.0,0.0,0.0,0.0,0.0,0.0,0.0,0.0,0.0,0.0,0.0,0.0,0.0,0.0,0.0,0.0,0.0,0.0,0.0,0.0,0.0,0.0,0.0,0.0,0.0,0.0,0.0,0.0,0.0,0.0,0.0,0.0,0.0,0.0,0.0,0.0,0.0,0.0,0.0,0.0,0.0,0.0,0.0,0.0,0.0,0.0,0.0,0.0,0.0,0.0,0.0,0.0,0.0,0.0,0.0,0.0,0.0,0.0,0.0,0.0,0.0,0.0,0.0,0.0,0.0,0.0,0.0,0.0,0.0,0.0,0.0,0.0,0.0,0.0,0.0,0.0,0.0,0.0,0.0,0.0,0.0,0.0,0.0,0.0,0.0,0.0,0.0,0.0,0.0,0.0,0.0,0.0,0.0,0.0,0.0,0.0,0.0,0.0,0.0,0.0,0.0,0.0,0.0,0.0,0.0,0.0,0.0,0.0,0.0,0.0,0.0,0.0,0.0,0.0,0.0,0.0,0.0,0.0,0.0,0.0,0.0,0.0,0.0,0.0,0.0,0.0,0.0,0.0,0.0,0.0,0.0,0.0,0.0,0.0,0.0,0.0,0.0,0.0,0.0,0.0,0.0,0.0,0.0,0.0,0.0,0.0,0.0,0.0,0.0,0.0,0.0,0.0,0.0,0.0,0.0,0.0,0.0,0.0,0.0,0.0,0.0,0.0,0.0,0.0,0.0,0.0,0.0,0.0,0.0,0.0,0.0,0.0,0.0,0.0,0.0,0.0,0.0,0.0,0.0,0.0,0.0,0.0,0.0,0.0,0.0,0.0,0.0,0.0,0.0,0.0,0.0,0.0,0.0,0.0,0.0,0.0,0.0,0.0,0.0,0.0,0.0,0.0,0.0,0.0,0.0,0.0,0.0,0.0,0.0,0.0,0.0,0.0,0.0,0.0,0.0,0.0,0.0,0.0,0.0,0.0,0.0,0.0,0.0,0.0,0.0,0.0,0.0,0.0,0.0,0.0,0.0,0.0,0.0,0.0,0.0,0.0,0.0,0.0,0.0,0.0,0.0,0.0,0.0,0.0,0.0,0.0,0.0,0.0,0.0,0.0,0.0,0.0,0.0,0.0,0.0,0.0,0.0,0.0,0.0,0.0,0.0,0.0,0.0,0.0,0.0,0.0,0.0,0.0,0.0,0.0,0.0,0.0,0.0,0.0,0.0,0.0,0.0,0.0,0.0,0.0,0.0,0.0,0.0,0.0,0.0,0.0,0.0,0.0,0.0,0.0,0.0,0.0,0.0,0.0,0.0,0.0,0.0,0.0,0.0,0.0,0.0,0.0,0.0,0.0,0.0,0.0,0.0,0.0,0.0,0.0,0.0,0.0,0.0,0.0,0.0,0.0,0.0,0.0,0.0,0.0,0.0,0.0,0.0,0.0,0.0,0.0,0.0,0.0,0.0,0.0,0.0,0.0,0.0,0.0,0.0,0.0,0.0,0.0,0.0,0.0,0.0,0.0,0.0,0.0,0.0,0.0,0.0,0.0,0.0,0.0,0.0,0.0,0.0,0.0,0.0,0.0,0.0,0.0,0.0,0.0,0.0,0.0,0.0,0.0,0.0,0.0,0.0,0.0,0.0,0.0,0.0,0.0,0.0,0.0,0.0,0.0,0.0,0.0,0.0,0.0,0.0,0.0,0.0,0.0,0.0,0.0,0.0,0.0,0.0,0.0,0.0,0.0,0.0,0.0,0.0,0.0,0.0,0.0,0.0,0.0,0.0,0.0,0.0,0.0,0.0,0.0,0.0,0.0,0.0,0.0,0.0,0.0,0.0,0.0,0.0,0.0,0.0,0.0,0.0,0.0,0.0,0.0,0.0,0.0,0.0,0.0,0.0,0.0,0.0,0.0,0.0,0.0,0.0,0.0,0.0,0.0,0.0,0.0,0.0,0.0,0.0,0.0,0.0,0.0,0.0,0.0,0.0,0.0,0.0,0.0,0.0,0.0,0.0,0.0,0.0,0.0,0.0,0.0,0.0,0.0,0.0,0.0,0.0,0.0,0.0,0.0,0.0,0.0,0.0,0.0,0.0,0.0,0.0,0.0,0.0,0.0,0.0,0.0,0.0,0.0,0.0,0.0,0.0,0.0,0.0,0.0,0.0,0.0,0.0,0.0,0.0,0.0,0.0,0.0,0.0,0.0,0.0,0.0,0.0,0.0,0.0,0.0,0.0,0.0,0.0,0.0,0.0,0.0,0.0,0.0,0.0,0.0,0.0,0.0,0.0,0.0,0.0,0.0,0.0,0.0,0.0,0.0,0.0,0.0,0.0,0.0,0.0,0.0,0.0,0.0,0.0,0.0,0.0,0.0,0.0,0.0,0.0,0.0,0.0,0.0,0.0,0.0,0.0,0.0,0.0,0.0,0.0,0.0,0.0,0.0,0.0,0.0,0.0,0.0,0.0,0.0,0.0,0.0,0.0,0.0,0.0,0.0,0.0,0.0,0.0,0.0,0.0,0.0,0.0,0.0,0.0,0.0,0.0,0.0,0.0,0.0,0.0,0.0,0.0,0.0,0.0,0.0,0.0,0.0,0.0,0.0,0.0,0.0,0.0,0.0,0.0,0.0,0.0,0.0,0.0,0.0,0.0,0.0,0.0,0.0,0.0,0.0,0.0,0.0,0.0,0.0,0.0,0.0,0.0,0.0,0.0,0.0,0.0,0.0,0.0,0.0,0.0,0.0,0.0,0.0,0.0,0.0,0.0,0.0,0.0,0.0,0.0,0.0,0.0,0.0,0.0,0.0,0.0,0.0,0.0,0.0,0.0,0.0,0.0,0.0,0.0,0.0,0.0,0.0,0.0,0.0,0.0,0.0,0.0,0.0,0.0,0.0,0.0,0.0,0.0,0.0,0.0,0.0,0.0,0.0,0.0,0.0,0.0,0.0,0.0,0.0,0.0,0.0,0.0,0.0,0.0,0.0,0.0,0.0,0.0,0.0,0.0,0.0,0.0,0.0,0.0,0.0,0.0,0.0,0.0,0.0,0.0,0.0,0.0,0.0,0.0,0.0,0.0,0.0,0.0,0.0,0.0,0.0,0.0,0.0,0.0,0.0,0.0,0.0,0.0,0.0,0.0,0.0,0.0,0.0,0.0,0.0,0.0,0.0,0.0,0.0,0.0,0.0,0.0,0.0,0.0,0.0,0.0,0.0,0.0,0.0,0.0,0.0,0.0,0.0,0.0,0.0,0.0,0.0,0.0,0.0,0.0,0.0,0.0,0.0,0.0,0.0,0.0,0.0,0.0,0.0,0.0,0.0,0.0,0.0,0.0,0.0,0.0,0.0,0.0,0.0,0.0,0.0,0.0,0.0,0.0,0.0,0.0,0.0,0.0,0.0,0.0,0.0,0.0,0.0,0.0,0.0,0.0,0.0,0.0,0.0,0.0,0.0,0.0,0.0,0.0,0.0,0.0,0.0,0.0,0.0,0.0,0.0,0.0,0.0,0.0,0.0,0.0,0.0,0.0,0.0,0.0,0.0,0.0,0.0,0.0,0.0,0.0,0.0,0.0,0.0,0.0,0.0,0.0,0.0,0.0,0.0,0.0,0.0,0.0,0.0,0.0,0.0,0.0,0.0,0.0,0.0,0.0,0.0,0.0,0.0,0.0,0.0,0.0,0.0,0.0,0.0,0.0,0.0,0.0,0.0,0.0,0.0,0.0,0.0,0.0,0.0,0.0,0.0,0.0,0.0,0.0,0.0,0.0,0.0,0.0,0.0,0.0,0.0,0.0,0.0,0.0,0.0,0.0,0.0,0.0,0.0,0.0,0.0,0.0,0.0,0.0,0.0,0.0,0.0,0.0,0.0,0.0,0.0,0.0,0.0,0.0,0.0,0.0,0.0,0.0,0.0,0.0,0.0,0.0,0.0,0.0,0.0,0.0,0.0,0.0,0.0,0.0,0.0,0.0,0.0,0.0,0.0,0.0,0.0,0.0,0.0,0.0,0.0,0.0,0.0,0.0,0.0,0.0,0.0,0.0,0.0,0.0,0.0,0.0,0.0,0.0,0.0,0.0,0.0,0.0,0.0,0.0,0.0,0.0,0.0,0.0,0.0,0.0,0.0,0.0,0.0,0.0,0.0,0.0,0.0,0.0,0.0,0.0,0.0,0.0,0.0,0.0,0.0,0.0,0.0,0.0,0.0,0.0,0.0,0.0,0.0,0.0,0.0,0.0,0.0,0.0,0.0,0.0,0.0,0.0,0.0,0.0,0.0,0.0,0.0,0.0,0.0,0.0,0.0,0.0,0.0,0.0,0.0,0.0,0.0,0.0,0.0,0.0,0.0,0.0,0.0,0.0,0.0,0.0,0.0,0.0,0.0,0.0,0.0,0.0,0.0,0.0,0.0,0.0,0.0,0.0,0.0,0.0,0.0,0.0,0.0,0.0,0.0,0.0,0.0,0.0,0.0,0.0,0.0,0.0,0.0,0.0,0.0,0.0,0.0,0.0,0.0,0.0,0.0,0.0,0.0,0.0,0.0,0.0,0.0,0.0,0.0,0.0,0.0,0.0,0.0,0.0,0.0,0.0,0.0,0.0,0.0,0.0,0.0,0.0,0.0,0.0,0.0,0.0,0.0,0.0,0.0,0.0,0.0,0.0,0.0,0.0,0.0,0.0,0.0,0.0,0.0,0.0,0.0,0.0,0.0,0.0,0.0,0.0,0.0,0.0,0.0,0.0,0.0,0.0,0.0,0.0,0.0,0.0,0.0,0.0,0.0,0.0,0.0,0.0,0.0,0.0,0.0,0.0,0.0,0.0,0.0,0.0,0.0,0.0,0.0,0.0,0.0,0.0,0.0,0.0,0.0,0.0,0.0,0.0,0.0,0.0,0.0,0.0,0.0,0.0,0.0,0.0,0.0,0.0,0.0,0.0,0.0,0.0,0.0,0.0,0.0,0.0,0.0,0.0,0.0,0.0,0.0,0.0,0.0,0.0,0.0,0.0,0.0,0.0,0.0,0.0,0.0,0.0,0.0,0.0,0.0,0.0,0.0,0.0,0.0,0.0,0.0,0.0,0.0,0.0,0.0,0.0,0.0,0.0,0.0,0.0,0.0,0.0,-5.0851,0.0,0.0,0.0,0.0,0.0,0.0,0.0,0.0,0.0,0.0,0.0,0.0,0.0,0.0,0.0,0.0,0.0,0.0,0.0,0.0,0.0,0.0,0.0,0.0,0.0,0.0,0.0,0.0,0.0,0.0,0.0,0.0,0.0,0.0,0.0,0.0,0.0,0.0,-4.5021,-4.5021,-4.5314,-4.5911,-4.5593,-4.532,-4.4998,0.0,0.0,0.0,0.0,0.0,0.0,0.0,0.0,0.0,0.0,0.0,0.0,0.0,0.0,0.0,0.0,0.0,0.0,0.0,0.0,0.0,0.0,0.0,0.0,0.0,0.0,0.0,0.0,0.0,0.0,0.0,0.0,0.0,0.0,0.0,0.0,0.0,0.0,0.0,0.0,0.0,0.0,0.0,0.0,0.0,0.0,0.0,0.0,0.0,0.0,0.0,0.0,0.0,0.0,0.0,0.0,0.0,0.0,0.0,0.0,0.0,0.0,0.0,0.0,0.0,0.0,0.0,0.0,0.0,0.0,0.0,-5.0879,0.0,0.0,0.0,0.0,0.0,0.0,0.0,0.0,0.0,0.0,0.0,0.0,0.0,0.0,0.0,0.0,0.0,0.0,0.0,0.0,0.0,0.0,0.0,0.0,0.0,0.0,0.0,0.0,0.0,0.0,0.0,0.0,0.0,0.0,0.0,-4.5216,-4.5183,-4.5439,-4.5728,-4.6099,-4.6574,-4.6575,-4.6295,-4.5783,-4.5233,0.0,0.0,0.0,0.0,0.0,0.0,0.0,0.0,0.0,0.0,0.0,0.0,0.0,0.0,0.0,0.0,0.0,0.0,0.0,0.0,0.0,0.0,0.0,0.0,0.0,0.0,0.0,0.0,0.0,0.0,0.0,0.0,0.0,0.0,0.0,0.0,0.0,0.0,0.0,0.0,0.0,0.0,0.0,0.0,0.0,0.0,0.0,0.0,0.0,0.0,0.0,0.0,0.0,0.0,0.0,0.0,0.0,0.0,0.0,0.0,0.0,0.0,0.0,-5.0702,-5.0702,-5.0702,-5.0702,-5.0702,-5.0702,-5.0702,-5.0793,-5.0903,0.0,0.0,0.0,0.0,0.0,0.0,0.0,0.0,0.0,0.0,0.0,0.0,0.0,0.0,0.0,0.0,0.0,0.0,0.0,0.0,0.0,0.0,-4.508,-4.4848,-4.4226,-4.4186,-4.3986,0.0,0.0,0.0,0.0,0.0,0.0,-4.2363,-4.5273,-4.6256,-4.523,-4.6532,-4.7165,-4.7293,-4.7247,-4.7239,-4.715,-4.6829,-4.6739,-4.6827,0.0,0.0,0.0,0.0,0.0,0.0,0.0,0.0,0.0,0.0,0.0,0.0,0.0,0.0,0.0,0.0,0.0,0.0,0.0,0.0,0.0,0.0,0.0,0.0,0.0,0.0,0.0,0.0,0.0,0.0,0.0,0.0,0.0,0.0,0.0,0.0,0.0,0.0,0.0,0.0,0.0,-5.0868,-5.0872,0.0,0.0,0.0,0.0,0.0,0.0,0.0,0.0,0.0,0.0,0.0,0.0,0.0,0.0,-5.0683,-5.0702,-5.0702,-5.0702,-5.0702,-5.0702,-5.0702,-5.0702,-5.0702,-5.0702,-5.0702,0.0,-5.0889,-5.0918,0.0,0.0,0.0,0.0,0.0,0.0,0.0,0.0,0.0,0.0,0.0,0.0,0.0,0.0,0.0,0.0,0.0,0.0,0.0,0.0,0.0,-4.5304,-4.5166,-4.4649,-4.4675,-4.4712,-4.4693,0.0,0.0,0.0,0.0,-4.2243,-4.2739,-4.4281,-4.5467,-4.6252,-4.7261,-4.7789,-4.7919,-4.7919,-4.8014,-4.8237,-4.8344,-4.809,-4.7609,-4.8145,0.0,0.0,0.0,0.0,0.0,0.0,0.0,0.0,0.0,0.0,0.0,0.0,0.0,0.0,0.0,0.0,0.0,0.0,0.0,0.0,0.0,0.0,0.0,0.0,0.0,0.0,0.0,0.0,0.0,0.0,0.0,0.0,0.0,0.0,0.0,0.0,0.0,0.0,0.0,-5.0819,-5.0869,-5.0801,-5.0975,-5.1113,0.0,0.0,0.0,0.0,0.0,0.0,0.0,0.0,0.0,-5.0903,-5.0908,-5.0835,-5.0683,-5.0702,-5.0702,-5.0702,-5.0702,-5.0702,-5.0702,-5.0702,-5.0702,-5.0702,-5.0702,-5.074,-5.0789,-5.0863,-5.0932,-5.1004,0.0,0.0,0.0,0.0,0.0,-5.1133,0.0,0.0,0.0,0.0,0.0,0.0,0.0,0.0,0.0,0.0,0.0,0.0,-4.5406,-4.5509,-4.5456,-4.5109,-4.5178,-4.5175,-4.5066,-4.4079,0.0,0.0,-4.3523,-4.3498,-4.348,-4.4097,-4.5475,-4.7609,-4.7923,-4.8233,-4.8434,-4.8458,-4.8686,-4.907,-4.9456,-4.9251,-4.8556,-4.8851,-4.9235,-4.9645,0.0,0.0,0.0,0.0,0.0,0.0,0.0,0.0,0.0,0.0,0.0,0.0,0.0,0.0,0.0,0.0,0.0,0.0,0.0,0.0,0.0,0.0,0.0,0.0,0.0,0.0,0.0,0.0,0.0,0.0,0.0,0.0,0.0,0.0,0.0,0.0,0.0,-5.0836,-5.0903,-5.0763,-5.1012,-5.1172,0.0,0.0,0.0,0.0,0.0,0.0,-5.118,-5.1174,-5.1064,-5.0867,-5.0851,-5.0789,-5.0683,-5.0702,-5.0702,-5.0702,-5.0702,-5.0702,-5.0702,-5.0702,-5.0702,-5.0702,-5.0702,-5.0702,-5.0702,-5.0805,-5.0851,-5.0848,-5.0996,-5.1055,-5.1059,-5.1055,-5.1058,-5.1035,0.0,0.0,0.0,0.0,0.0,0.0,0.0,0.0,0.0,0.0,0.0,-4.582,-4.5599,-4.5586,-4.5586,-4.5568,-4.557,-4.5023,-4.3686,-4.3548,-4.3508,-4.3497,-4.3499,-4.3499,-4.3499,-4.5745,-4.761,-4.902,-4.8527,-4.8471,-4.886,-4.8856,-4.907,-4.9508,-4.9895,-5.0024,-4.9999,-5.0024,-5.0024,-5.0043,-4.9645,0.0,0.0,0.0,0.0,0.0,0.0,0.0,0.0,0.0,0.0,0.0,0.0,0.0,0.0,0.0,0.0,0.0,0.0,0.0,0.0,0.0,0.0,0.0,0.0,0.0,0.0,0.0,0.0,0.0,0.0,0.0,0.0,0.0,0.0,0.0,0.0,0.0,0.0,-5.0908,-5.1171,0.0,0.0,0.0,0.0,-5.1406,-5.1406,-5.1313,-5.1113,-5.1103,-5.0991,-5.0721,-5.0702,-5.0702,-5.0702,-5.0702,-5.0702,-5.0702,-5.0702,-5.0702,-5.0702,-5.0702,-5.0702,-5.0702,-5.0702,-5.0702,-5.0683,-5.0702,-5.0702,-5.0721,-5.085,-5.0908,-5.0914,-5.0908,-5.0912,-5.0892,0.0,0.0,0.0,0.0,0.0,0.0,0.0,0.0,0.0,-4.6126,-4.5884,-4.5684,-4.5599,-4.5586,-4.5586,-4.5586,-4.5591,-4.5398,-4.4886,-4.4459,-4.4014,-4.3521,-4.3513,-4.3493,-4.3506,-4.523,-4.7448,-5.0138,-4.9594,-4.9321,-4.9304,-4.9277,-4.9496,-4.9887,-5.0128,-5.0374,-5.0604,-5.0527,-5.0483,-5.0483,-5.0336,-5.0358,0.0,0.0,0.0,0.0,0.0,0.0,0.0,0.0,0.0,0.0,0.0,0.0,0.0,0.0,0.0,0.0,0.0,0.0,0.0,0.0,0.0,0.0,0.0,0.0,0.0,0.0,0.0,0.0,0.0,0.0,0.0,0.0,0.0,0.0,0.0,0.0,0.0,-5.1047,-5.1245,0.0,-5.121,-5.132,-5.1406,-5.1406,-5.1406,-5.132,-5.1167,-5.112,-5.1027,-5.0835,-5.0758,-5.0702,-5.0702,-5.0702,-5.0702,-5.0702,-5.0702,-5.0702,-5.0702,-5.0702,-5.0702,-5.0702,-5.0702,-5.0702,-5.0702,-5.0702,-5.0702,-5.0702,-5.0756,-5.0769,-5.0769,-5.0761,-5.0773,-5.0759,0.0,0.0,0.0,0.0,0.0,0.0,0.0,0.0,0.0,-4.623,-4.5884,-4.559,-4.5596,-4.5599,-4.5586,-4.5586,-4.5586,-4.5611,-4.5598,-4.5039,-4.4483,-4.398,-4.412,-4.4813,-4.6129,-4.5795,-4.7197,-5.0433,-5.026,-4.9977,-4.964,-4.9744,-4.9971,-5.0375,-5.051,-5.0711,-5.0953,-5.0863,-5.0835,-5.0819,-5.0827,-5.0829,-5.0829,0.0,0.0,0.0,0.0,0.0,0.0,0.0,0.0,0.0,0.0,0.0,0.0,0.0,0.0,0.0,0.0,0.0,0.0,0.0,0.0,0.0,0.0,0.0,0.0,0.0,0.0,0.0,0.0,0.0,0.0,0.0,0.0,0.0,0.0,0.0,-5.1182,-5.1113,-5.1289,-5.1344,-5.121,-5.132,-5.1406,-5.1406,-5.1406,-5.1346,-5.121,-5.1152,-5.1064,-5.0903,-5.0822,-5.0758,-5.0683,-5.0702,-5.0702,-5.0702,-5.0702,-5.0702,-5.0702,-5.0702,-5.0702,-5.0702,-5.0702,-5.0702,-5.0702,-5.0702,-5.0702,-5.0702,-5.0702,-5.0702,-5.0702,-5.0702,-5.0702,-5.0702,0.0,0.0,0.0,0.0,0.0,0.0,0.0,-4.5559,-4.5766,-4.622,-4.5897,-4.5625,-4.5602,-4.56,-4.5603,-4.5586,-4.5586,-4.5591,-4.5598,-4.5175,-4.495,-4.5004,-4.5445,-4.7472,-5.1237,-4.7684,-4.7163,-4.9951,-5.0471,-5.0433,-4.9933,-5.0183,-5.0529,-5.0914,-5.1029,-5.1099,-5.1094,-5.1123,-5.1103,-5.1113,-5.1101,-5.1108,-5.1081,0.0,0.0,0.0,0.0,0.0,0.0,0.0,0.0,0.0,0.0,0.0,0.0,0.0,0.0,0.0,0.0,0.0,0.0,0.0,0.0,0.0,0.0,0.0,0.0,0.0,0.0,0.0,0.0,0.0,0.0,0.0,0.0,0.0,-5.1113,-5.1152,-5.1172,-5.1113,-5.1289,-5.1344,-5.121,-5.1322,-5.1406,-5.1406,-5.1406,-5.1348,-5.1211,-5.1191,-5.1113,-5.0918,-5.0889,-5.0835,-5.0683,-5.0702,-5.0702,-5.0702,-5.0702,-5.0702,-5.0702,-5.0702,-5.0702,-5.0702,-5.0702,-5.0702,-5.0702,-5.0702,-5.0702,-5.0702,-5.0702,-5.0702,-5.0702,-5.0702,-5.0702,-5.0702,0.0,0.0,0.0,0.0,0.0,0.0,0.0,-4.4947,-4.565,-4.5791,-4.5974,-4.5976,-4.5634,-4.5601,-4.5611,-4.5603,-4.5586,-4.5607,-4.5591,-4.5577,-4.6143,-4.7442,-4.7831,-4.8482,-4.9557,-4.9718,-5.0125,-5.0782,-5.0928,-5.0858,-5.0645,-5.0695,-5.085,-5.1049,-5.1132,-5.1175,-5.1181,-5.1284,-5.1313,-5.1301,-5.1159,-5.1101,-5.1112,0.0,0.0,0.0,0.0,0.0,0.0,0.0,0.0,0.0,0.0,0.0,0.0,0.0,0.0,0.0,0.0,0.0,0.0,0.0,0.0,0.0,0.0,0.0,0.0,0.0,0.0,0.0,0.0,0.0,0.0,0.0,0.0,-5.1191,-5.1172,-5.1269,-5.1348,-5.1328,-5.1367,-5.1386,-5.1344,-5.1386,-5.1406,-5.1406,-5.1406,-5.1387,-5.1348,-5.125,-5.1148,-5.1042,-5.0959,-5.0835,-5.0683,-5.0702,-5.0702,-5.0702,-5.0702,-5.0702,-5.0702,-5.0702,-5.0702,-5.0702,-5.0702,-5.0702,-5.0702,-5.0702,-5.0702,-5.0702,-5.0702,-5.0702,-5.0702,-5.0702,-5.0702,-5.0702,0.0,0.0,0.0,0.0,0.0,0.0,0.0,-4.471,-4.5611,-4.5606,-4.6008,-4.6209,-4.591,-4.5782,-4.5772,-4.5866,-4.5794,-4.5756,-4.5814,-4.6169,-4.6931,-4.8151,-4.8805,-4.9395,-4.9942,-5.0908,-5.1331,-5.123,-5.1162,-5.1086,-5.1029,-5.1031,-5.1066,-5.1152,-5.1238,-5.1283,-5.1288,-5.1361,-5.1406,-5.1386,-5.1265,-5.1225,-5.1219,-5.1154,-5.1133,-5.1132,-5.1113,-5.0869,-5.059,-5.0815,0.0,0.0,0.0,0.0,0.0,0.0,0.0,0.0,0.0,0.0,0.0,0.0,0.0,0.0,0.0,0.0,0.0,0.0,0.0,0.0,0.0,0.0,0.0,0.0,-5.125,-5.1289,-5.1289,-5.1348,-5.1406,-5.1406,-5.1406,-5.1406,-5.1406,-5.1406,-5.1406,-5.1406,-5.1406,-5.1406,-5.1406,-5.1328,-5.1232,-5.1103,-5.1008,-5.0894,-5.0702,-5.0702,-5.0702,-5.0702,-5.0702,-5.0702,-5.0702,-5.0702,-5.0702,0.0,-5.0702,-5.0702,-5.0702,-5.0702,-5.0702,0.0,0.0,0.0,0.0,0.0,-5.0702,-5.0702,0.0,0.0,0.0,0.0,0.0,0.0,0.0,-4.4402,-4.5415,-4.5572,-4.5964,-4.622,-4.6226,-4.6065,-4.6114,-4.6555,-4.618,-4.6005,-4.6236,-4.6956,-4.7586,-4.8053,-4.9029,-5.0142,-5.1367,-5.1391,-5.141,-5.141,-5.1269,-5.1219,-5.1224,-5.1224,-5.1211,-5.123,-5.1348,-5.1406,-5.1406,-5.1406,-5.1406,-5.1406,-5.1406,-5.1406,-5.1387,-5.1269,-5.1211,-5.1211,-5.1152,-5.1054,-5.0926,-5.092,0.0,0.0,0.0,0.0,0.0,0.0,0.0,0.0,0.0,0.0,0.0,0.0,0.0,0.0,0.0,0.0,0.0,0.0,0.0,0.0,0.0,0.0,0.0,0.0,-5.1328,-5.1406,-5.1406,-5.1406,-5.1406,-5.1406,-5.1406,-5.1406,-5.1406,-5.1406,-5.1406,-5.1406,-5.1406,-5.1406,-5.1406,0.0,0.0,0.0,0.0,-5.0966,-5.0702,-5.0702,-5.0702,-5.0702,-5.0702,-5.0702,-5.0702,-5.0702,-5.0702,-5.0702,-5.0702,-5.0702,-5.0702,-5.0702,-5.0702,-5.0702,-5.0702,-5.0702,-5.0702,-5.0702,-5.0702,0.0,0.0,0.0,0.0,0.0,0.0,0.0,0.0,-4.2557,-4.4293,-4.5438,-4.5676,-4.5738,-4.5738,-4.603,-4.6811,-4.8274,-4.6975,-4.6368,-4.7103,-4.7947,-4.8814,-4.9705,-4.9959,-5.0488,-5.1387,-5.1406,-5.1404,-5.1404,-5.1364,-5.1364,-5.1364,-5.1367,-5.1367,-5.1367,-5.1387,-5.1406,-5.1406,-5.1406,-5.1406,-5.1406,-5.1406,-5.1406,-5.1406,-5.1367,-5.1367,-5.1367,-5.1348,-5.1255,-5.1135,-5.1084,-5.0914,-5.0731,-5.0625,-5.0565,0.0,0.0,0.0,0.0,0.0,0.0,0.0,0.0,0.0,0.0,0.0,0.0,0.0,0.0,0.0,0.0,0.0,0.0,0.0,-5.1348,-5.1387,-5.1406,-5.1406,-5.1406,-5.1406,-5.1406,-5.1406,-5.1406,-5.1406,-5.1406,-5.1406,-5.1406,-5.1406,-5.1406,-5.1406,-5.1406,0.0,-5.1123,-5.1094,-5.0966,-5.0702,-5.0702,-5.0702,-5.0702,0.0,0.0,-5.0702,-5.0702,-5.0702,-5.0702,-5.0702,-5.0702,-5.0702,-5.0702,-5.0702,-5.0702,-5.0702,-5.0702,-5.0702,-5.0702,-5.0702,-5.0702,0.0,0.0,0.0,0.0,0.0,0.0,0.0,-4.3019,-4.3756,-4.444,-4.6644,-4.8144,-4.8147,-4.837,-4.8962,-5.0057,-4.8521,-4.7881,-4.8738,-4.9209,-4.9859,-5.0762,-5.0801,-5.0996,-5.1387,-5.1406,-5.1406,-5.1406,-5.1406,-5.1406,-5.1406,-5.1406,-5.1406,-5.1406,-5.1406,-5.1406,-5.1406,-5.1406,-5.1406,-5.1406,-5.1406,-5.1406,-5.1406,-5.1406,-5.1406,-5.1406,-5.1406,-5.1288,-5.1133,-5.1113,-5.0985,-5.0791,-5.0721,-5.0702,-5.0702,0.0,0.0,0.0,0.0,0.0,0.0,0.0,0.0,0.0,0.0,0.0,0.0,0.0,0.0,-5.1269,0.0,0.0,-5.1328,-5.1387,-5.1406,-5.1406,-5.1406,-5.1406,-5.1406,-5.1406,-5.1406,-5.1406,-5.1406,-5.1406,-5.1406,-5.1406,-5.1406,-5.1406,-5.1406,-5.1406,-5.131,-5.1123,-5.1094,-5.0966,-5.0702,-5.0702,-5.0702,-5.0702,-5.0702,-5.0702,-5.0702,-5.0702,-5.0702,-5.0702,-5.0702,-5.0702,-5.0702,-5.0702,-5.0702,-5.0702,-5.0702,-5.0702,-5.0702,-5.0702,-5.0702,-5.0702,0.0,0.0,0.0,0.0,0.0,0.0,0.0,0.0,-4.38,-4.4363,-4.7252,-4.9659,-5.0604,-5.0711,-5.0765,-5.0953,-4.9957,-4.9543,-5.009,-5.0285,-5.0656,-5.1301,-5.134,-5.134,-5.134,-5.134,-5.1343,-5.1365,-5.1343,-5.1343,-5.1365,-5.1381,-5.1398,-5.1398,-5.1398,-5.1379,-5.134,-5.134,-5.134,-5.134,-5.1364,-5.1365,-5.1365,-5.1386,-5.1406,-5.1406,-5.1406,-5.1277,-5.1122,-5.1103,-5.0945,-5.074,-5.0702,-5.0702,-5.0702,-5.0702,-5.0702,0.0,0.0,0.0,0.0,0.0,0.0,0.0,0.0,-5.12,-5.123,-5.123,-5.1316,-5.1406,-5.1406,-5.1406,-5.1406,-5.1406,-5.1406,-5.1406,-5.1406,-5.1406,-5.1406,-5.1406,-5.1406,-5.1406,-5.1406,-5.1406,-5.1406,-5.1406,-5.1406,-5.1406,-5.1406,-5.1406,-5.131,-5.1123,-5.1094,-5.0966,-5.0702,-5.0702,-5.0702,-5.0702,-5.0702,-5.0702,-5.0702,-5.0702,-5.0702,-5.0702,-5.0702,-5.0702,-5.0702,-5.0702,-5.0702,-5.0702,-5.0702,-5.0702,-5.0702,-5.0702,-5.0702,-5.0702,0.0,0.0,0.0,0.0,0.0,0.0,0.0,0.0,0.0,-4.7443,-4.5737,-4.5937,-5.0226,-5.0698,-5.0356,-4.9518,-5.0304,-5.0566,-4.9895,-5.0566,-5.1033,-5.1131,-5.1131,-5.1131,-5.1131,-5.1131,-5.116,-5.1215,-5.116,-5.1167,-5.121,-5.1335,-5.1403,-5.1403,-5.1403,-5.1306,-5.1131,-5.1131,-5.1131,-5.1139,-5.121,-5.1215,-5.1238,-5.1346,-5.1406,-5.1406,-5.1406,-5.1318,-5.118,-5.1111,-5.1004,-5.0867,-5.074,-5.0702,-5.0702,-5.0702,-5.0702,-5.0702,-5.0702,-5.0808,-5.0932,-5.1072,-5.1133,-5.1225,0.0,-5.1365,-5.1386,-5.1386,-5.1386,-5.1406,-5.1406,-5.1406,-5.1406,-5.1406,-5.1406,-5.1406,-5.1406,-5.1406,-5.1406,-5.1406,-5.1406,-5.1406,-5.1406,-5.1406,-5.1406,-5.1406,-5.1406,-5.1406,-5.1406,-5.1406,-5.131,-5.1123,-5.1094,-5.0966,-5.0702,-5.0702,-5.0702,-5.0702,-5.0702,-5.0702,-5.0702,-5.0702,-5.0702,-5.0702,-5.0702,-5.0702,-5.0702,-5.0702,-5.0702,-5.0702,-5.0702,-5.0702,-5.0702,-5.0702,-5.0702,-5.0702,0.0,0.0,0.0,0.0,0.0,0.0,0.0,0.0,0.0,0.0,-4.6226,-4.7052,-4.9099,-4.9675,-4.9831,-4.9527,-5.0255,-5.0591,-5.0222,-5.077,-5.1094,-5.1094,-5.1094,-5.1094,-5.1094,-5.1094,-5.1122,-5.1145,-5.1122,-5.1122,-5.1145,-5.1113,-5.1152,-5.123,-5.1055,-5.0958,-5.088,-5.088,-5.0958,-5.1094,-5.1128,-5.1145,-5.116,-5.1254,-5.1274,-5.1296,-5.1366,-5.132,0.0,-5.1111,-5.1016,-5.0879,-5.074,-5.0702,-5.0702,-5.0702,-5.0702,-5.074,-5.0894,-5.0966,-5.1063,-5.123,-5.131,-5.1322,-5.1386,-5.1406,-5.1406,-5.1406,-5.1406,-5.1406,-5.1406,-5.1406,-5.1406,0.0,-5.1406,-5.1406,-5.1406,-5.1406,-5.1406,-5.1406,-5.1406,-5.1406,-5.1406,-5.1406,-5.1406,-5.1406,-5.1406,-5.1406,-5.1406,-5.1406,-5.131,-5.1123,-5.1094,-5.0966,-5.0702,-5.0702,-5.0702,-5.0702,-5.0702,-5.0702,-5.0702,-5.0702,-5.0702,-5.0702,-5.0702,-5.0702,-5.0702,-5.0702,-5.0702,-5.0702,-5.0702,-5.0702,-5.0702,-5.0702,-5.0702,-5.0702,0.0,0.0,0.0,0.0,0.0,0.0,0.0,0.0,0.0,0.0,0.0,-4.7547,-4.8237,-4.8781,-4.9239,-4.96,-5.0104,-5.0385,-5.0385,-5.0782,-5.0991,-5.0991,-5.0991,-5.0991,-5.0991,-5.0991,-5.1016,-5.1031,-5.1016,-5.1016,-5.1031,-5.0906,-5.0894,-5.0991,-5.0797,-5.07,-5.07,-5.07,-5.0817,-5.0991,-5.1039,-5.1031,-5.1053,-5.1133,-5.1174,-5.1185,-5.1343,-5.132,-5.1196,-5.1133,-5.1063,-5.0932,-5.0808,-5.0757,-5.0758,-5.0702,-5.074,-5.0808,-5.0991,-5.1094,-5.116,-5.1316,-5.1366,-5.1406,-5.1406,-5.1406,-5.1406,-5.1406,-5.1406,-5.1406,-5.1406,-5.1406,-5.1406,-5.1406,-5.1406,-5.1406,-5.1406,-5.1406,-5.1406,-5.1406,-5.1406,-5.1406,-5.1406,-5.1406,-5.1406,-5.1406,-5.1406,-5.1406,-5.1406,-5.1366,-5.1277,-5.1113,-5.1053,-5.0932,-5.0702,-5.0702,-5.0702,-5.0702,-5.0702,-5.0702,-5.0702,-5.0702,-5.0702,-5.0702,-5.0702,-5.0702,-5.0702,-5.0702,-5.0702,-5.0702,-5.0702,-5.0702,-5.0702,-5.0702,-5.0702,-5.0702,0.0,0.0,0.0,0.0,0.0,0.0,0.0,0.0,0.0,0.0,0.0,0.0,0.0,-4.834,-4.8635,-4.9428,-4.9879,-5.0097,-5.0097,-5.0485,-5.0721,-5.0721,-5.0721,-5.0721,-5.0721,-5.0721,-5.0793,-5.0923,-5.0793,-5.0773,-5.0889,-5.0773,-5.0721,-5.0721,-5.0702,-5.0702,-5.0702,-5.0702,-5.0702,-5.0721,-5.0851,-5.0923,-5.0918,-5.1042,-5.1094,-5.1131,-5.1335,-5.132,-5.1201,-5.1201,-5.1147,-5.1063,-5.0945,-5.0894,-5.0863,-5.074,-5.0791,-5.0908,-5.0889,-5.1055,-5.1201,-5.1206,-5.1299,-5.1406,-5.1406,-5.1406,-5.1406,-5.1406,-5.1406,-5.1406,-5.1406,-5.1406,-5.1406,-5.1406,-5.1406,-5.1406,-5.1406,-5.1406,-5.1406,-5.1406,-5.1406,-5.1406,0.0,-5.1406,-5.1406,-5.1406,-5.1406,-5.1406,-5.1406,-5.1271,-5.1167,-5.1094,-5.0966,-5.0835,-5.0683,-5.0702,-5.0702,-5.0702,-5.0702,-5.0702,-5.0702,-5.0702,-5.0702,-5.0702,-5.0702,-5.0702,-5.0702,-5.0702,-5.0702,-5.0702,-5.0702,-5.0702,-5.0702,-5.0702,-5.0702,-5.0702,0.0,0.0,0.0,0.0,0.0,0.0,0.0,0.0,0.0,0.0,0.0,0.0,0.0,0.0,0.0,0.0,-4.8453,-4.888,-4.9276,-4.9673,-4.9898,-4.9898,-4.9898,-4.9898,-4.9898,-5.0159,-5.032,-5.0389,-5.0586,-5.0721,-5.0775,-5.0721,-5.0702,-5.0702,-5.0702,-5.0702,-5.0702,-5.0702,-5.0702,-5.0702,-5.0739,-5.0775,-5.0773,-5.0918,-5.0966,-5.0991,0.0,-5.1191,-5.1209,-5.1206,-5.1185,-5.1147,-5.1063,-5.0966,-5.0894,-5.0851,-5.0932,-5.1042,-5.1092,-5.1141,-5.121,-5.1318,-5.1366,-5.1406,-5.1406,-5.1406,-5.1406,-5.1406,-5.1406,-5.1406,-5.1406,-5.1406,-5.1406,-5.1406,-5.1406,-5.1406,-5.1406,-5.1406,-5.1406,-5.1406,-5.1406,0.0,0.0,0.0,0.0,-5.1406,-5.1406,-5.1406,-5.1406,-5.1268,-5.1167,-5.1094,-5.0966,-5.0835,-5.0683,-5.0702,-5.0702,-5.0702,-5.0702,-5.0702,-5.0702,-5.0702,-5.0702,-5.0702,-5.0702,-5.0702,-5.0702,-5.0702,-5.0702,-5.0702,-5.0702,-5.0702,-5.0702,-5.0702,-5.0702,-5.0702,0.0,0.0,0.0,0.0,0.0,0.0,0.0,0.0,0.0,0.0,0.0,0.0,0.0,0.0,0.0,0.0,0.0,-4.8144,-4.8546,-4.9165,-4.9504,-4.9504,-4.9504,-4.9561,-4.9719,-4.9974,-5.0159,-5.0294,-5.0421,-5.0565,-5.0683,-5.0399,-5.0435,-5.0694,-5.0694,-5.0694,-5.0675,-5.0387,-5.0449,-5.0683,-5.0544,-5.0565,-5.0702,-5.0808,-5.0839,0.0,-5.0979,-5.1084,-5.116,-5.1191,-5.122,-5.1261,-5.1167,-5.1054,-5.0966,-5.0966,-5.1063,-5.1152,-5.1191,-5.1238,-5.1294,-5.1386,-5.1406,-5.1406,-5.1406,-5.1406,-5.1406,-5.1406,-5.1406,-5.1406,-5.1406,-5.1406,-5.1504,-5.1816,-5.1855,-5.1855,-5.1855,-5.1855,-5.1758,-5.1445,-5.1406,-5.1406,0.0,0.0,0.0,-5.1406,-5.1406,-5.1406,-5.1406,-5.1254,-5.1133,-5.1094,-5.0918,-5.0791,-5.0683,-5.0702,-5.0702,-5.0702,-5.0702,-5.0702,-5.0702,-5.0702,-5.0702,-5.0702,-5.0702,-5.0702,-5.0702,-5.0702,-5.0702,-5.0702,-5.0702,-5.0702,-5.0683,-5.0529,-5.0491,-5.051,0.0,0.0,0.0,0.0,0.0,0.0,0.0,0.0,0.0,0.0,0.0,0.0,0.0,0.0,0.0,0.0,0.0,0.0,-4.7992,-4.8884,-4.9416,-4.9445,-4.9445,-4.9617,-4.9999,-5.0043,-5.0225,-5.0604,-5.0249,-5.0272,-5.0624,-4.9872,-4.9909,-5.0645,-5.0645,-5.067,-5.0651,-4.9902,-4.9988,-5.0663,-5.0272,-5.0358,-5.0702,-5.0702,-5.0702,-5.0721,-5.0835,-5.0966,-5.1103,-5.1174,-5.1294,-5.1386,-5.1238,-5.1154,-5.1113,-5.1103,-5.1167,-5.1206,-5.1206,-5.1296,-5.1406,-5.1406,-5.1406,-5.1406,-5.1406,-5.1406,-5.1406,-5.1406,-5.1406,-5.1406,0.0,0.0,-5.166,-5.248,-5.2617,-5.2617,-5.2617,-5.2617,-5.2324,0.0,0.0,0.0,0.0,0.0,0.0,-5.1386,0.0,-5.1386,-5.1386,-5.12,-5.1084,-5.1084,-5.0835,-5.0702,-5.0702,-5.0702,-5.0702,-5.0702,-5.0702,-5.0702,-5.0702,-5.0702,-5.0702,-5.0702,-5.0702,-5.0702,-5.0702,-5.0702,-5.0702,-5.0702,-5.0702,-5.0702,-5.0644,-5.026,-5.0105,-5.0161,0.0,0.0,0.0,0.0,0.0,0.0,0.0,0.0,0.0,0.0,0.0,0.0,0.0,0.0,0.0,0.0,0.0,0.0,-4.75,-4.7809,-4.8141,-4.8604,-4.8604,-4.8657,-4.8763,-4.9043,-4.9265,-4.9367,-4.9561,-4.9719,-4.98,-4.9608,-4.9618,-4.9797,-4.9797,-5.013,-5.0689,-5.0479,-5.0508,-5.0683,-5.0604,-5.0604,-5.0702,-5.0702,-5.0702,-5.0702,-5.074,-5.0835,-5.0991,-5.1135,-5.1294,-5.1386,-5.1238,-5.1261,-5.1291,-5.1191,-5.1261,-5.1344,-5.1344,-5.1366,-5.1406,-5.1406,-5.1406,-5.1406,-5.1406,-5.1406,-5.1406,-5.1406,-5.1406,-5.1406,-5.1406,0.0,0.0,-5.1554,-5.1536,0.0,-5.151,-5.1547,0.0,-5.1281,-5.1343,-5.1365,-5.1265,-5.1242,0.0,0.0,-5.1221,-5.1242,-5.1242,-5.1055,-5.0959,-5.0959,-5.0791,-5.0702,-5.0702,-5.0702,-5.0702,-5.0702,-5.0702,-5.0702,-5.0702,-5.0702,-5.0702,-5.0702,-5.0702,-5.0702,-5.0702,-5.0702,-5.0702,-5.0702,-5.0702,-5.0702,-5.0644,-5.026,-5.0101,-5.006,0.0,0.0,0.0,0.0,0.0,0.0,0.0,0.0,0.0,0.0,0.0,0.0,0.0,0.0,0.0,0.0,0.0,0.0,0.0,-4.7237,-4.7656,-4.8267,-4.8306,-4.8402,-4.8568,-4.8779,-4.8996,-4.9171,-4.9202,-4.9326,-4.9475,-4.9158,-4.9169,-4.949,-4.914,-4.9408,-5.0195,-5.0563,-5.0699,0.0,0.0,-5.0544,-5.0702,-5.0702,-5.0702,-5.0702,-5.0702,-5.0791,-5.0932,-5.1092,-5.1199,-5.1258,-5.1181,-5.1213,-5.1258,-5.1181,-5.1213,-5.1277,-5.1296,-5.1288,-5.1281,-5.1386,-5.1365,-5.1322,-5.1386,-5.1406,-5.1406,-5.1406,-5.1406,-5.1406,-5.1406,-5.1294,-5.1338,0.0,0.0,0.0,-5.1619,-5.1663,-5.1544,0.0,-5.123,0.0,-5.1154,-5.1167,-5.1145,0.0,-5.1137,-5.1167,-5.1167,-5.0977,-5.0908,-5.0908,-5.0775,-5.0702,-5.0702,-5.0702,-5.0702,-5.0702,-5.0702,-5.0702,-5.0702,-5.0702,-5.0702,-5.0702,0.0,-5.0702,-5.0702,-5.0702,-5.0702,-5.0702,-5.0702,-5.0702,-5.0625,-5.0048,-4.9852,-4.9765,0.0,0.0,0.0,0.0,0.0,0.0,0.0,0.0,0.0,0.0,0.0,0.0,0.0,0.0,0.0,0.0,0.0,0.0,0.0,0.0,-4.7428,-4.8017,-4.8114,-4.8346,-4.8707,-4.8795,-4.8996,-4.9326,-4.8996,-4.8996,-4.9326,-4.864,-4.868,-4.9309,-4.8609,-4.8693,-4.9397,-5.021,-5.0525,-5.0504,-5.0159,-5.0225,-5.0544,0.0,-5.0544,-5.0544,-5.0604,-5.07,-5.0825,-5.0984,-5.1063,-5.1094,-5.1094,-5.1094,-5.1094,-5.1094,-5.1094,-5.1113,-5.1167,-5.1133,-5.1139,-5.1313,-5.1265,-5.1225,-5.1343,-5.1366,-5.1386,-5.1406,-5.1406,-5.1406,-5.1406,-5.1271,-5.1425,-5.2186,0.0,-5.2092,-5.2092,-5.2094,-5.1871,-5.1161,-5.1084,-5.1084,-5.1083,-5.1063,-5.1072,-5.1061,-5.1061,-5.1042,-5.1063,-5.0959,-5.0863,-5.0863,-5.0757,-5.0702,-5.0702,-5.0702,-5.0702,-5.0702,-5.0702,-5.0702,-5.0702,-5.0702,-5.0702,-5.0702,0.0,0.0,-5.0702,-5.0702,-5.0702,-5.0702,-5.0702,-5.0664,-5.0529,-4.9779,-4.9484,-4.9358,0.0,0.0,0.0,0.0,0.0,0.0,0.0,0.0,0.0,0.0,-4.2796,-4.4235,0.0,0.0,0.0,0.0,0.0,0.0,0.0,0.0,0.0,-4.671,-4.7281,-4.7596,-4.7661,-4.8155,-4.8421,-4.8513,-4.8421,-4.8458,-4.8532,-4.8364,-4.8363,-4.8513,-4.8346,-4.8382,-4.8553,-4.9347,-4.972,-4.9719,-4.9617,-4.9664,-4.9719,-4.9719,0.0,0.0,-5.0068,-5.021,-5.0281,-5.0663,-5.0918,-5.1094,-5.1094,-5.1094,-5.1094,-5.1094,-5.1094,-5.1094,-5.1122,-5.1113,-5.1103,-5.1148,-5.1139,-5.1137,-5.1225,-5.1238,-5.1268,-5.1386,-5.1406,-5.1406,-5.1406,-5.126,-5.1161,-5.1317,-5.1145,-5.0968,-5.0968,-5.1076,-5.1101,0.0,-5.102,-5.1061,-5.0945,-5.0932,0.0,0.0,0.0,-5.0822,-5.0932,-5.0805,-5.074,-5.074,-5.0721,-5.0702,-5.0702,-5.0702,-5.0702,-5.0702,-5.0702,-5.0702,-5.0702,-5.0702,-5.0702,-5.0702,0.0,0.0,-5.0702,-5.0702,-5.0702,-5.0702,-5.0702,-5.0491,-5.0144,-4.9683,-4.9286,-4.8952,0.0,0.0,0.0,0.0,0.0,0.0,0.0,-3.9424,-3.9376,-3.9375,-4.0841,-4.2188,-4.2961,-4.3555,-4.4138,0.0,0.0,0.0,0.0,0.0,0.0,0.0,-4.7044,-4.7385,-4.7385,-4.7977,-4.8306,-4.8306,0.0,-4.8306,-4.8306,-4.8306,-4.8306,-4.8306,-4.8306,-4.831,-4.8342,-4.8729,-4.9139,-4.9504,-4.9504,-4.9504,-4.9504,0.0,0.0,0.0,-4.9719,-4.98,-4.98,-5.0019,-5.0164,-5.0356,-5.0755,-5.0894,-5.0894,-5.0894,-5.0894,-5.0923,-5.0979,-5.0926,-5.0932,-5.1072,-5.1061,-5.102,-5.1117,-5.116,-5.1167,-5.123,-5.1235,-5.1235,-5.1235,-5.1102,-5.0991,-5.0991,-5.0819,-5.0702,-5.0702,-5.0757,-5.0808,-5.0808,-5.0851,-5.0883,-5.0789,-5.0808,0.0,0.0,0.0,0.0,-5.0791,-5.074,-5.0702,-5.0702,-5.0702,-5.0702,-5.0702,-5.0702,-5.0702,-5.0702,-5.0702,-5.0702,-5.0702,-5.0702,-5.0702,-5.0702,-5.0702,0.0,-5.0702,-5.0702,-5.0702,-5.0702,-5.0702,-5.0567,-5.0354,-4.9736,-4.937,-4.9118,0.0,0.0,0.0,0.0,0.0,0.0,0.0,-3.9424,-3.9424,-3.9424,-3.9415,-4.0298,-4.2545,-4.312,-4.3562,0.0,0.0,0.0,0.0,0.0,0.0,0.0,0.0,-4.6999,-4.6999,0.0,0.0,-4.8132,-4.8229,0.0,0.0,0.0,0.0,0.0,-4.8306,-4.8292,-4.8282,-4.8282,-4.8669,0.0,0.0,-4.9234,0.0,0.0,0.0,0.0,0.0,-4.9356,-4.9386,-4.9475,-4.9504,-4.9589,-5.0249,-5.0504,-5.0604,-5.0663,-5.0702,-5.0721,-5.0839,-5.0773,-5.0739,-5.0953,-5.0932,-5.0894,-5.1027,-5.1072,-5.1072,-5.1084,-5.1094,-5.1094,-5.1094,-5.0991,-5.0908,-5.0908,-5.0791,-5.0702,-5.0702,-5.0702,-5.0702,-5.0702,-5.0702,0.0,-5.0702,-5.0702,0.0,0.0,0.0,0.0,-5.0702,-5.0702,-5.0702,-5.0702,-5.0702,-5.0702,-5.0702,-5.0702,-5.0702,-5.0702,-5.0702,-5.0702,-5.0702,-5.0702,-5.0702,-5.0702,-5.0702,0.0,0.0,-5.0702,-5.0702,-5.0702,-5.0702,-5.0644,-5.0486,-4.9758,-4.9453,-4.9285,0.0,0.0,0.0,0.0,0.0,0.0,0.0,-3.9424,-3.9424,-3.9424,-3.9364,-3.9878,-4.1166,-4.2496,-4.3306,0.0,0.0,0.0,0.0,0.0,0.0,0.0,0.0,0.0,0.0,0.0,0.0,-4.747,-4.8035,0.0,0.0,0.0,0.0,0.0,0.0,-4.8326,-4.8327,-4.8327,0.0,0.0,0.0,0.0,0.0,0.0,0.0,0.0,0.0,-4.8963,-4.9011,-4.9386,-4.9504,-4.9504,-4.9608,-4.9853,-5.0225,-5.0604,-5.0702,-5.0702,-5.0721,-5.0702,-5.0702,-5.0721,-5.0721,-5.0757,-5.0894,-5.0918,-5.094,-5.1063,-5.1094,-5.1094,-5.1094,-5.0991,-5.0908,-5.0908,-5.0791,-5.0702,-5.0702,-5.0702,-5.0702,-5.0702,0.0,0.0,-5.0702,0.0,0.0,0.0,0.0,0.0,0.0,-5.0702,-5.0702,-5.0702,-5.0702,-5.0702,-5.0702,-5.0702,-5.0702,-5.0702,-5.0702,-5.0702,-5.0702,-5.0702,-5.0702,-5.0702,0.0,0.0,0.0,-5.0702,-5.0702,-5.0702,-5.0702,-5.0471,-5.0106,-4.9658,-4.9268,-4.8897,0.0,0.0,0.0,0.0,0.0,0.0,-3.9424,-3.9424,-3.9424,-3.9424,-3.9424,-3.9849,-4.1017,-4.1965,-4.297,-4.4006,0.0,0.0,0.0,0.0,0.0,0.0,0.0,0.0,0.0,0.0,-4.7385,-4.7385,-4.7977,0.0,0.0,0.0,0.0,0.0,0.0,0.0,-4.8306,-4.8306,0.0,0.0,0.0,0.0,0.0,0.0,0.0,0.0,0.0,0.0,-4.8568,-4.8728,-4.8797,-4.8813,-4.9043,-4.9265,-4.9485,-5.0159,-5.0336,-5.0399,-5.0624,-5.0702,-5.0702,-5.0702,-5.0702,-5.0721,-5.0775,-5.0773,-5.0789,-5.0851,-5.0867,-5.0867,-5.0867,-5.0822,-5.0773,-5.0773,-5.074,-5.0702,-5.0702,-5.0702,-5.0702,-5.0702,-5.0702,0.0,0.0,0.0,0.0,0.0,0.0,0.0,0.0,-5.0702,-5.0702,-5.0702,-5.0702,-5.0702,-5.0702,-5.0702,-5.0702,-5.0702,-5.0702,-5.0702,-5.0702,-5.0702,-5.0702,-5.0702,0.0,0.0,0.0,-5.0702,-5.0702,-5.0702,-5.0702,-5.0452,-5.0048,-4.9663,-4.9248,-4.8822,0.0,0.0,0.0,0.0,0.0,-3.9424,-3.9424,-3.9424,-3.9421,-3.9384,-3.9839,-4.0477,-4.1299,-4.1965,-4.297,-4.4457,-4.4587,0.0,0.0,0.0,0.0,0.0,0.0,0.0,0.0,0.0,-4.7088,-4.7088,-4.7897,-4.8306,0.0,0.0,0.0,0.0,0.0,0.0,0.0,0.0,0.0,0.0,0.0,0.0,0.0,0.0,0.0,0.0,0.0,0.0,0.0,0.0,0.0,-4.8326,-4.8621,-4.8709,-4.8863,-4.9692,-4.9924,-4.9974,-5.0272,-5.0336,-5.0336,-5.0336,-5.0421,-5.0504,-5.0504,-5.0604,-5.0702,-5.0702,-5.0702,-5.0702,-5.0702,-5.0702,-5.0702,-5.0702,-5.0702,-5.0702,-5.0702,-5.0702,-5.0702,-5.0702,0.0,0.0,0.0,0.0,0.0,0.0,0.0,0.0,0.0,-5.0702,-5.0702,-5.0702,-5.0702,-5.0702,-5.0702,-5.0702,-5.0702,-5.0702,-5.0702,-5.0702,-5.0702,-5.0702,-5.0702,-5.0702,0.0,0.0,0.0,-5.0702,-5.0702,-5.0702,-5.0702,-5.0452,-5.0047,-4.9639,-4.9227,-4.8822,0.0,0.0,0.0,0.0,0.0,0.0,-3.9424,-3.9424,-3.9414,-3.9421,-4.0882,-4.1955,-4.1975,-4.2764,-4.3621,-4.4514,-4.4587,0.0,0.0,0.0,0.0,0.0,0.0,0.0,0.0,0.0,-4.643,-4.643,-4.7697,-4.8306,-4.8306,-4.8306,-4.8306,-4.8306,0.0,0.0,0.0,0.0,0.0,0.0,0.0,0.0,0.0,0.0,0.0,0.0,0.0,0.0,0.0,0.0,0.0,0.0,0.0,-4.8306,-4.8458,-4.9265,-4.9522,-4.9504,-4.9504,-4.9504,-4.9504,-4.9504,-4.98,-5.0111,-5.0111,-5.0421,-5.0702,-5.0702,-5.0702,-5.0702,-5.0702,-5.0702,-5.0702,-5.0702,-5.0702,-5.0702,-5.0702,-5.0702,-5.0702,0.0,0.0,0.0,0.0,0.0,0.0,0.0,0.0,0.0,0.0,-5.0702,-5.0702,-5.0702,-5.0702,-5.0702,-5.0702,-5.0702,-5.0702,-5.0702,-5.0702,-5.0702,-5.0702,-5.0702,-5.0702,0.0,0.0,0.0,0.0,-5.0702,-5.0702,-5.0702,-5.0702,-5.0452,-5.0042,-4.9635,-4.9248,-4.8822,0.0,0.0,0.0,0.0,0.0,0.0,0.0,-4.047,-4.03,-3.9486,-4.1241,-4.288,-4.3668,-4.3498,-4.3621,-4.4514,-4.4587,0.0,0.0,0.0,0.0,0.0,0.0,0.0,0.0,0.0,-4.5783,-4.5783,-4.7044,-4.7601,-4.7493,-4.802,-4.8306,-4.8306,-4.8306,0.0,0.0,0.0,0.0,0.0,0.0,0.0,0.0,0.0,0.0,0.0,0.0,0.0,0.0,0.0,0.0,0.0,0.0,0.0,0.0,-4.8604,-4.8863,-4.9139,-4.9416,-4.9504,-4.958,-4.9827,-5.0019,-5.0159,-5.0462,-5.0604,-5.0702,-5.0702,-5.0702,-5.0702,-5.0702,-5.0702,-5.0702,-5.0702,-5.0702,-5.0702,-5.0702,0.0,0.0,-5.0702,0.0,0.0,0.0,0.0,0.0,0.0,0.0,0.0,0.0,-5.0702,-5.0702,-5.0702,-5.0702,-5.0702,-5.0702,-5.0702,-5.0702,-5.0702,-5.0702,-5.0702,-5.0702,-5.0702,0.0,0.0,0.0,0.0,0.0,-5.0702,-5.0702,-5.0702,-5.0702,-5.0298,-4.9656,-4.9527,-4.9062,-4.8453,0.0,0.0,0.0,0.0,0.0,0.0,0.0,-4.0701,-4.0945,-4.0432,-4.1789,-4.326,-4.4456,-4.4106,-4.4006,-4.457,-4.4587,0.0,0.0,0.0,0.0,0.0,0.0,0.0,0.0,-4.5178,-4.5511,-4.5511,-4.672,-4.7367,-4.7554,-4.8072,-4.8306,-4.8306,-4.8306,-4.8306,0.0,0.0,0.0,0.0,0.0,0.0,-4.8306,0.0,0.0,0.0,0.0,0.0,0.0,0.0,0.0,0.0,0.0,0.0,0.0,0.0,-4.8495,-4.8728,-4.8963,-4.9062,-4.9126,-4.9356,-4.9532,-4.9754,-5.0159,-5.0358,-5.0523,-5.0663,-5.0702,-5.0702,-5.0702,-5.0702,-5.0702,-5.0702,-5.0702,-5.0702,-5.0702,0.0,0.0,-5.0702,0.0,0.0,0.0,0.0,0.0,0.0,0.0,0.0,0.0,0.0,-5.0702,-5.0702,-5.0702,-5.0702,-5.0702,-5.0702,-5.0702,-5.0702,-5.0702,-5.0702,-5.0702,-5.0702,0.0,0.0,0.0,0.0,0.0,-5.0702,-5.0702,-5.0702,-5.0702,-5.0221,-4.9503,-4.9489,-4.8989,-4.8306,0.0,0.0,0.0,0.0,0.0,0.0,0.0,-4.0485,-4.1357,-4.1917,-4.2526,-4.333,-4.4491,-4.4587,-4.4587,-4.4587,0.0,0.0,0.0,0.0,0.0,0.0,0.0,0.0,-4.4587,-4.5142,-4.5459,-4.5459,-4.6493,-4.7371,-4.8034,-4.8138,-4.8229,-4.8304,-4.8229,-4.8249,0.0,0.0,0.0,0.0,0.0,0.0,0.0,0.0,0.0,0.0,0.0,0.0,0.0,0.0,0.0,0.0,0.0,0.0,0.0,0.0,0.0,0.0,0.0,-4.8306,-4.8306,-4.8344,-4.8621,-4.9029,-4.9416,-4.98,0.0,-5.0544,-5.0604,-5.0604,-5.0604,-5.0604,-5.0604,-5.0604,-5.0604,-5.0604,0.0,-5.0604,0.0,0.0,0.0,0.0,0.0,0.0,0.0,0.0,0.0,0.0,0.0,0.0,-5.0702,-5.0702,-5.0702,-5.0702,-5.0702,-5.0702,-5.0702,-5.0702,-5.0702,-5.0702,-5.0702,-5.0702,0.0,0.0,0.0,0.0,0.0,-5.0702,-5.0702,-5.0702,-5.0702,-5.0221,-4.9503,-4.9489,-4.8989,-4.8306,0.0,0.0,0.0,0.0,0.0,0.0,0.0,0.0,0.0,0.0,-4.3234,-4.4279,-4.4587,-4.4587,-4.4587,0.0,0.0,0.0,0.0,0.0,0.0,0.0,0.0,0.0,-4.4587,-4.472,-4.4814,-4.4814,-4.5701,-4.588,-4.5498,-4.64,-4.7392,-4.826,-4.765,-4.7729,0.0,0.0,0.0,0.0,0.0,0.0,0.0,0.0,0.0,0.0,-4.8306,-4.8306,0.0,0.0,0.0,0.0,0.0,0.0,0.0,0.0,-4.8306,-4.8306,-4.8306,0.0,-4.8364,-4.8692,-4.8847,-4.9029,0.0,-4.9561,-4.9664,-4.9773,-4.9773,-4.9773,-4.9773,-4.9773,-4.9773,-4.9773,-4.9773,-4.9773,-4.9773,0.0,0.0,0.0,0.0,0.0,0.0,0.0,0.0,0.0,0.0,0.0,0.0,0.0,-5.0702,-5.0702,-5.0702,-5.0702,-5.0702,-5.0702,-5.0702,-5.0702,-5.0702,-5.0702,-5.0702,-5.0702,0.0,0.0,0.0,0.0,-5.0702,-5.0702,-5.0702,-5.0702,-5.0702,-5.0221,-4.9503,-4.9489,-4.8989,-4.8306,0.0,0.0,0.0,0.0,0.0,0.0,0.0,0.0,0.0,0.0,0.0,0.0,0.0,0.0,0.0,0.0,0.0,0.0,0.0,0.0,0.0,0.0,0.0,-4.4587,-4.4587,-4.4587,-4.4587,-4.4587,-4.5058,-4.5027,-4.4647,-4.5859,-4.6856,-4.7759,-4.7697,-4.7904,0.0,0.0,0.0,0.0,-4.8306,0.0,0.0,0.0,0.0,0.0,-4.8306,-4.8306,0.0,-4.8306,-4.8306,-4.8306,0.0,0.0,0.0,0.0,-4.8306,-4.8306,-4.8306,-4.8306,-4.8364,-4.8568,-4.8621,-4.8728,-4.9139,-4.9234,-4.9265,-4.9445,-4.9504,-4.9504,-4.9504,-4.9504,-4.9504,-4.9504,-4.9504,0.0,0.0,0.0,0.0,0.0,0.0,0.0,0.0,0.0,0.0,0.0,0.0,0.0,0.0,0.0,-5.0504,-5.0683,-5.0702,-5.0702,-5.0702,-5.0702,-5.0702,-5.0702,-5.0702,-5.0702,-5.0702,-5.0702,0.0,0.0,0.0,0.0,-5.0702,-5.0702,-5.0702,-5.0702,-5.0702,-5.0221,-4.9503,-4.9489,-4.8989,-4.8306,0.0,0.0,0.0,0.0,0.0,0.0,0.0,0.0,0.0,0.0,0.0,0.0,0.0,0.0,0.0,0.0,0.0,0.0,0.0,0.0,0.0,0.0,0.0,-4.4587,-4.4587,-4.4587,-4.4587,-4.4587,-4.4799,-4.4854,-4.4906,-4.6003,-4.6726,-4.7186,-4.7864,-4.821,0.0,0.0,-4.8306,0.0,-4.8306,0.0,0.0,0.0,0.0,0.0,0.0,0.0,0.0,-4.8306,-4.8229,-4.8172,-4.8267,0.0,0.0,0.0,0.0,0.0,-4.8306,-4.821,-4.8172,-4.8267,-4.8306,-4.8402,-4.8709,-4.8813,-4.8897,-4.9234,-4.9326,-4.9326,-4.9326,-4.9326,-4.9326,0.0,0.0,0.0,0.0,0.0,0.0,0.0,0.0,0.0,0.0,0.0,0.0,0.0,0.0,0.0,0.0,0.0,0.0,-5.0604,-5.0663,-5.0702,-5.0702,-5.0702,-5.0702,-5.0702,-5.0702,-5.0702,-5.0702,-5.0702,-5.0702,0.0,0.0,0.0,-5.0702,-5.0702,-5.0702,-5.0702,-5.0702,-5.026,-4.958,-4.9508,-4.9026,-4.8379,0.0,0.0,0.0,0.0,0.0,0.0,0.0,0.0,0.0,0.0,0.0,0.0,0.0,0.0,0.0,0.0,0.0,0.0,0.0,0.0,0.0,-4.4587,-4.4587,-4.4587,-4.4587,-4.4587,-4.4587,-4.4587,-4.5612,-4.61,-4.6152,-4.6694,-4.7124,-4.7349,-4.747,-4.7797,-4.8306,-4.8306,-4.8306,-4.8306,-4.8306,0.0,0.0,0.0,0.0,0.0,0.0,0.0,0.0,-4.8306,-4.7977,-4.7614,-4.8132,0.0,0.0,0.0,0.0,0.0,-4.8306,-4.7937,-4.7656,-4.8172,-4.8306,-4.8306,-4.8402,-4.8383,-4.8421,-4.8495,-4.8477,-4.8477,-4.8477,-4.8477,-4.8477,0.0,0.0,0.0,0.0,0.0,0.0,0.0,0.0,0.0,0.0,0.0,0.0,0.0,0.0,0.0,0.0,0.0,0.0,-5.0183,-5.0504,-5.0702,-5.0702,-5.0702,-5.0702,-5.0702,-5.0702,-5.0702,-5.0702,-5.0702,-5.0702,0.0,0.0,-5.0702,-5.0702,-5.0702,-5.0702,-5.0702,-5.0702,-5.0414,-4.9965,-4.9635,-4.9229,-4.8748,0.0,0.0,0.0,0.0,0.0,0.0,0.0,0.0,0.0,0.0,0.0,0.0,0.0,0.0,0.0,0.0,0.0,0.0,0.0,0.0,0.0,-4.4587,-4.4587,-4.4587,-4.4587,-4.4587,-4.4587,-4.4587,-4.5183,-4.5432,-4.5414,-4.5977,-4.6655,-4.7385,-4.7385,-4.7756,-4.8306,-4.8306,-4.8306,-4.8306,0.0,0.0,0.0,0.0,0.0,0.0,0.0,0.0,0.0,0.0,-4.7554,-4.7897,-4.7838,0.0,0.0,0.0,0.0,0.0,-4.821,-4.8075,-4.7937,-4.821,-4.8075,-4.7897,-4.8229,-4.8306,-4.8306,-4.8306,-4.8306,-4.8306,-4.8306,-4.8306,-4.8306,-4.8306,0.0,0.0,0.0,0.0,0.0,0.0,0.0,0.0,0.0,0.0,0.0,0.0,0.0,0.0,0.0,0.0,0.0,0.0,-5.0283,-5.0478,-5.0702,-5.0702,-5.0702,-5.0702,-5.0702,-5.0702,-5.0702,-5.0702,-5.0702,-5.0702,0.0,-5.0702,-5.0702,-5.0702,-5.0702,-5.0702,-5.0702,-5.0452,-5.0023,-4.9396,-4.8934,-4.8565,0.0,0.0,0.0,0.0,0.0,0.0,0.0,0.0,0.0,0.0,0.0,0.0,0.0,0.0,0.0,0.0,0.0,0.0,0.0,0.0,-4.4587,-4.4587,-4.4587,-4.4587,-4.4587,-4.4587,-4.4587,-4.4587,-4.481,-4.494,-4.5052,-4.5494,-4.6257,-4.715,-4.715,-4.7512,-4.8075,-4.8075,-4.8075,-4.8075,0.0,0.0,0.0,0.0,0.0,0.0,0.0,0.0,0.0,0.0,0.0,0.0,0.0,0.0,0.0,-4.7897,-4.7756,-4.753,-4.8132,-4.8075,-4.7937,-4.821,-4.7937,-4.7756,-4.821,-4.8306,-4.8306,-4.8306,-4.8306,-4.8306,-4.8306,-4.8306,0.0,-4.8306,0.0,0.0,0.0,0.0,0.0,0.0,0.0,0.0,0.0,0.0,0.0,0.0,0.0,0.0,0.0,0.0,0.0,0.0,-4.9999,-5.0233,-5.0567,-5.0644,-5.0702,-5.0702,-5.0702,-5.0702,-5.0702,-5.0702,-5.0702,-5.0702,-5.0702,-5.0702,-5.0702,-5.0702,-5.0702,-5.0702,-5.0702,-5.0394,-4.9888,-4.9284,-4.873,-4.8306,0.0,0.0,0.0,0.0,0.0,0.0,0.0,0.0,0.0,0.0,0.0,0.0,0.0,0.0,0.0,0.0,0.0,0.0,0.0,0.0,-4.4587,-4.4587,-4.4587,-4.4587,-4.4587,-4.4587,-4.4587,-4.4587,-4.5333,-4.5871,-4.6288,-4.6336,-4.6383,-4.6478,-4.6478,-4.6847,-4.747,-4.747,-4.747,-4.747,-4.747,0.0,0.0,0.0,0.0,0.0,0.0,0.0,0.0,0.0,0.0,0.0,0.0,0.0,-4.6618,-4.7281,-4.7428,-4.753,-4.8132,-4.7452,-4.6801,-4.8017,-4.8267,-4.8267,-4.8306,-4.8306,-4.8306,-4.8306,-4.8306,-4.8306,-4.8306,-4.8306,-4.8306,-4.8306,0.0,0.0,0.0,0.0,0.0,0.0,0.0,0.0,0.0,0.0,0.0,0.0,0.0,0.0,0.0,0.0,0.0,0.0,0.0,-5.0105,-5.0125,-5.051,-5.0702,-5.0702,-5.0702,-5.0702,-5.0702,-5.0702,-5.0702,-5.0702,-5.0702,-5.0702,-5.0702,-5.0702,-5.0702,-5.0702,-5.0702,-5.024,-4.9541,-4.9471,-4.897,-4.8306,0.0,0.0,0.0,0.0,0.0,0.0,0.0,0.0,0.0,0.0,0.0,0.0,0.0,0.0,0.0,0.0,0.0,0.0,0.0,-4.4587,-4.4587,-4.4587,-4.4587,-4.4587,-4.4587,-4.4587,-4.4587,-4.4587,-4.492,-4.5157,-4.5267,-4.5267,-4.5459,-4.5883,-4.624,-4.6524,-4.6819,-4.7237,-4.715,-4.6774,-4.6774,-4.6383,0.0,0.0,0.0,0.0,0.0,0.0,0.0,0.0,-4.5783,-4.6336,-4.5965,-4.5815,-4.5965,-4.6571,-4.6524,-4.6353,-4.6937,-4.6756,-4.6524,-4.6999,-4.7132,-4.7219,-4.7656,-4.7756,-4.7614,-4.7219,-4.747,-4.7838,-4.821,0.0,-4.8306,0.0,0.0,0.0,0.0,0.0,0.0,0.0,0.0,0.0,0.0,0.0,0.0,0.0,0.0,0.0,0.0,0.0,0.0,0.0,0.0,-4.9578,-5.0106,-5.026,-5.0452,-5.0702,-5.0702,-5.0702,-5.0702,-5.0702,-5.0702,-5.0702,-5.0702,-5.0702,-5.0702,-5.0702,-5.0702,-5.0702,-5.0702,-5.0221,-4.9503,-4.9489,-4.8989,-4.8306,0.0,0.0,0.0,0.0,0.0,0.0,0.0,0.0,0.0,0.0,0.0,0.0,0.0,0.0,0.0,0.0,0.0,0.0,-4.4587,-4.4587,-4.4587,-4.4587,-4.4587,-4.4587,-4.4587,-4.4587,-4.4587,-4.4587,-4.4587,-4.4587,-4.457,-4.4814,-4.4998,-4.5232,-4.5833,-4.6112,-4.6161,-4.6635,-4.6542,-4.6112,-4.6112,-4.5732,0.0,0.0,0.0,0.0,0.0,0.0,0.0,0.0,-4.5284,-4.6014,-4.5425,-4.5372,-4.5597,-4.6014,-4.5815,-4.5648,-4.624,-4.624,-4.6143,-4.6336,-4.624,-4.6257,-4.6682,-4.6955,-4.6955,-4.6478,-4.6955,-4.753,-4.7937,-4.8172,0.0,0.0,0.0,0.0,0.0,0.0,0.0,0.0,0.0,0.0,0.0,0.0,0.0,0.0,0.0,0.0,0.0,0.0,0.0,0.0,0.0,0.0,-4.9714,-4.9961,-5.024,-5.051,-5.0644,-5.0702,-5.0702,-5.0702,-5.0702,-5.0702,-5.0702,-5.0702,-5.0702,-5.0702,-5.0702,-5.0702,-5.0702,-5.0221,-4.9503,-4.9489,-4.8989,-4.8306,0.0,0.0,0.0,0.0,0.0,0.0,0.0,0.0,0.0,0.0,0.0,0.0,0.0,0.0,0.0,0.0,0.0,0.0,-4.4587,-4.4587,-4.4587,-4.4587,-4.4587,-4.4587,-4.4587,-4.4587,-4.4587,-4.4587,-4.4587,-4.4587,-4.4626,-4.5232,-4.5178,-4.4626,-4.5232,-4.5511,-4.5511,-4.5511,-4.5511,-4.5511,-4.5511,-4.5125,-4.4587,0.0,0.0,0.0,0.0,0.0,0.0,0.0,-4.4998,-4.5372,-4.4759,-4.4998,-4.5511,-4.5511,-4.5511,-4.5648,-4.624,-4.5965,-4.5648,-4.624,-4.5915,-4.5511,-4.5511,-4.5965,-4.6383,-4.6383,-4.691,-4.7385,-4.7385,-4.7879,0.0,0.0,0.0,0.0,0.0,0.0,0.0,0.0,0.0,0.0,0.0,0.0,0.0,0.0,0.0,0.0,0.0,0.0,0.0,0.0,0.0,0.0,-4.8915,-4.9708,-5.0086,-5.0086,-5.0491,-5.0702,-5.0702,-5.0702,-5.0702,-5.0702,-5.0702,-5.0702,-5.0702,-5.0702,-5.0702,-5.0702,-5.0702,-5.0221,-4.9503,-4.9489,-4.8989,-4.8324,0.0,0.0,0.0,0.0,0.0,0.0,0.0,0.0,0.0,0.0,0.0,0.0,0.0,0.0,0.0,0.0,0.0,0.0,-4.4587,-4.4587,-4.4587,-4.4587,-4.4587,-4.4587,-4.4587,-4.4587,-4.4587,-4.4587,-4.4587,-4.4587,-4.457,-4.4759,-4.4759,-4.4626,-4.5232,-4.5267,-4.4906,-4.532,-4.5284,-4.4869,-4.4869,-4.4776,-4.4587,0.0,0.0,0.0,0.0,0.0,0.0,0.0,0.0,0.0,-4.4682,-4.472,-4.4869,-4.4869,-4.4869,-4.4906,-4.5089,-4.4998,-4.4906,-4.5089,-4.4998,-4.4869,-4.4869,-4.532,-4.5783,-4.5783,-4.5933,-4.6209,-4.6618,-4.7237,0.0,0.0,0.0,0.0,0.0,0.0,0.0,0.0,0.0,0.0,0.0,0.0,0.0,0.0,0.0,0.0,0.0,0.0,0.0,0.0,0.0,0.0,-4.8915,-4.9148,-4.9552,-5.0086,-5.0221,-5.0433,-5.0702,-5.0702,-5.0702,-5.0702,-5.0702,-5.0702,-5.0702,-5.0702,-5.0702,-5.0702,-5.0702,-5.0375,-4.9888,-4.9616,-4.9154,-4.8675,0.0,0.0,0.0,0.0,0.0,0.0,0.0,0.0,0.0,0.0,-4.2707,-4.3348,0.0,0.0,0.0,0.0,0.0,0.0,0.0,-4.3545,-4.3545,-4.3545,-4.3545,-4.3739,-4.408,-4.444,-4.4587,-4.4587,-4.4587,-4.4587,-4.4587,-4.4587,-4.4587,-4.4626,-4.4998,-4.4961,-4.4626,-4.4998,-4.4961,-4.4587,-4.4587,-4.4587,-4.4587,0.0,0.0,0.0,0.0,0.0,0.0,0.0,0.0,0.0,-4.4587,-4.4587,-4.4587,-4.4587,-4.4587,-4.4587,-4.4587,-4.4587,-4.4587,-4.4587,-4.4587,-4.4587,-4.4587,-4.4852,-4.5125,-4.5125,-4.532,-4.5597,-4.5965,-4.6571,0.0,0.0,0.0,0.0,0.0,0.0,0.0,0.0,0.0,0.0,0.0,0.0,0.0,0.0,0.0,0.0,0.0,0.0,0.0,0.0,0.0,0.0,-4.8656,-4.8803,-4.9203,-4.9868,-5.0013,-5.0317,-5.0702,-5.0702,-5.0702,-5.0702,-5.0702,-5.0702,-5.0702,-5.0702,-5.0702,-5.0702,-5.0702,-5.0356,-4.9834,-4.9599,-4.9142,-4.8638,0.0,0.0,0.0,0.0,0.0,0.0,0.0,0.0,0.0,0.0,-4.1412,-4.1991,0.0,0.0,0.0,0.0,0.0,0.0,0.0,0.0,-4.1997,-4.1997,-4.2062,-4.252,-4.3366,-4.4196,-4.4587,-4.4587,-4.4587,-4.4587,-4.4587,-4.4587,-4.4587,-4.4587,-4.4587,-4.4587,-4.4587,-4.4587,-4.4587,-4.4587,-4.4587,-4.4587,-4.4587,-4.4587,0.0,0.0,0.0,0.0,0.0,0.0,0.0,0.0,-4.4587,-4.4587,-4.4587,-4.4587,-4.4587,-4.4587,-4.4587,-4.4587,-4.4587,-4.4587,-4.4587,-4.4587,-4.4587,-4.4587,-4.4587,-4.4587,0.0,-4.5407,-4.5407,0.0,0.0,0.0,0.0,0.0,0.0,0.0,0.0,0.0,0.0,0.0,0.0,0.0,0.0,0.0,0.0,0.0,0.0,0.0,0.0,0.0,0.0,0.0,-4.8306,-4.8656,-4.9044,0.0,-4.9848,-5.026,-5.0644,-5.0683,-5.0702,-5.0702,-5.0702,-5.0702,-5.0702,-5.0702,-5.0702,-5.0702,-5.0702,-5.024,-4.9548,-4.9505,-4.9023,-4.8343,0.0,0.0,0.0,0.0,0.0,0.0,0.0,0.0,0.0,0.0,0.0,0.0,0.0,0.0,0.0,0.0,0.0,0.0,0.0,0.0,-4.1997,-4.1997,-4.2645,-4.3426,-4.4327,-4.4514,-4.4587,-4.4587,-4.4587,-4.4587,-4.4587,-4.4587,-4.4587,-4.4587,-4.4587,-4.4587,-4.4587,-4.4587,-4.4587,-4.4587,-4.4587,-4.4587,-4.4587,-4.4587,-4.4587,0.0,0.0,0.0,0.0,0.0,0.0,0.0,-4.4587,-4.4587,-4.4587,-4.4587,-4.4587,-4.4587,-4.4587,-4.4587,-4.4587,-4.4587,-4.4587,-4.4587,-4.4587,-4.4587,-4.4587,-4.4587,-4.472,-4.4814,-4.4814,0.0,0.0,0.0,0.0,0.0,0.0,0.0,0.0,0.0,0.0,0.0,0.0,0.0,0.0,0.0,0.0,0.0,0.0,0.0,0.0,0.0,0.0,-4.8306,-4.8306,-4.8379,-4.8638,0.0,-4.9448,-4.9836,-5.024,-5.0548,-5.0702,-5.0702,-5.0702,-5.0702,-5.0702,-5.0702,-5.0702,-5.0702,-5.0702,-5.0394,-4.9928,-4.9626,-4.9177,-4.873,0.0,0.0,0.0,0.0,0.0,0.0,0.0,0.0,0.0,0.0,0.0,0.0,0.0,0.0,0.0,0.0,0.0,0.0,0.0,0.0,-4.0774,-4.0774,-4.1609,-4.2252,-4.2691,-4.3545,-4.4006,-4.4006,-4.4384,-4.4587,-4.4587,-4.4587,-4.4587,-4.4587,-4.4587,-4.4587,-4.4587,-4.4587,-4.4587,-4.4587,-4.4587,-4.4587,-4.4587,-4.4587,-4.4587,-4.4587,-4.4587,0.0,0.0,0.0,0.0,0.0,0.0,0.0,-4.4587,-4.4587,-4.4587,-4.4587,-4.4587,-4.4587,-4.4587,-4.4587,-4.4587,-4.4587,-4.4587,-4.4587,-4.4587,-4.4587,-4.4587,-4.4587,0.0,0.0,0.0,0.0,0.0,0.0,0.0,0.0,0.0,0.0,0.0,0.0,0.0,0.0,0.0,0.0,0.0,0.0,0.0,0.0,0.0,0.0,-4.8172,-4.8306,-4.8306,-4.8306,-4.8489,-4.8897,-4.9102,-4.9531,-5.0106,-5.051,-5.0702,-5.0702,-5.0702,-5.0702,-5.0702,-5.0702,-5.0702,-5.0702,-5.0702,-5.0452,-5.0042,-4.9653,-4.9266,-4.8822,0.0,0.0,0.0,0.0,0.0,0.0,0.0,0.0,0.0,0.0,0.0,0.0,0.0,0.0,0.0,0.0,0.0,0.0,0.0,0.0,0.0,-3.961,-4.0309,-4.0743,-4.0946,-4.2332,-4.3047,-4.3047,-4.3814,-4.4253,-4.4384,-4.4514,-4.4587,-4.4587,-4.4587,-4.4587,-4.4587,-4.4587,-4.4587,-4.4587,-4.4587,-4.4587,-4.4587,-4.4587,-4.4587,-4.4587,-4.4587,-4.4587,-4.4587,-4.4587,0.0,0.0,0.0,0.0,-4.4587,-4.4587,-4.4587,-4.4587,-4.4587,-4.4587,-4.4587,-4.4587,-4.4587,-4.4587,-4.4587,-4.4587,-4.4587,-4.4587,-4.4587,0.0,0.0,0.0,0.0,0.0,0.0,0.0,0.0,0.0,0.0,0.0,0.0,0.0,0.0,0.0,0.0,0.0,0.0,0.0,0.0,0.0,-4.7281,-4.7385,-4.7995,-4.8306,-4.8306,-4.8306,-4.8453,-4.8785,-4.8879,-4.9291,-5.0004,-5.0411,-5.0625,-5.0702,-5.0702,-5.0702,-5.0702,-5.0702,-5.0702,-5.0702,-5.0702,-5.0414,-4.9967,-4.9609,-4.9214,-4.8748,0.0,0.0,0.0,0.0,0.0,0.0,0.0,0.0,0.0,0.0,-3.9424,0.0,0.0,0.0,0.0,0.0,0.0,0.0,-3.9424,0.0,0.0,-4.05,-4.0622,-4.108,-4.1804,-4.2062,-4.2189,-4.2189,-4.2316,-4.2707,-4.3502,-4.4253,-4.4587,-4.4587,-4.4587,-4.4587,-4.4587,-4.4587,-4.4587,-4.4587,-4.4587,-4.4587,-4.4587,-4.4587,-4.4587,-4.4587,-4.4587,-4.4587,-4.4587,-4.4587,-4.4587,0.0,0.0,0.0,-4.4587,-4.4587,-4.4587,-4.4587,-4.4587,-4.4587,-4.4587,-4.4587,-4.4587,-4.4587,-4.4587,-4.4587,-4.4587,0.0,0.0,0.0,0.0,0.0,0.0,0.0,0.0,0.0,0.0,0.0,0.0,0.0,0.0,0.0,0.0,0.0,0.0,0.0,0.0,0.0,0.0,-4.646,-4.6801,-4.7385,-4.7995,-4.8306,-4.8306,-4.8306,-4.8324,-4.8379,-4.873,-4.914,-4.9598,-4.9992,-5.0375,-5.0702,-5.0702,-5.0702,-5.0702,-5.0702,-5.0702,-5.0702,-5.0702,-5.024,-4.9567,-4.952,-4.9022,-4.8361,0.0,0.0,0.0,0.0,0.0,0.0,0.0,0.0,0.0,0.0,0.0,-3.9424,0.0,0.0,0.0,-3.9424,-3.9424,-3.9424,-3.9424,-3.9424,-3.9538,-3.992,-3.999,-4.0115,-4.0516,-4.1013,-4.128,-4.128,-4.1739,-4.2189,-4.2583,-4.3486,-4.4121,-4.4587,-4.4587,-4.4587,-4.4587,-4.4587,-4.4587,-4.4587,-4.4587,-4.4587,-4.4587,-4.4587,-4.4587,-4.4587,-4.4587,-4.4587,-4.4587,-4.4587,-4.4587,-4.4587,-4.4587,0.0,0.0,0.0,-4.4587,-4.4587,-4.4587,-4.4587,-4.4587,-4.4587,-4.4587,-4.4587,-4.4587,-4.4587,-4.4587,0.0,0.0,0.0,0.0,0.0,0.0,0.0,0.0,0.0,0.0,0.0,0.0,0.0,0.0,0.0,0.0,0.0,0.0,0.0,0.0,0.0,-4.5372,-4.6014,-4.6524,-4.6819,-4.7797,-4.8306,-4.8306,-4.8306,-4.8306,-4.8306,-4.8471,-4.8767,-4.9156,-4.9342,-4.9777,-5.0375,-5.0587,-5.0702,-5.0702,-5.0702,-5.0702,-5.0683,-5.0452,-5.0144,-4.9776,-4.9332,-4.8934,-4.8601,0.0,0.0,0.0,0.0,0.0,0.0,0.0,0.0,0.0,0.0,0.0,0.0,0.0,0.0,0.0,0.0,-3.9265,-3.9424,-3.9424,-3.9424,-3.9424,-3.9424,-3.9424,-3.9424,-3.9424,-4.006,-4.0363,-4.0363,-4.1028,-4.1478,-4.1674,-4.2316,-4.3092,-4.3989,-4.4384,-4.4587,-4.4587,-4.4587,-4.4587,-4.457,-4.4384,-4.4253,-4.4253,-4.3989,-4.3931,-4.3989,-4.4196,-4.4253,-4.431,-4.4514,-4.4587,-4.4587,-4.4587,-4.4587,0.0,0.0,0.0,-4.4587,-4.4587,-4.4587,-4.4587,-4.4587,-4.4587,-4.4587,0.0,0.0,-4.4587,0.0,0.0,0.0,0.0,0.0,0.0,0.0,0.0,0.0,0.0,0.0,0.0,0.0,0.0,0.0,0.0,0.0,0.0,0.0,0.0,0.0,-4.4587,-4.5597,-4.624,-4.6383,-4.7324,-4.7977,-4.8306,-4.8306,-4.8306,-4.8306,-4.8306,-4.8453,-4.8748,-4.8822,-4.9206,-4.9825,-5.0331,-5.0548,-5.0548,-5.0664,-5.0702,-5.0664,-5.026,-5.0038,-4.9854,-4.9169,-4.8822,-4.8693,0.0,0.0,0.0,0.0,0.0,0.0,0.0,0.0,0.0,0.0,0.0,0.0,-3.7849,-3.8811,-3.9017,-3.7994,-3.8782,-3.9424,-3.9424,-3.9424,-3.9424,-3.9424,-3.9424,0.0,-3.9424,-3.9409,-3.9481,-3.9481,-3.9481,-3.992,-4.0743,-4.0811,-4.128,-4.2189,-4.3856,-4.4587,-4.4587,-4.4587,-4.4587,-4.4514,-4.3697,-4.3366,-4.3306,-4.2458,-4.2125,-4.2252,-4.3047,-4.3366,-4.3502,-4.4327,-4.4587,-4.4587,-4.4587,-4.4587,-4.4587,0.0,0.0,0.0,-4.4587,-4.4587,-4.4587,-4.4587,-4.4587,-4.4587,0.0,0.0,0.0,0.0,0.0,0.0,0.0,0.0,0.0,0.0,0.0,0.0,0.0,0.0,0.0,0.0,0.0,0.0,0.0,0.0,0.0,0.0,0.0,0.0,-4.4587,-4.5178,-4.5833,-4.6383,-4.646,-4.7088,-4.8306,-4.8306,-4.8306,-4.8306,-4.8306,-4.8324,-4.8343,-4.873,-4.8917,-4.8993,-4.9796,-5.0125,-5.0164,-5.0529,-5.0702,-5.0664,-5.026,-4.9868,-4.9491,-4.9064,-4.8656,-4.8324,0.0,0.0,0.0,0.0,0.0,0.0,0.0,0.0,0.0,0.0,0.0,0.0,0.0,-3.7113,-3.7496,-3.7753,-3.8782,-3.9424,-3.9424,-3.9424,-3.9424,-3.9424,-3.9424,-3.9424,-3.9424,-3.9424,-3.9424,-3.9424,-3.9424,-3.9538,-3.9864,-4.0432,-4.0878,-4.1213,-4.2379,-4.2953,-4.2953,-4.3545,-4.3426,-4.2953,-4.3169,-4.297,-4.2458,-4.2125,-4.1997,-4.2062,-4.2316,-4.2847,-4.3366,-4.368,-4.4138,-4.4587,-4.4587,-4.4587,-4.4587,-4.4587,-4.4587,-4.4587,-4.4587,-4.4587,-4.4587,-4.4587,-4.4587,-4.4587,-4.4587,-4.4587,0.0,0.0,0.0,0.0,0.0,0.0,0.0,0.0,0.0,0.0,0.0,0.0,0.0,0.0,0.0,0.0,0.0,0.0,0.0,0.0,0.0,0.0,-4.4587,-4.5178,-4.5597,-4.5833,-4.6192,-4.6801,-4.7697,-4.8132,-4.8306,-4.8306,-4.8306,-4.8306,-4.8306,-4.8434,-4.8489,-4.8566,-4.9098,-4.9614,-5.0106,-5.026,-5.0317,-5.0279,-4.9875,-4.9473,-4.9062,-4.8656,-4.8416,-4.8306,0.0,0.0,0.0,0.0,0.0,0.0,0.0,0.0,0.0,-3.5587,0.0,0.0,0.0,0.0,-3.6526,-3.7175,-3.789,-3.8457,-3.8855,-3.887,-3.9017,-3.9352,-3.9424,-3.9424,-3.9424,-3.9424,-3.9424,-3.9424,-3.9424,-3.9424,-3.9409,-3.999,-4.0239,-4.0309,-4.0894,-4.1478,-4.2062,-4.2645,-4.252,-4.1997,-4.2316,-4.2062,-4.1543,-4.1229,-4.1162,-4.1162,-4.1478,-4.1933,-4.2458,-4.2785,-4.3229,-4.3798,-4.4064,-4.4384,-4.4587,-4.4587,-4.4587,-4.4587,-4.4587,-4.4587,-4.4587,-4.4587,-4.4587,-4.4587,-4.4587,0.0,0.0,0.0,0.0,0.0,0.0,0.0,0.0,0.0,0.0,0.0,0.0,0.0,0.0,0.0,0.0,0.0,0.0,0.0,0.0,0.0,0.0,0.0,-4.4587,-4.4998,-4.5178,-4.5178,-4.5965,-4.6618,-4.7044,-4.7697,-4.8075,-4.8306,-4.8306,-4.8306,-4.8306,-4.8306,-4.8306,-4.8324,-4.8583,-4.9098,-4.9695,-4.9848,-4.9894,-4.9855,-4.9458,-4.914,-4.8822,-4.8434,-4.8306,-4.8306,0.0,0.0,0.0,0.0,0.0,0.0,0.0,0.0,-3.3471,-3.4511,0.0,0.0,0.0,0.0,0.0,-3.6132,-3.6198,-3.6604,-3.7663,-3.7753,-3.8234,-3.9337,-3.9337,-3.9337,-3.9424,-3.9424,-3.9424,-3.9424,-3.9424,-3.9424,-3.9424,-3.9424,-3.9424,-3.9424,-3.9424,-4.0324,-4.1933,-4.1933,-4.1933,-4.1869,-4.1013,-4.0675,-4.0554,-3.9737,-3.9424,0.0,-4.0378,-4.069,0.0,-4.1674,0.0,0.0,-4.297,-4.3873,-4.457,-4.457,-4.457,-4.4587,0.0,0.0,0.0,-4.4587,0.0,0.0,-4.4587,0.0,0.0,0.0,0.0,0.0,0.0,0.0,0.0,0.0,0.0,0.0,0.0,0.0,0.0,0.0,0.0,0.0,0.0,0.0,0.0,0.0,0.0,-4.4587,-4.4587,-4.4587,-4.4587,-4.4587,-4.5732,-4.6383,-4.6383,-4.7044,-4.7715,-4.8306,-4.8306,-4.8306,-4.8306,-4.8306,-4.8306,-4.8306,-4.8306,-4.8508,-4.89,-4.9321,-4.947,-4.9444,-4.9061,-4.8897,-4.8822,-4.8434,-4.8306,-4.8306,0.0,0.0,0.0,0.0,0.0,-3.3081,-3.3081,-3.3081,-3.324,0.0,0.0,0.0,-3.3556,-3.4498,-3.5129,-3.5129,-3.5734,-3.6369,-3.6604,-3.6604,-3.7098,-3.8234,-3.8234,-3.862,-3.9352,-3.9424,-3.9424,-3.9424,-3.9424,-3.9424,-3.9424,-3.9424,-3.9424,-3.9424,-3.9424,-3.9681,-4.013,-4.0758,-4.0706,-4.013,-4.0569,-4.0309,0.0,0.0,0.0,0.0,0.0,-4.017,-4.0758,0.0,-4.1478,-4.2062,-4.2252,-4.297,-4.368,-4.368,-4.4138,-4.4587,-4.4587,0.0,0.0,0.0,0.0,0.0,0.0,0.0,0.0,0.0,0.0,0.0,0.0,0.0,0.0,0.0,0.0,0.0,0.0,0.0,0.0,0.0,0.0,0.0,0.0,0.0,0.0,0.0,-4.4587,-4.4587,-4.4587,-4.4587,-4.4587,-4.4587,-4.5372,-4.5965,-4.6383,-4.7044,-4.7715,-4.8306,-4.8306,-4.8306,-4.8306,-4.8306,-4.8306,-4.8306,-4.8306,-4.8361,-4.8511,-4.889,-4.9057,-4.9042,-4.8938,-4.8712,-4.8434,-4.8343,-4.8306,-4.8306,0.0,0.0,0.0,0.0,0.0,-3.3081,-3.3081,-3.3081,-3.3081,0.0,0.0,0.0,-3.3081,-3.3628,-3.4037,-3.4037,-3.4568,-3.5116,-3.5507,-3.5588,-3.6067,-3.7098,-3.7098,-3.7663,-3.8708,-3.8708,-3.8943,-3.9424,-3.9424,-3.9424,-3.9424,-3.9424,-3.9424,-3.9424,-3.9424,-3.9424,-3.9409,-3.992,0.0,0.0,-3.992,0.0,0.0,-3.9424,-3.9424,0.0,0.0,0.0,-4.0185,-4.0185,-4.0758,0.0,0.0,-4.2062,-4.2847,-4.3169,-4.368,-4.4138,-4.4514,-4.4587,-4.4587,-4.4587,0.0,0.0,-4.4587,-4.4587,0.0,0.0,0.0,0.0,0.0,0.0,0.0,0.0,0.0,0.0,0.0,0.0,0.0,0.0,0.0,0.0,0.0,0.0,0.0,0.0,-4.4587,-4.4587,-4.4587,-4.4587,-4.4587,-4.4587,-4.5178,-4.5783,-4.6365,-4.7044,-4.7715,-4.8306,-4.8306,-4.8306,-4.8306,-4.8306,-4.8306,-4.8306,-4.8306,-4.8306,-4.8324,-4.8565,-4.8656,-4.8656,-4.8656,-4.8489,-4.8306,-4.8306,-4.8306,-4.8306,0.0,0.0,-3.3081,-3.3081,-3.3081,-3.3081,-3.3081,-3.3081,-3.3081,0.0,-3.3081,-3.3081,-3.3081,-3.3081,-3.3081,-3.3081,-3.3081,-3.3471,-3.4428,-3.4511,-3.4966,-3.5974,-3.6053,-3.6618,-3.7753,-3.7829,-3.8308,-3.9424,-3.9424,-3.9424,-3.9424,-3.9424,-3.9424,-3.9424,-3.9424,0.0,-3.9424,0.0,0.0,-3.9424,-3.9424,-3.9424,0.0,0.0,-3.9424,-3.9424,-3.9424,-3.9424,-3.9424,-3.9424,-3.992,0.0,0.0,0.0,0.0,-4.2785,-4.3169,-4.3502,-4.4253,-4.4514,-4.4587,-4.4587,0.0,0.0,-4.4587,-4.4587,0.0,0.0,0.0,0.0,0.0,0.0,0.0,0.0,0.0,0.0,0.0,0.0,0.0,0.0,0.0,0.0,0.0,0.0,-4.4587,-4.4587,-4.4587,-4.4587,-4.4587,-4.4587,-4.4587,-4.4587,-4.5178,-4.5783,-4.6365,-4.7044,-4.7715,-4.8306,-4.8306,-4.8306,-4.8306,-4.8306,-4.8306,-4.8306,-4.8306,-4.8306,-4.8306,-4.8306,-4.8306,-4.8306,-4.8306,-4.8306,-4.8306,-4.8306,-4.8306,-4.8306,-3.3081,-3.3081,-3.3081,-3.3081,-3.3081,-3.3081,-3.3081,-3.3081,-3.3081,-3.3081,-3.3081,-3.3081,-3.3081,-3.3081,-3.3081,-3.3081,-3.3081,-3.3154,-3.3398,-3.3398,-3.3869,-3.4979,-3.4979,-3.5842,-3.7753,-3.7829,-3.8308,-3.9424,-3.9424,-3.9424,-3.9424,-3.9424,-3.9424,-3.9424,-3.9424,-3.9424,-3.9424,0.0,0.0,-3.9424,-3.9424,0.0,-3.9424,-3.9424,-3.9424,-3.9424,-3.9424,-3.9424,-3.9424,-3.9424,-3.9538,-3.9666,0.0,0.0,0.0,-4.1147,0.0,-4.3306,-4.3502,-4.4064,-4.4587,0.0,0.0,0.0,-4.4587,-4.4587,-4.4587,0.0,0.0,0.0,0.0,0.0,0.0,0.0,0.0,0.0,0.0,0.0,0.0,0.0,0.0,0.0,0.0,0.0,-4.4587,-4.4587,-4.4587,-4.4587,-4.4587,-4.4587,-4.4587,-4.4587,-4.5178,-4.5783,-4.6365,-4.7044,-4.7715,-4.8306,-4.8306,-4.8306,-4.8306,-4.8306,-4.8306,-4.8306,-4.8306,-4.8306,-4.8306,-4.8306,-4.8306,-4.8306,-4.8306,-4.8306,-4.8306,-4.8306,-4.8306,-4.8306,-3.3081,-3.3081,-3.3081,-3.3081,-3.3081,-3.3081,-3.3081,-3.3081,-3.3081,-3.3081,-3.3081,-3.3081,-3.3081,-3.3081,-3.3081,-3.3081,-3.3081,-3.3081,-3.3081,-3.3081,-3.3313,-3.3869,-3.3869,-3.4664,-3.6253,-3.6253,-3.6788,-3.78,-3.8368,-3.862,-3.862,-3.9177,-3.9424,-3.9424,-3.9424,-3.9424,-3.9424,0.0,-3.9424,-3.9424,-3.9424,0.0,-3.9424,-3.9424,-3.9424,-3.9424,-3.9424,-3.9424,-3.9424,-3.9424,-3.9424,0.0,0.0,-3.9666,-4.0115,0.0,-4.1609,-4.2724,0.0,0.0,0.0,-4.4587,0.0,0.0,0.0,-4.4587,-4.4587,0.0,0.0,0.0,0.0,0.0,0.0,0.0,0.0,0.0,0.0,0.0,0.0,0.0,0.0,0.0,0.0,0.0,-4.4587,-4.4587,-4.4587,-4.4587,-4.4587,-4.4587,-4.4587,-4.4587,-4.5178,-4.5783,-4.6365,-4.7044,-4.7715,-4.8306,-4.8306,-4.8306,-4.8306,-4.8306,-4.8306,-4.8306,-4.8306,-4.8306,-4.8306,-4.8306,-4.8306,-4.8306,-4.8306,-4.8306,-4.8306,-4.8306,-4.8306,-4.8306,-3.3106,-3.3081,-3.3081,-3.3081,-3.3081,-3.3081,-3.3081,-3.3081,-3.3081,-3.3081,-3.3081,-3.3081,-3.3081,-3.3081,-3.3081,-3.3081,-3.3081,-3.3081,-3.3081,-3.3081,-3.3081,-3.3081,-3.3081,-3.3641,-3.4664,-3.4664,-3.5197,-3.6198,-3.7098,-3.7587,-3.7829,-3.8708,-3.9177,-3.9424,-3.9424,-3.9424,-3.9424,0.0,0.0,-3.9424,0.0,-3.9424,-3.9424,-3.9424,-3.9424,-3.9424,-3.9424,-3.9424,-3.9424,-3.9424,-3.9424,-3.9424,-3.9424,-3.9424,0.0,0.0,0.0,0.0,0.0,0.0,0.0,0.0,0.0,-4.4587,0.0,0.0,0.0,0.0,0.0,0.0,0.0,0.0,0.0,0.0,0.0,0.0,0.0,0.0,0.0,0.0,0.0,0.0,0.0,0.0,-4.4587,-4.4587,-4.4587,-4.4587,-4.4587,-4.4587,-4.4587,-4.4587,-4.5178,-4.5783,-4.6365,-4.7044,-4.7715,-4.8306,-4.8306,-4.8306,-4.8306,-4.8306,-4.8306,-4.8306,-4.8306,-4.8306,-4.8306,-4.8306,-4.8306,-4.8306,-4.8306,-4.8306,-4.8306,-4.8306,-4.8306,-4.8306,-3.3133,-3.3081,-3.3081,-3.3081,-3.3081,-3.3081,-3.3081,-3.3081,-3.3081,-3.3081,-3.3081,-3.3081,-3.3081,-3.3081,-3.3081,-3.3081,-3.3081,-3.3081,-3.3081,-3.3081,-3.3081,-3.3081,-3.3081,-3.3641,-3.4664,-3.4664,-3.5197,-3.6198,-3.629,-3.6852,-3.7829,-3.7919,-3.8472,-3.9424,-3.9424,-3.9424,-3.9424,0.0,-3.9424,0.0,-3.9424,-3.9424,0.0,-3.9424,-3.9424,-3.9424,-3.9424,-3.9424,-3.9424,0.0,-3.9424,-3.9424,0.0,-3.9424,-3.9409,-3.9553,0.0,0.0,0.0,0.0,0.0,0.0,-4.4006,0.0,0.0,0.0,0.0,0.0,0.0,0.0,0.0,0.0,0.0,0.0,0.0,0.0,0.0,0.0,0.0,0.0,0.0,0.0,0.0,0.0,0.0,-4.4587,-4.4587,-4.4587,-4.4587,-4.4587,-4.4587,-4.4587,-4.5178,-4.5783,-4.6365,-4.7044,-4.7715,-4.8306,-4.8306,-4.8306,-4.8306,-4.8306,-4.8306,-4.8306,-4.8306,-4.8306,-4.8306,-4.8306,-4.8306,-4.8306,-4.8306,-4.8306,-4.8306,-4.8306,-4.8306,-4.8306,-3.0812,-3.0956,-3.0956,-3.0956,-3.1512,-3.1965,-3.1965,-3.2612,-3.2797,-3.2052,-3.2612,-3.3081,-3.3081,-3.3081,-3.3081,-3.3081,-3.3081,-3.3081,0.0,-3.3081,-3.3081,-3.3081,-3.3081,-3.3313,-3.3797,-3.3797,-3.3953,-3.4415,-3.5034,-3.5828,-3.6852,-3.751,-3.8383,-3.9337,-3.8782,0.0,-3.9337,0.0,-3.8855,0.0,0.0,0.0,0.0,-3.9424,-3.9424,-3.9424,-3.9424,-3.9424,-3.9424,0.0,-3.9424,0.0,0.0,0.0,0.0,0.0,0.0,0.0,0.0,0.0,0.0,0.0,0.0,0.0,-4.4514,0.0,-4.4587,0.0,0.0,0.0,0.0,0.0,0.0,0.0,0.0,0.0,0.0,0.0,0.0,0.0,0.0,0.0,0.0,0.0,0.0,0.0,0.0,-4.4587,-4.4587,-4.4587,-4.4587,-4.4587,-4.4869,-4.5284,-4.5865,-4.6161,-4.6774,-4.7797,-4.7797,-4.7977,-4.8306,-4.8306,-4.8306,-4.8306,-4.8306,-4.8306,-4.8306,-4.8306,-4.8306,-4.8306,-4.8306,-4.8306,-4.8306,-4.8306,-4.8306,-4.8306,-2.8265,-2.88,-2.9134,-2.9396,-3.0135,-3.0676,-3.0676,-3.1777,-3.2239,-3.1311,-3.2326,-3.3081,-3.3081,-3.3081,-3.3081,-3.3081,-3.3081,-3.3081,0.0,-3.3081,-3.3081,-3.3081,-3.3081,-3.3081,-3.3081,-3.3081,-3.3081,-3.3081,-3.3869,-3.4815,-3.5814,-3.6554,-3.751,-3.8531,-3.7994,-3.8069,-3.8531,0.0,-3.8546,-3.9017,-3.9265,-3.9424,-3.9424,-3.9424,-3.9424,-3.9424,-3.9424,-3.9424,-3.9424,-3.9424,-3.9424,0.0,-3.9424,0.0,0.0,0.0,0.0,0.0,-4.0363,0.0,0.0,0.0,0.0,0.0,0.0,0.0,0.0,0.0,0.0,0.0,0.0,0.0,-4.4502,-4.4299,0.0,0.0,0.0,0.0,0.0,0.0,0.0,0.0,0.0,0.0,0.0,0.0,-4.4587,0.0,-4.4587,-4.4587,-4.4587,-4.4587,-4.4587,-4.4906,-4.5494,-4.5648,-4.6305,-4.7385,-4.7572,-4.7897,-4.8306,-4.8306,-4.8306,-4.8306,-4.8306,-4.8306,-4.8306,-4.8306,-4.8306,-4.8306,-4.8306,-4.8306,-4.8306,-4.8306,-4.8306,-4.8306,-2.583,-2.7108,-2.8466,-2.9271,-2.9407,-2.9498,-2.9498,-3.0496,-3.1223,-3.1223,0.0,0.0,0.0,0.0,0.0,0.0,0.0,-3.3081,-3.3081,0.0,-3.3081,-3.3081,-3.3081,-3.3081,-3.3081,-3.3081,-3.3081,-3.3081,-3.3154,-3.3713,-3.4746,-3.4746,-3.5359,-3.6369,-3.7343,-3.7252,-3.6448,-3.8457,-3.8782,-3.7919,-3.8943,-3.9424,-3.9424,0.0,-3.9424,-3.9424,-3.9424,0.0,0.0,-3.9424,-3.9424,0.0,0.0,0.0,0.0,0.0,0.0,0.0,0.0,0.0,0.0,-4.1788,0.0,0.0,0.0,0.0,-4.4587,0.0,0.0,0.0,0.0,-4.4587,-4.4333,-4.3589,-4.4079,0.0,0.0,0.0,0.0,0.0,0.0,0.0,0.0,0.0,0.0,-4.4587,-4.4587,0.0,-4.4587,-4.4587,-4.4587,-4.4587,-4.4587,-4.4906,-4.5494,-4.6112,-4.671,-4.7385,-4.7977,-4.8267,-4.8306,-4.8306,-4.8306,-4.8306,-4.8306,-4.8306,-4.8306,-4.8306,-4.8306,-4.8306,-4.8306,-4.8306,-4.8306,-4.8306,-4.8306,-4.8306,-2.5742,-2.6137,-2.6652,-2.6914,0.0,-2.8226,-2.8226,-2.9223,-2.9681,0.0,0.0,0.0,0.0,-3.1323,-3.1865,0.0,0.0,-3.3081,-3.3081,-3.3081,0.0,-3.3081,-3.3081,-3.3081,-3.3081,-3.3081,-3.3081,-3.3081,-3.3081,-3.3641,-3.4664,-3.4664,-3.521,-3.6212,-3.5922,-3.5922,0.0,0.0,0.0,0.0,0.0,-3.9424,-3.9424,0.0,0.0,-3.9424,-3.9424,-3.9424,0.0,-3.9424,-3.9424,-3.9424,-3.9424,-3.9424,-3.9424,-3.9424,-3.9424,0.0,0.0,0.0,-4.006,-4.0946,0.0,0.0,0.0,0.0,0.0,0.0,0.0,0.0,0.0,-4.4587,-4.4485,-4.4231,-4.4401,-4.4485,0.0,0.0,0.0,0.0,0.0,0.0,0.0,0.0,0.0,-4.4587,-4.4587,-4.4587,0.0,-4.4587,-4.4587,-4.4587,-4.4587,-4.4906,-4.5494,-4.5681,-4.6353,-4.7385,-4.7614,-4.7897,-4.8306,-4.8306,-4.8306,-4.8306,-4.8306,-4.8306,-4.8306,-4.8306,-4.8306,-4.8306,-4.8306,-4.8306,-4.8306,-4.8306,-4.8306,-4.8306,-2.5742,-2.5742,-2.5742,0.0,0.0,-2.6945,-2.6945,0.0,0.0,0.0,-2.868,0.0,-2.9407,0.0,-3.1223,0.0,-3.2326,-3.3081,-3.3081,-3.3081,0.0,-3.3081,-3.3081,-3.3081,-3.3081,-3.3081,-3.3081,-3.3081,-3.3081,-3.3484,-3.4108,-3.4108,-3.4498,-3.5116,-3.4815,-3.4815,-3.5102,-3.5197,-3.5762,0.0,0.0,-3.9031,0.0,0.0,-3.9424,-3.9424,0.0,-3.9424,-3.9424,-3.9424,-3.9424,-3.9424,-3.9424,-3.9424,-3.9424,-3.9424,-3.9424,-3.9424,-3.9424,-3.9424,0.0,-4.05,-4.069,0.0,-4.252,0.0,0.0,0.0,0.0,0.0,0.0,-4.4327,-4.4253,-4.457,-4.4587,-4.4587,0.0,-4.4587,0.0,0.0,0.0,0.0,0.0,0.0,-4.4587,-4.4587,-4.4587,-4.4587,0.0,0.0,-4.4587,-4.4587,-4.4587,-4.4776,-4.5178,-4.5597,-4.6257,-4.7044,-4.7512,-4.7937,-4.8306,-4.8306,-4.8306,-4.8306,-4.8306,-4.8306,-4.8306,-4.8306,-4.8306,-4.8306,-4.8306,-4.8306,-4.8306,-4.8306,-4.8102,-4.7882,-2.5742,-2.5742,0.0,0.0,-2.5742,0.0,0.0,0.0,-2.7494,0.0,-2.8495,-2.9223,-2.9223,-3.0316,-3.1122,-3.1122,-3.2339,-3.3081,-3.3081,-3.3081,0.0,0.0,-3.3081,-3.3081,-3.3081,-3.3081,-3.3081,-3.3081,-3.3081,-3.3081,-3.3081,-3.3081,-3.3081,-3.3154,-3.4191,0.0,-3.324,-3.5183,-3.5507,-3.491,-3.6958,-3.8383,-3.9337,-3.9352,0.0,-3.9424,-3.9424,-3.9424,-3.9424,-3.9424,-3.9424,-3.9424,-3.9424,-3.9424,-3.9424,-3.9424,-3.9424,-3.9424,-3.9424,-3.9424,-3.961,-4.0432,0.0,0.0,0.0,0.0,-4.2125,0.0,0.0,0.0,0.0,0.0,-4.3512,-4.4333,-4.4519,-4.4536,-4.457,0.0,0.0,0.0,0.0,0.0,0.0,-4.4587,-4.4587,-4.4587,-4.4587,-4.4587,0.0,0.0,0.0,-4.4587,-4.4587,-4.4626,-4.4626,-4.5783,-4.6383,-4.6413,-4.7656,-4.8267,-4.8267,-4.8306,-4.8306,-4.8306,-4.8306,-4.8306,-4.8306,-4.8306,-4.8306,-4.8306,-4.8306,-4.8288,-4.8251,-4.8251,-4.7752,-4.709,-2.5742,-2.5742,-2.5742,0.0,-2.5742,-2.5742,0.0,0.0,0.0,0.0,-2.6476,-2.6658,-2.6658,-2.8577,-2.9863,-2.9863,-3.1877,0.0,0.0,0.0,0.0,-3.3081,-3.3081,-3.3081,-3.3081,-3.3081,-3.3081,-3.3081,-3.3081,-3.3081,-3.3081,-3.3081,-3.3081,-3.3081,-3.3398,-3.3398,-3.3154,-3.3713,-3.4191,-3.491,-3.6958,-3.7994,0.0,0.0,-3.9424,-3.9424,-3.9424,-3.9424,-3.9424,-3.9424,-3.9424,-3.9424,-3.9424,-3.9424,-3.9424,-3.9424,-3.9424,-3.9424,-3.9424,-3.9424,-3.9481,-3.9666,-3.9737,-3.999,0.0,0.0,0.0,0.0,0.0,0.0,0.0,0.0,0.0,-4.2808,-4.33,-4.3927,-4.4502,0.0,0.0,-4.4587,0.0,0.0,0.0,-4.4587,-4.4587,-4.4587,-4.4587,0.0,0.0,0.0,0.0,-4.4587,-4.4587,-4.4814,-4.5267,-4.5597,-4.5965,-4.643,-4.7237,-4.7614,-4.7656,-4.8075,-4.8306,-4.8306,-4.8306,-4.8306,-4.8306,-4.8306,-4.8306,-4.8306,-4.8306,-4.7937,-4.7403,-4.7403,-4.7293,-4.7018,-2.5742,0.0,0.0,-2.5742,0.0,0.0,-2.5742,0.0,0.0,-2.5742,-2.5742,0.0,-2.5742,-2.7484,-2.8817,-2.9379,-3.1175,0.0,-3.3081,0.0,0.0,-3.3081,-3.3081,-3.3081,-3.3081,-3.3081,-3.3081,-3.3081,-3.3081,-3.3081,-3.3081,-3.3081,-3.3081,-3.3081,-3.3081,-3.3081,-3.3081,-3.3081,-3.394,-3.544,-3.6618,0.0,0.0,-3.9177,-3.9424,-3.9379,-3.908,-3.917,-3.9424,-3.9424,-3.9424,-3.9424,-3.9424,-3.9424,-3.9364,-3.905,-3.8975,-3.8916,-3.8616,-3.8542,-3.8542,-3.8542,-3.8542,-3.8667,-3.9162,-3.8847,-3.8916,0.0,0.0,0.0,0.0,0.0,0.0,-4.1608,-4.2384,-4.3081,0.0,0.0,0.0,0.0,-4.3876,0.0,0.0,0.0,-4.4587,-4.4587,0.0,0.0,0.0,0.0,0.0,-4.4587,-4.4587,-4.4759,-4.5089,-4.5372,-4.5783,-4.643,-4.7088,-4.753,-4.7797,-4.8172,-4.8306,-4.8306,-4.8306,-4.8306,-4.8306,-4.8306,-4.8306,-4.8288,-4.7919,-4.7293,-4.6539,-4.6176,-4.6067,-4.5975,-2.5742,0.0,0.0,0.0,0.0,0.0,0.0,-2.5742,0.0,-2.5742,0.0,-2.5742,-2.5742,-2.6935,-2.8228,-2.93,0.0,-3.191,-3.2995,-3.3081,-3.3081,-3.3081,-3.3081,-3.3081,-3.3081,-3.3081,-3.3081,-3.3081,-3.3081,-3.3081,-3.3081,-3.3081,-3.3081,-3.3081,-3.3081,0.0,0.0,-3.3081,-3.4178,-3.5814,-3.6077,-3.7244,-3.8898,-3.913,-3.923,-3.908,-3.8482,-3.8706,-3.9275,-3.9185,-3.9155,-3.9155,-3.9155,-3.9155,-3.9035,-3.8437,-3.8257,-3.8138,-3.7569,-3.7404,-3.7404,-3.7404,-3.7404,-3.7404,-3.7404,-3.7404,-3.7594,-3.8335,-3.7901,0.0,0.0,0.0,0.0,-4.0795,0.0,0.0,0.0,0.0,0.0,0.0,0.0,0.0,0.0,0.0,0.0,0.0,0.0,0.0,0.0,0.0,0.0,0.0,-4.4587,0.0,-4.4587,0.0,-4.5783,-4.6288,-4.7044,-4.7656,-4.8172,-4.8267,-4.8306,-4.8306,-4.8306,-4.8306,-4.8306,-4.8196,-4.8086,-4.7939,-4.7221,-4.6448,-4.5679,-4.4946,-4.4628,-4.4554,0.0,0.0,0.0,0.0,0.0,-2.5742,-2.5742,-2.5742,-2.5742,-2.5742,-2.5742,-2.5742,-2.5742,-2.7757,-2.9139,-2.9393,-3.1502,0.0,0.0,0.0,0.0,-3.3081,-3.3081,-3.3081,-3.3081,-3.3081,-3.3081,0.0,0.0,-3.3081,-3.3081,-3.3081,-3.3081,-3.3081,-3.3081,0.0,-3.3081,-3.3081,0.0,-3.3759,-3.5514,-3.6137,-3.6197,-3.7956,-3.8227,-3.7734,-3.7629,-3.8003,-3.8482,-3.7943,-3.7764,-3.7764,-3.7764,-3.7764,-3.7734,-3.7614,-3.7584,-3.7554,-3.7434,-3.7404,-3.7404,-3.7404,-3.7404,-3.7404,-3.7404,-3.7404,-3.7473,-3.7594,-3.7541,-3.7473,-3.7767,0.0,0.0,0.0,0.0,0.0,0.0,0.0,0.0,0.0,0.0,0.0,0.0,0.0,0.0,0.0,0.0,0.0,0.0,0.0,0.0,0.0,0.0,0.0,0.0,0.0,0.0,-4.5699,-4.6819,-4.7446,-4.7572,-4.8075,-4.8306,-4.8306,-4.8306,-4.8306,-4.8251,-4.759,-4.6929,-4.6305,-4.6158,-4.5627,-4.4894,-4.4743,-4.4281,-4.3716,0.0,0.0,0.0,0.0,0.0,0.0,0.0,-2.5742,0.0,-2.5742,-2.5742,-2.5742,-2.5742,-2.6744,-2.7987,-2.9298,-3.0487,-3.1701,-3.2982,-3.3081,-3.3081,-3.3081,-3.3081,0.0,-3.3081,-3.3081,-3.3081,-3.3081,0.0,-3.3081,-3.3081,-3.3081,-3.3081,-3.3081,0.0,-3.3081,0.0,0.0,0.0,-3.3592,-3.477,-3.5423,-3.5847,-3.7349,-3.7689,-3.736,-3.7045,-3.7135,-3.7404,-3.7404,-3.7404,-3.7404,-3.7404,-3.7404,-3.7345,-3.703,-3.6926,-3.6851,-3.6522,-3.6417,-3.6417,-3.6417,-3.6417,-3.6417,-3.6417,-3.6417,-3.6417,-3.6417,-3.6417,-3.6535,-3.6934,-3.77,0.0,0.0,0.0,0.0,0.0,0.0,0.0,0.0,0.0,0.0,0.0,0.0,0.0,0.0,0.0,0.0,0.0,0.0,0.0,0.0,0.0,0.0,0.0,0.0,0.0,-4.5511,-4.643,-4.7044,-4.7428,-4.8017,-4.8306,-4.8306,-4.8306,-4.8067,-4.7627,-4.6819,-4.6012,-4.5278,-4.5295,-4.48,-4.4086,-4.4064,-4.3807,-4.3497,0.0,-2.5742,0.0,0.0,-2.5742,0.0,-2.5742,-2.5742,-2.5742,-2.5742,-2.5742,-2.5742,-2.5742,-2.5887,-2.6935,-2.8883,-2.9476,-3.0594,-3.2562,-3.2995,-3.3081,-3.3081,-3.3081,-3.3081,-3.3081,-3.3081,-3.3081,0.0,0.0,0.0,-3.2893,-3.3018,-3.3081,0.0,0.0,0.0,0.0,0.0,-3.2503,-3.3333,-3.4099,-3.4815,-3.5554,-3.6754,-3.712,-3.6941,-3.6447,-3.6282,-3.6357,-3.6851,-3.7,-3.7,-3.7,-3.7,-3.6911,-3.6417,-3.6282,-3.6163,-3.5639,-3.5504,-3.5504,-3.5504,-3.5504,-3.5504,-3.5504,-3.5504,-3.5504,-3.5504,-3.5504,-3.5733,-3.643,-3.71,0.0,0.0,0.0,0.0,0.0,0.0,0.0,0.0,0.0,0.0,0.0,0.0,0.0,0.0,0.0,0.0,0.0,0.0,0.0,0.0,0.0,-4.4587,-4.4587,0.0,-4.5052,0.0,-4.6094,-4.6664,-4.7194,-4.7674,-4.7858,-4.7858,-4.7827,-4.7333,-4.6562,-4.592,-4.5168,-4.4452,-4.4435,-4.4066,-4.3497,-4.3497,-4.3497,-4.3497,0.0,0.0,0.0,0.0,0.0,0.0,0.0,-2.5742,-2.5742,-2.5742,-2.5742,-2.5742,-2.5742,-2.6727,-2.7494,-2.7793,-2.9738,-3.1129,-3.1365,-3.2487,-3.3081,-3.3081,-3.3081,-3.3081,-3.3081,-3.3081,-3.3081,0.0,0.0,-3.2805,0.0,-3.283,0.0,0.0,0.0,0.0,0.0,-3.1694,-3.15,-3.1772,-3.367,-3.408,-3.3879,-3.5815,-3.6207,-3.5669,-3.5609,-3.5594,-3.5609,-3.5669,-3.5684,-3.5684,-3.5684,-3.5684,-3.5669,-3.5609,-3.5594,-3.5579,-3.5519,-3.5504,-3.5504,-3.5504,-3.5504,-3.5504,-3.5504,-3.5504,-3.5504,-3.5504,-3.5504,-3.5733,-3.643,-3.6661,-3.6964,0.0,0.0,0.0,0.0,0.0,0.0,0.0,0.0,0.0,0.0,0.0,0.0,0.0,0.0,0.0,0.0,0.0,0.0,-4.4587,0.0,-4.4587,-4.4587,-4.5125,0.0,-4.5511,-4.6094,-4.643,-4.6489,-4.6413,-4.638,-4.6385,-4.621,-4.5681,-4.4929,-4.4856,-4.4342,-4.3608,-4.3608,-4.3552,-4.3497,-4.3497,-4.3497,-4.3497,0.0,0.0,0.0,0.0,0.0,0.0,0.0,-2.5742,-2.5742,-2.5742,-2.5742,-2.5742,-2.5742,-2.6147,-2.6749,-2.7565,-2.8526,-2.9633,-3.1144,-3.1661,-3.2326,-3.3068,-3.3081,-3.3081,-3.3081,-3.3081,-3.3081,0.0,0.0,0.0,0.0,0.0,0.0,0.0,0.0,-3.1699,-3.1672,-3.1131,-3.0881,-3.0971,-3.2071,-3.2671,-3.311,-3.4485,-3.5208,-3.5504,-3.5504,-3.5504,-3.5504,-3.5504,-3.5504,-3.5504,-3.5504,-3.5504,-3.5504,-3.5504,-3.5504,-3.5504,-3.5504,-3.5504,-3.5504,-3.5504,-3.5504,-3.5504,-3.5504,-3.5504,-3.5504,-3.5504,-3.5504,-3.5733,-3.643,-3.6615,-3.7008,0.0,0.0,0.0,0.0,0.0,0.0,0.0,0.0,-4.007,0.0,0.0,0.0,0.0,0.0,0.0,0.0,0.0,0.0,-4.32,0.0,-4.32,-4.32,-4.3488,-4.356,-4.3613,-4.4225,-4.455,-4.4533,-4.5237,-4.5729,-4.5986,-4.5407,-4.5002,-4.4672,-4.4176,-4.3791,-4.3497,-4.3497,-4.3497,-4.3497,-4.3497,-4.3497,-4.3497,-2.5742,0.0,-2.5742,0.0,-2.5742,-2.5742,-2.5742,-2.5742,-2.5742,-2.5742,-2.5742,-2.5742,-2.5742,-2.5742,-2.6025,-2.6936,-2.7339,-2.8497,-3.0568,-3.1003,-3.1777,-3.3068,-3.3081,0.0,-3.3081,-3.3081,-3.3081,-3.3081,-3.2905,0.0,0.0,0.0,0.0,0.0,-3.123,-3.1156,-3.1154,-3.0618,-3.0341,-3.0431,-3.0984,-3.1602,-3.2321,-3.3518,-3.4461,-3.5067,-3.5359,-3.5504,-3.5504,-3.5504,-3.5504,-3.5504,-3.5504,-3.5504,-3.5504,-3.5504,-3.5504,-3.5504,-3.5504,-3.5504,-3.5504,-3.5504,-3.5504,-3.5504,-3.5504,-3.5504,-3.5504,-3.5504,-3.5504,-3.5733,-3.643,-3.6446,-3.6798,-3.8358,0.0,0.0,0.0,0.0,0.0,0.0,-4.007,-4.007,-4.007,0.0,0.0,0.0,0.0,0.0,0.0,0.0,0.0,0.0,0.0,0.0,0.0,-4.2286,-4.2286,-4.2286,-4.2775,-4.3011,-4.3044,-4.4014,-4.4711,-4.5149,-4.4599,-4.436,-4.4305,-4.3718,-4.3497,-4.3497,-4.3497,-4.3497,-4.3497,-4.3497,-4.3497,-4.3497,-2.5742,-2.5742,-2.5742,-2.5742,-2.5742,-2.5742,-2.5742,-2.5742,-2.5742,-2.5742,-2.5742,-2.5742,-2.5742,-2.5742,-2.5742,-2.5742,-2.6915,-2.8094,-2.9338,-3.0496,-3.1777,0.0,0.0,-3.3081,-3.3081,-3.3081,-3.3081,-3.3081,0.0,0.0,-3.1399,0.0,-3.0909,-3.1386,-3.0847,-3.0585,-3.0604,-2.9999,-2.9792,-2.9907,-3.0842,-3.125,-3.1389,-3.331,-3.4027,-3.4177,-3.5133,-3.5504,-3.5504,-3.5504,-3.5504,-3.5504,-3.5504,-3.5504,-3.5504,-3.5504,-3.5504,-3.5504,-3.5504,-3.5504,-3.5504,-3.5504,-3.5504,-3.5504,-3.5504,-3.5504,-3.5504,-3.5504,-3.5504,-3.5733,-3.643,-3.6006,-3.6037,-3.7589,0.0,0.0,0.0,0.0,0.0,0.0,-4.007,-4.007,-4.007,0.0,0.0,0.0,0.0,0.0,0.0,0.0,0.0,-4.2286,-4.2286,0.0,-4.2286,-4.2286,-4.2286,-4.2286,-4.2286,-4.2286,-4.2323,-4.2725,-4.314,-4.3516,-4.3516,-4.3497,-4.3497,-4.3497,-4.3497,-4.3497,-4.3497,-4.3497,-4.3497,-4.3497,-4.3497,-4.3497,-2.5742,-2.5742,-2.5742,-2.5742,-2.5742,-2.5742,-2.5742,-2.5742,-2.5742,-2.5742,-2.5742,-2.5742,-2.5742,-2.5742,-2.5742,0.0,-2.6025,-2.7153,0.0,-2.9772,-3.0866,-3.2982,-3.3081,-3.2893,-3.2503,-3.2491,-3.2303,-3.1926,0.0,0.0,0.0,-3.0696,-3.0507,-3.0294,-3.0152,-3.0036,-3.0024,-2.9905,-2.9792,-2.9804,-3.0163,-3.1039,-3.2249,-3.282,-3.3891,-3.5067,-3.5359,-3.5504,-3.5504,-3.5504,-3.5504,-3.5504,-3.5504,-3.5504,-3.5504,-3.5504,-3.5504,-3.5504,-3.5504,-3.5504,-3.5504,-3.5504,-3.5504,-3.5504,-3.5504,-3.5504,-3.5504,-3.5504,-3.5504,-3.5554,-3.5782,-3.5683,-3.5846,-3.6798,0.0,0.0,0.0,0.0,0.0,0.0,-4.007,-4.007,0.0,-4.007,0.0,0.0,0.0,0.0,0.0,0.0,0.0,0.0,-4.0781,0.0,-4.0781,-4.0781,-4.0781,-4.0781,-4.0781,-4.1001,-4.136,-4.192,-4.2417,-4.2976,-4.3339,-4.3497,-4.3497,-4.3497,-4.3497,-4.3497,-4.3497,-4.3497,-4.3497,-4.3497,-4.3497,-4.3497,-2.5703,-2.5742,-2.5742,-2.5742,-2.5742,-2.5742,-2.5742,-2.5742,-2.5742,-2.5742,-2.5596,-2.5488,-2.5488,-2.5276,0.0,-2.5635,-2.5742,0.0,-2.8967,-2.9127,-3.0124,-3.2356,-3.2441,-3.2277,-3.1913,0.0,0.0,-3.1386,-3.1198,-3.0834,-3.0306,-3.0306,-3.0118,-2.9792,-2.9792,-2.9792,-2.9792,-2.9792,-2.9792,-2.9792,-2.9792,-3.0495,-3.1623,-3.196,-3.3045,-3.4409,-3.4409,-3.4854,-3.5424,-3.5067,-3.5213,-3.5504,-3.5504,-3.5504,-3.5504,-3.5504,-3.5504,-3.5504,-3.5504,-3.5504,-3.5504,-3.5504,-3.5504,-3.5504,-3.5504,-3.5504,-3.5504,-3.5504,-3.5504,-3.5504,-3.5504,-3.5504,-3.5718,-3.6508,0.0,-3.8035,-3.8799,0.0,0.0,0.0,0.0,0.0,0.0,-4.007,0.0,0.0,0.0,0.0,0.0,0.0,0.0,-4.007,-4.007,0.0,-4.007,-4.007,-4.007,-4.007,-4.007,-4.0368,-4.0903,-4.1534,-4.2121,-4.275,-4.325,-4.3497,-4.3497,-4.3497,-4.3497,-4.3497,-4.3497,-4.3497,-4.3497,-4.3497,-4.3497,-4.3497,-2.5566,-2.5654,0.0,0.0,-2.5654,0.0,-2.5644,-2.5644,-2.5644,-2.5644,-2.5283,-2.5019,-2.5019,-2.4641,-2.4764,-2.5557,0.0,0.0,0.0,-2.8545,-2.9375,-3.1329,-3.1386,0.0,-3.1336,-3.1336,-3.1311,-3.1286,-3.0796,-3.0294,-2.9792,-2.9792,-2.9792,-2.9792,-2.9792,-2.9792,-2.9792,-2.9792,-2.9792,-2.9792,-2.9792,-2.9804,-2.9972,-3.0846,-3.1742,-3.2593,-3.2664,-3.3837,-3.5279,-3.4394,-3.4758,-3.5504,-3.5504,-3.5504,-3.5504,-3.5504,-3.5504,-3.5504,-3.5504,-3.5504,-3.5504,-3.5504,-3.5504,-3.5504,-3.5504,-3.5504,-3.5504,-3.5504,-3.5504,-3.5504,-3.5504,-3.5504,-3.5718,-3.6384,-3.7203,-3.7978,-3.8745,0.0,0.0,0.0,0.0,0.0,0.0,-4.007,-4.007,0.0,0.0,0.0,0.0,0.0,-4.007,-4.007,-4.007,-4.007,-4.007,-4.007,-4.007,-4.007,-4.007,-4.0368,-4.0874,-4.149,-4.2121,-4.2655,-4.325,-4.3497,-4.3497,-4.3497,-4.3497,-4.3497,-4.3497,-4.3497,-4.3497,-4.3497,-4.3497,-4.3497,0.0,0.0,-2.4746,-2.5002,-2.4859,-2.4727,-2.4727,-2.4727,-2.4727,-2.4727,-2.4639,-2.457,-2.457,-2.4433,-2.4465,-2.4687,-2.474,-2.5633,-2.7949,-2.8055,-2.909,-3.1304,-3.1386,-3.1198,-3.0809,-3.0796,-3.0595,-3.0168,-3.0043,-2.9917,-2.9792,-2.9792,-2.9792,-2.9792,-2.9792,-2.9792,-2.9792,-2.9792,-2.9792,-2.9792,-2.9792,-3.02,-3.0894,-3.1101,-3.1742,-3.2678,-3.338,-3.3959,-3.4461,-3.4986,-3.5279,-3.5504,-3.5504,-3.5504,-3.5504,-3.5504,-3.5504,-3.5504,-3.5504,-3.5504,-3.5504,-3.5504,-3.5504,-3.5504,-3.5504,-3.5504,-3.5504,-3.5504,-3.5504,-3.5504,-3.5504,-3.5504,-3.5554,-3.5718,-3.6399,-3.7144,-3.7978,-3.8707,0.0,0.0,-4.007,-4.007,-4.007,-4.007,-4.007,0.0,0.0,0.0,0.0,0.0,-4.007,-4.007,-4.007,-4.007,-4.007,-4.007,-4.007,-4.007,-4.007,-4.0171,-4.0336,-4.1331,-4.1895,-4.2062,-4.3069,-4.3497,-4.3497,-4.3497,-4.3497,-4.3497,-4.3497,-4.3497,-4.3497,-4.3497,-4.3497,-4.3497,-2.4759,-2.4657,-2.4424,-2.4434,-2.4424,-2.4414,-2.4414,-2.4414,-2.4414,-2.4414,-2.4248,-2.4131,-2.4131,-2.3955,-2.3796,-2.3832,-2.4175,-2.5098,-2.6689,-2.7261,-2.8257,-2.9792,-3.0393,-3.0532,-3.0244,-3.0231,-3.0093,-2.9792,-2.9792,-2.9792,-2.9792,-2.9792,-2.9792,-2.9792,-2.9792,-2.9792,-2.9792,-2.9792,-2.9792,-2.9792,-2.9792,-3.0072,-3.0547,-3.0585,-3.1119,-3.196,-3.2046,-3.2607,-3.3394,-3.3478,-3.4124,-3.4839,-3.4839,-3.5133,-3.5504,-3.5504,-3.5504,-3.5504,-3.5504,-3.5504,-3.5504,-3.5504,-3.5504,-3.5504,-3.5504,-3.5504,-3.5504,-3.5504,-3.5504,-3.5504,-3.5504,-3.5504,-3.5504,-3.5504,-3.6117,-3.6843,-3.769,-3.8414,0.0,-4.002,-4.007,-4.007,-4.007,-4.007,-4.007,-4.007,0.0,0.0,-4.007,-4.007,-4.007,-4.007,-4.007,-4.007,-4.007,-4.007,-4.007,-4.007,-4.007,-4.007,-4.0121,-4.1286,-4.181,-4.1835,-4.3032,-4.3497,-4.3497,-4.3497,-4.3497,-4.3497,-4.3497,-4.3497,-4.3497,-4.3497,-4.3497,-4.3497,-2.4522,-2.4369,-2.4117,-2.3876,-2.4098,-2.4219,-2.4219,-2.4219,-2.4219,-2.4219,-2.3916,-2.3691,-2.3691,-2.3359,-2.3135,-2.3135,-2.375,-2.4608,-2.5496,-2.6487,-2.7432,-2.8279,-2.9275,-2.9792,-2.9792,-2.9792,-2.9792,-2.9792,-2.9792,-2.9792,-2.9792,-2.9792,-2.9792,-2.9792,-2.9792,-2.9792,-2.9792,-2.9792,-2.9792,-2.9792,-2.9792,-2.9792,-2.9792,-2.9792,-3.0279,-3.0895,-3.0279,-3.1057,-3.2321,-3.1815,-3.2664,-3.4027,-3.4177,-3.4839,-3.5504,-3.5504,-3.5504,-3.5504,-3.5504,-3.5504,-3.5504,-3.5504,-3.5504,-3.5504,-3.5504,-3.5504,-3.5504,-3.5504,-3.5504,-3.5504,-3.5504,-3.5504,-3.5504,-3.5504,-3.6117,-3.6843,-3.769,0.0,-3.9209,-4.002,-4.007,-4.007,-4.007,-4.007,-4.007,-4.007,-4.007,0.0,0.0,-4.007,-4.007,-4.007,-4.007,-4.007,-4.007,-4.007,-4.007,-4.007,-4.007,-4.0171,-4.0237,-4.1241,-4.175,-4.1979,-4.2958,-4.341,-4.3497,-4.3497,-4.3497,-4.3497,-4.3497,-4.3497,-4.3497,-4.3497,-4.3497,-4.3497,-2.334,-2.335,-2.333,-2.3232,-2.3242,-2.334,-2.334,-2.334,-2.334,-2.334,-2.3281,-2.3242,-2.3242,-2.3184,-2.3135,-2.3135,-2.3251,-2.4161,-2.6195,-2.6495,-2.7449,-2.9468,-2.9702,-2.9792,-2.9792,-2.9792,-2.9792,-2.9792,-2.9792,-2.9792,-2.9792,-2.9792,-2.9792,-2.9792,-2.9792,-2.9792,-2.9792,-2.9792,-2.9792,-2.9792,-2.9792,-2.9792,-2.9792,-2.9792,-2.9856,-3.0075,-3.0758,-3.118,-3.1683,-3.3101,-3.3739,-3.4177,-3.4986,-3.5359,-3.5504,-3.5504,-3.5504,-3.5504,-3.5504,-3.5504,-3.5504,-3.5504,-3.5504,-3.5504,-3.5504,-3.5504,-3.5504,-3.5504,-3.5504,-3.5504,-3.5504,-3.5504,-3.5504,-3.5504,-3.6117,-3.6843,-3.769,0.0,-3.9209,-4.002,-4.007,-4.007,-4.007,-4.007,-4.007,-4.007,-4.007,-4.007,-4.007,-4.007,-4.007,-4.007,-4.007,-4.007,-4.007,-4.007,-4.007,-4.007,-4.007,-4.0336,-4.078,-4.0949,-4.1578,-4.2577,-4.2732,-4.3087,-4.3497,-4.3497,-4.3497,-4.3497,-4.3497,-4.3497,-4.3497,-4.3497,-4.3497,-4.3497,-2.3135,-2.3135,-2.3135,-2.3135,-2.3135,-2.3135,-2.3135,-2.3135,-2.3135,-2.3135,-2.3135,-2.3135,-2.3135,-2.3135,-2.3135,-2.3135,-2.3135,-2.3574,-2.4604,-2.5826,-2.6953,-2.7971,-2.9131,-2.9792,-2.9792,-2.9792,-2.9792,-2.9792,-2.9792,-2.9792,-2.9792,-2.9792,-2.9792,-2.9792,-2.9792,-2.9792,-2.9792,-2.9792,-2.9792,-2.9792,-2.9792,-2.9792,-2.9792,-2.9792,-2.9792,-2.9869,-3.0279,-3.0419,-3.0558,-3.1415,-3.2046,-3.2664,-3.3616,-3.4259,-3.4839,-3.5359,-3.5504,-3.5504,-3.5504,-3.5504,-3.5504,-3.5504,-3.5504,-3.5504,-3.5504,-3.5504,-3.5504,-3.5504,-3.5504,-3.5504,-3.5504,-3.5504,-3.5504,-3.5504,-3.6117,0.0,0.0,-3.8414,-3.9209,-4.002,-4.007,-4.007,-4.007,-4.007,-4.007,-4.007,-4.007,-4.007,-4.007,-4.007,-4.007,-4.007,-4.007,-4.007,-4.007,-4.007,-4.007,-4.007,-4.007,-4.0254,-4.0497,-4.1087,-4.1664,-4.2262,-4.2884,-4.325,-4.3497,-4.3497,-4.3497,-4.3497,-4.3497,-4.3497,-4.3497,-4.3497,-4.3497,-4.3424,-2.3135,-2.3135,-2.3135,-2.3135,-2.3135,-2.3135,-2.3135,-2.3135,-2.3135,-2.3135,-2.3135,-2.3135,-2.3135,-2.3135,-2.3135,-2.3135,-2.3135,-2.3093,-2.3086,-2.5233,-2.6509,-2.6476,-2.8347,-2.9534,-2.9792,-2.9792,-2.9792,-2.9792,-2.9792,-2.9792,-2.9792,-2.9792,-2.9792,-2.9792,-2.9792,-2.9792,-2.9792,-2.9792,-2.9677,-2.9549,-2.9549,-2.9501,-2.9402,-2.9389,-2.9363,-2.9402,-2.9402,-2.9402,-2.9479,-2.9682,-3.0368,-3.1267,-3.2179,-3.3161,-3.4024,-3.4818,-3.5145,-3.5295,-3.5459,-3.5504,-3.5504,-3.5504,-3.5504,-3.5504,-3.5504,-3.5504,-3.5504,-3.5504,-3.5504,-3.5504,-3.5504,-3.5504,-3.5504,-3.5504,0.0,0.0,0.0,-3.8414,-3.9209,-4.002,-4.007,-4.007,-4.007,-4.007,-4.007,-4.007,-4.007,-4.007,-4.007,-4.007,-4.007,-4.007,-4.007,-4.007,-4.007,-4.007,-4.007,-4.007,-4.007,-4.0254,-4.0514,-4.1241,-4.1793,-4.2226,-4.2995,-4.3375,-4.3497,-4.3497,-4.3497,-4.3497,-4.3497,-4.3387,-4.3222,-4.3222,-4.3094,-4.2837,-2.3135,-2.3135,-2.3135,-2.3135,-2.3135,-2.3135,-2.3135,-2.3135,-2.3135,-2.3135,-2.3135,-2.3135,-2.3135,-2.3135,-2.3135,-2.3135,-2.3135,-2.3115,-2.3066,-2.5277,-2.6461,-2.6495,-2.7646,-2.8688,-2.9792,-2.9792,-2.9792,-2.9792,-2.9792,-2.9792,-2.9792,-2.9792,-2.9792,-2.9792,-2.9792,-2.9792,-2.9792,-2.9792,-2.9512,-2.8991,-2.8991,-2.8661,-2.8247,-2.8251,-2.8201,-2.8235,-2.8235,-2.8235,-2.8369,-2.9243,-3.0115,-3.1003,-3.1946,-3.2825,-3.3572,-3.3649,-3.4083,-3.4696,-3.5325,-3.5504,-3.5504,-3.5504,-3.5504,-3.5504,-3.5504,-3.5504,-3.5504,-3.5504,-3.5504,-3.5504,-3.5504,-3.5504,-3.5504,-3.5504,0.0,0.0,-3.769,-3.8414,-3.9209,-4.002,-4.007,-4.007,-4.007,-4.007,-4.007,-4.007,-4.007,-4.007,-4.007,-4.007,-4.007,-4.007,-4.007,-4.007,-4.007,-4.007,-4.007,-4.007,-4.007,-4.0642,-4.1682,-4.1178,-4.186,-4.3356,-4.2939,-4.305,-4.3497,-4.3497,-4.3497,-4.3497,-4.3497,-4.3039,-4.2396,-4.2396,-4.1919,-4.1277,-2.3135,-2.3135,-2.3135,-2.3135,-2.3135,-2.3135,-2.3135,-2.3135,-2.3135,-2.3135,-2.3135,-2.3135,-2.3135,-2.3135,-2.3135,-2.3135,-2.3135,-2.3135,-2.3135,-2.3867,-2.5669,-2.8441,-2.898,-2.9365,-2.9792,-2.9792,-2.9792,-2.9792,-2.9792,-2.9792,-2.9792,-2.9792,-2.9603,-2.9252,-2.9252,-2.9073,-2.875,-2.875,-2.8611,-2.8387,-2.8396,-2.8298,-2.8113,-2.81,-2.8132,-2.8122,-2.8125,-2.8088,-2.8145,-2.8485,-2.8866,-2.9324,-3.0269,-3.1093,-3.2069,-3.3161,-3.3664,-3.3948,-3.4211,-3.4902,-3.5504,-3.5504,-3.5504,-3.5504,-3.5504,-3.5504,-3.5504,-3.5504,-3.5504,-3.5504,-3.5504,-3.5504,-3.5504,-3.5504,0.0,-3.6843,-3.769,-3.8414,-3.9209,-4.002,-4.007,-4.007,-4.007,-4.007,-4.007,-4.007,-4.007,-4.007,-4.007,-4.007,-4.007,-4.007,-4.007,-4.007,-4.007,-4.007,-4.007,-4.0121,-4.0449,-4.0827,-4.1268,-4.1768,-4.2382,-4.3014,-4.3142,-4.3286,-4.3497,-4.3497,-4.3204,-4.2763,-4.2763,-4.2268,-4.157,-4.157,-4.1368,-4.1038,-2.3135,-2.3135,-2.3135,-2.3135,-2.3135,-2.3135,-2.3135,-2.3135,-2.3135,-2.3135,-2.3135,-2.3135,-2.3135,-2.3135,-2.3135,-2.3135,-2.3135,-2.3135,-2.3135,-2.375,-2.5509,-2.8643,-2.873,-2.9123,-2.9792,-2.9792,-2.9704,-2.9528,-2.9528,-2.9428,-2.9264,-2.9264,-2.9051,-2.8674,-2.8674,-2.845,-2.8074,-2.8074,-2.8038,-2.7841,-2.7876,-2.7743,-2.758,-2.7596,-2.7599,-2.7607,-2.7626,-2.7588,-2.757,-2.7619,-2.7746,-2.8092,-2.876,-2.9524,-3.0509,-3.2058,-3.2616,-3.2826,-3.3124,-3.4023,-3.4925,-3.5115,-3.534,-3.5504,-3.5504,-3.5504,-3.5504,-3.5504,-3.5504,-3.5504,-3.5504,-3.5504,-3.5504,-3.5504,-3.5943,-3.6631,-3.7632,-3.8262,-3.8924,-3.9969,-4.007,-4.007,-4.007,-4.007,-4.007,-4.007,-4.007,-4.007,-4.007,-4.007,-4.007,-4.007,-4.007,-4.007,-4.007,-4.007,-4.007,-4.0121,-4.0497,-4.075,-4.0949,-4.1937,-4.2519,-4.2732,-4.2994,-4.3112,-4.3094,-4.2837,-4.2415,-4.1919,-4.1919,-4.1442,-4.0726,-4.0726,-4.0561,-4.0286,-2.3135,-2.3135,-2.3135,-2.3135,-2.3135,-2.3135,-2.3135,-2.3135,-2.3135,-2.3135,-2.3135,-2.3135,-2.3135,-2.3135,-2.3135,-2.3135,-2.3135,-2.3135,-2.3135,-2.5176,-2.6454,-2.6494,-2.6481,-2.7528,-2.9779,-2.9779,-2.9503,-2.8925,-2.8925,-2.8637,-2.8109,-2.8109,-2.8109,-2.8097,-2.8097,-2.8116,-2.8117,-2.8117,-2.7806,-2.7276,-2.7276,-2.6998,-2.6533,-2.6533,-2.6533,-2.6533,-2.6533,-2.6533,-2.6533,-2.6533,-2.7023,-2.7717,-2.773,-2.8325,-2.9189,-3.0017,-3.0746,-3.1407,-3.2279,-3.2959,-3.3683,-3.4325,-3.4981,-3.5489,-3.5489,-3.5489,-3.5489,-3.5504,-3.5504,-3.5504,-3.5504,-3.5504,-3.5504,-3.5504,-3.5504,-3.6022,-3.7589,-3.7822,-3.8374,-3.9901,-4.007,-4.007,-4.007,-4.007,-4.007,-4.007,-4.007,-4.007,-4.007,-4.007,-4.007,-4.007,-4.007,-4.007,-4.007,-4.007,-4.007,-4.007,-4.0121,-4.0351,-4.0949,-4.1516,-4.2103,-4.2678,-4.241,-4.2286,-4.2231,-4.1442,-4.1111,-4.1111,-4.1111,-4.0598,-3.9882,-3.9882,-3.9386,-3.8707,-2.3135,-2.3135,-2.3135,-2.3135,-2.3135,-2.3135,-2.3135,-2.3135,-2.3135,-2.3135,-2.3135,-2.3135,-2.3135,-2.3135,-2.3135,-2.3135,-2.3135,-2.2978,-2.2683,-2.3659,-2.4614,-2.5374,-2.7176,-2.8497,-2.9164,-2.8787,-2.8537,-2.8348,-2.8348,-2.8273,-2.8109,-2.8109,-2.7896,-2.7532,-2.7532,-2.7352,-2.6993,-2.6993,-2.688,-2.6772,-2.6772,-2.6653,-2.6533,-2.6533,-2.6533,-2.6533,-2.6533,-2.6533,-2.6533,-2.6533,-2.6665,-2.6929,-2.7516,-2.8331,-2.9141,-3.0024,-3.0812,-3.1452,-3.1732,-3.2312,-3.2974,-3.3621,-3.3948,-3.4218,-3.4681,-3.4786,-3.4921,-3.54,-3.5504,-3.5504,-3.5504,-3.5504,-3.5504,-3.5504,-3.5504,-3.6022,-3.7589,-3.7822,-3.8374,-3.9901,-4.007,-4.007,-4.007,-4.007,-4.007,-4.007,-4.007,-4.007,-4.007,-4.007,-4.007,-4.007,-3.958,-3.9326,-3.9326,-3.9817,-4.007,-4.0121,-3.9983,-4.0186,-4.0682,-4.0735,-4.1034,-4.1588,-4.1486,-4.1479,-4.1442,-4.1203,-4.0781,-4.0267,-4.0267,-3.9772,-3.9056,-3.9056,-3.8909,-3.8707,-2.3135,-2.3135,-2.3135,-2.3135,-2.3135,-2.3135,-2.3135,-2.3135,-2.3066,-2.2852,-2.2822,-2.2773,-2.2656,-2.2646,-2.2646,-2.2646,-2.2629,-2.2683,-2.2875,-2.3223,-2.4072,-2.5589,-2.6967,-2.7988,-2.8558,-2.8247,-2.8013,-2.7761,-2.7761,-2.7708,-2.7457,-2.7457,-2.7268,-2.6954,-2.6954,-2.6766,-2.6533,-2.6533,-2.6533,-2.6533,-2.6533,-2.6533,-2.6533,-2.6533,-2.6533,-2.6533,-2.6533,-2.6533,-2.6533,-2.6533,-2.6533,-2.6559,-2.7049,-2.761,-2.8147,-2.9013,-2.9868,-3.0616,-3.0909,-3.1575,-3.2193,-3.2587,-3.3126,-3.3622,-3.4027,-3.41,-3.4203,-3.4622,-3.4921,-3.51,-3.51,-3.5325,-3.5619,-3.5894,-3.5958,-3.6461,-3.8019,-3.8262,-3.8707,-3.9952,-4.007,-4.007,-4.007,-4.007,-3.9952,-3.9665,-3.9377,-3.9225,-3.9225,-3.9225,-3.9225,-3.9225,-3.8802,-3.8565,-3.8565,-3.9005,-3.9225,-3.9208,-3.9267,-3.9521,-3.9831,-4.0119,-4.0437,-4.0753,-4.0646,-4.0634,-4.0598,-4.0286,-3.9863,-3.9423,-3.9423,-3.9129,-3.8707,-3.8707,-3.8707,-3.8707,-2.3008,-2.3028,-2.3028,-2.3028,-2.3028,-2.3028,-2.3028,-2.3028,-2.2823,-2.2448,-2.2453,-2.2335,-2.1914,-2.1885,-2.1885,-2.1885,-2.1855,-2.229,-2.3205,-2.3424,-2.4303,-2.6251,-2.6039,-2.6533,-2.789,-2.7944,-2.7686,-2.7201,-2.7201,-2.6972,-2.6533,-2.6533,-2.6533,-2.6533,-2.6533,-2.6533,-2.6533,-2.6533,-2.6533,-2.6533,-2.6533,-2.6533,-2.6533,-2.6533,-2.6533,-2.6533,-2.6533,-2.6533,-2.6533,-2.6533,-2.6533,-2.6533,-2.6533,-2.6546,-2.6756,-2.7522,-2.829,-2.9183,-3.0083,-3.0846,-3.1422,-3.1467,-3.2435,-3.3352,-3.3382,-3.3381,-3.3456,-3.3484,-3.3978,-3.4382,-3.4382,-3.4906,-3.5537,-3.6322,-3.6429,-3.6939,-3.8494,-3.871,-3.901,-3.9817,-3.9884,-3.9884,-3.9884,-3.9884,-3.9597,-3.8937,-3.8278,-3.7905,-3.7905,-3.7905,-3.7905,-3.7905,-3.7838,-3.7804,-3.7804,-3.7736,-3.7753,-3.7984,-3.8277,-3.8503,-3.8617,-3.9516,-3.9968,-3.9968,-3.9853,-3.979,-3.9735,-3.9001,-3.8707,-3.8707,-3.8707,-3.8707,-3.8707,-3.8707,-3.8707,-3.8707,-2.2197,-2.2127,-2.2127,-2.2127,-2.2127,-2.2127,-2.2127,-2.2127,-2.2169,-2.206,-2.1991,-2.2004,-2.1875,-2.1885,-2.1885,-2.1885,-2.153,-2.1426,-2.1709,-2.2801,-2.3694,-2.4164,-2.556,-2.6533,-2.681,-2.688,-2.6766,-2.6666,-2.6666,-2.6603,-2.6533,-2.6533,-2.6533,-2.6533,-2.6533,-2.6533,-2.6533,-2.6533,-2.6533,-2.6533,-2.6533,-2.6533,-2.6533,-2.6533,-2.6533,-2.6533,-2.6533,-2.6533,-2.6533,-2.6533,-2.6533,-2.6533,-2.6533,-2.6917,-2.7451,-2.7621,-2.8345,-2.9165,-3.005,-3.0412,-3.0732,-3.1319,-3.1719,-3.2047,-3.2596,-3.2745,-3.2869,-3.3411,-3.3604,-3.3709,-3.3709,-3.3829,-3.415,-3.4842,-3.4945,-3.5508,-3.695,-3.7176,-3.7466,-3.8265,-3.8379,-3.8379,-3.8379,-3.8379,-3.8311,-3.8159,-3.799,-3.7905,-3.7905,-3.7905,-3.7905,-3.7905,-3.733,-3.7026,-3.7026,-3.6417,-3.6899,-3.8446,-3.7598,-3.7602,-3.8332,-3.799,-3.8043,-3.8399,-3.8793,-3.8964,-3.8946,-3.8781,-3.8707,-3.8707,-3.8707,-3.8707,-3.8707,-3.8707,-3.8707,-3.8707,-2.1901,-2.1872,-2.1906,-2.186,-2.1904,-2.1904,-2.1904,-2.1904,-2.185,-2.1619,-2.1541,-2.1491,-2.133,-2.125,-2.125,-2.125,-2.1045,-2.0918,-2.0918,-2.1696,-2.2357,-2.2789,-2.3818,-2.4779,-2.5753,-2.5332,-2.5569,-2.6533,-2.6533,-2.6533,-2.6533,-2.6533,-2.6533,-2.6533,-2.6533,-2.6533,-2.6533,-2.6533,-2.6533,-2.6533,-2.6533,-2.6533,-2.6533,-2.6533,-2.6533,-2.6533,-2.6533,-2.6533,-2.6533,-2.6533,-2.6533,-2.6533,-2.6533,-2.6784,-2.7143,-2.7143,-2.801,-2.9119,-2.9586,-3.0254,-3.0995,-3.1407,-3.1482,-3.1584,-3.1968,-3.2013,-3.209,-3.2452,-3.2811,-3.3021,-3.3021,-3.3275,-3.3819,-3.4914,-3.5068,-3.5568,-3.7053,-3.7269,-3.7451,-3.7858,-3.7905,-3.7905,-3.7905,-3.7584,-3.7381,-3.7381,-3.7026,-3.6806,-3.6806,-3.6806,-3.6806,-3.6806,-3.6434,-3.6231,-3.6231,-3.5825,-3.6405,-3.7936,-3.7042,-3.7022,-3.7775,-3.7629,-3.7808,-3.83,-3.8578,-3.8707,-3.8707,-3.8707,-3.8707,-3.8707,-3.8707,-3.8707,-3.8707,-3.8707,-3.8707,-3.8707,-2.166,-2.1666,-2.166,-2.1693,-2.17,-2.17,-2.17,-2.17,-2.1504,-2.1171,-2.1083,-2.0966,-2.0654,-2.0566,-2.0566,-2.0566,-2.0566,-2.0566,-2.0566,-2.0789,-2.1155,-2.1952,-2.2179,-2.3156,-2.4993,-2.4186,-2.4624,-2.6533,-2.6321,-2.6321,-2.6533,-2.6533,-2.6533,-2.6533,-2.6533,-2.6533,-2.6533,-2.6533,-2.6533,-2.6533,-2.6533,-2.6533,-2.6533,-2.6533,-2.6533,-2.6533,-2.6533,-2.6533,-2.6533,-2.6533,-2.6533,-2.6533,-2.6533,-2.6533,-2.6533,-2.6533,-2.761,-2.8844,-2.8979,-3.0108,-3.1319,-3.1452,-3.1482,-3.1482,-3.1482,-3.1482,-3.1482,-3.1482,-3.1958,-3.2347,-3.2347,-3.2796,-3.3605,-3.496,-3.5179,-3.5679,-3.7131,-3.7357,-3.7357,-3.7469,-3.7516,-3.7516,-3.7516,-3.6941,-3.6586,-3.6586,-3.5994,-3.5622,-3.5622,-3.5622,-3.5622,-3.5622,-3.5694,-3.5739,-3.5739,-3.581,-3.6333,-3.7173,-3.6764,-3.6803,-3.7323,-3.772,-3.8132,-3.8578,-3.8658,-3.8707,-3.8707,-3.8707,-3.8707,-3.8707,-3.8707,-3.8707,-3.8707,-3.8707,-3.8707,-3.8707,-2.0742,-2.0801,-2.0762,-2.0771,-2.0771,-2.0771,-2.0771,-2.0771,-2.0761,-2.0664,-2.0664,-2.0654,-2.0644,-2.0566,-2.0566,-2.0566,-2.0566,-2.0566,-2.0566,-2.1375,-2.1886,-2.2027,-2.284,-2.3857,-2.5016,-2.4838,-2.537,-2.6533,-2.5623,-2.5635,-2.6533,-2.6533,-2.6533,-2.6533,-2.6533,-2.6533,-2.6533,-2.6533,-2.6533,-2.6533,-2.6533,-2.6533,-2.6533,-2.6533,-2.6533,-2.6533,-2.6533,-2.6533,-2.6533,-2.6533,-2.6533,-2.6533,-2.6533,-2.6533,-2.6533,-2.6533,-2.7143,-2.801,-2.8763,-2.9708,-3.0629,-3.1319,-3.1482,-3.1482,-3.1482,-3.1482,-3.1482,-3.1482,-3.1541,-3.1616,-3.1616,-3.1676,-3.2068,-3.2865,-3.303,-3.3467,-3.484,-3.505,-3.5257,-3.5819,-3.5926,-3.5926,-3.5926,-3.5842,-3.5774,-3.5774,-3.5673,-3.5622,-3.5622,-3.5622,-3.5622,-3.5622,-3.6054,-3.6308,-3.6308,-3.6764,-3.7076,-3.719,-3.7152,-3.736,-3.779,-3.7859,-3.7946,-3.8013,-3.8496,-3.8707,-3.8707,-3.8707,-3.8707,-3.8707,-3.8707,-3.8707,-3.8707,-3.8707,-3.8707,-3.8707,-2.0566,-2.0566,-2.0566,-2.0566,-2.0566,-2.0566,-2.0566,-2.0566,-2.0566,-2.0566,-2.0566,-2.0566,-2.0566,-2.0566,-2.0566,-2.0566,-2.0566,-2.0566,-2.0566,-2.1011,-2.1231,-2.1231,-2.168,-2.2339,-2.3294,-2.2787,-2.3599,-2.5652,-2.5783,-2.6083,-2.6533,-2.6533,-2.6533,-2.6533,-2.6533,-2.6533,-2.6533,-2.6533,-2.6533,-2.6533,-2.6533,-2.6533,-2.6533,-2.6533,-2.6533,-2.6533,-2.6533,-2.6533,-2.6533,-2.6533,-2.6533,-2.6533,-2.6533,-2.6533,-2.6571,-2.7036,-2.7756,-2.8622,-2.9489,-3.0315,-3.104,-3.1422,-3.1482,-3.1482,-3.1482,-3.1482,-3.1482,-3.1482,-3.1482,-3.1482,-3.1482,-3.1482,-3.1838,-3.2986,-3.3145,-3.3649,-3.4958,-3.5161,-3.5253,-3.556,-3.5622,-3.5622,-3.5622,-3.5622,-3.5622,-3.5622,-3.5622,-3.5622,-3.5622,-3.5622,-3.5622,-3.5622,-3.581,-3.5941,-3.5941,-3.6207,-3.6603,-3.719,-3.719,-3.7433,-3.7893,-3.7893,-3.8065,-3.835,-3.8596,-3.8707,-3.8707,-3.8707,-3.8707,-3.8707,-3.8707,-3.8707,-3.8707,-3.8707,-3.8707,-3.8707]},{"header":{"parameterUnit":"m.s-1","parameterCategory":1,"la1":30.6,"la2":28.766,"lo1":-90.7593,"lo2":-88.6598,"dy":0.0162,"dx":0.0183,"nx":116,"ny":114,"refTime":"2023-08-24T06:00:00:Z","depth":0,"parameterNumber":3,"parameterNumberName":"V-component_of_WINDS"},"data":[0.0,0.0,0.0,0.0,0.0,0.0,0.0,0.0,0.0,0.0,0.0,0.0,0.0,0.0,0.0,0.0,0.0,0.0,0.0,0.0,0.0,0.0,0.0,0.0,0.0,0.0,0.0,0.0,0.0,0.0,0.0,0.0,0.0,0.0,0.0,0.0,0.0,0.0,0.0,0.0,0.0,0.0,0.0,0.0,0.0,0.0,0.0,0.0,0.0,0.0,0.0,0.0,0.0,0.0,0.0,0.0,0.0,0.0,0.0,0.0,0.0,0.0,0.0,0.0,0.0,0.0,0.0,0.0,0.0,0.0,0.0,0.0,0.0,0.0,0.0,0.0,0.0,0.0,0.0,0.0,0.0,0.0,0.0,0.0,0.0,0.0,0.0,0.0,0.0,0.0,0.0,0.0,0.0,0.0,0.0,0.0,0.0,0.0,0.0,0.0,0.0,0.0,0.0,0.0,0.0,0.0,0.0,0.0,0.0,0.0,0.0,0.0,0.0,0.0,0.0,0.0,0.0,0.0,0.0,0.0,0.0,0.0,0.0,0.0,0.0,0.0,0.0,0.0,0.0,0.0,0.0,0.0,0.0,0.0,0.0,0.0,0.0,0.0,0.0,0.0,0.0,0.0,0.0,0.0,0.0,0.0,0.0,0.0,0.0,0.0,0.0,0.0,0.0,0.0,0.0,0.0,0.0,0.0,0.0,0.0,0.0,0.0,0.0,0.0,0.0,0.0,0.0,0.0,0.0,0.0,0.0,0.0,0.0,0.0,0.0,0.0,0.0,0.0,0.0,0.0,0.0,0.0,0.0,0.0,0.0,0.0,0.0,0.0,0.0,0.0,0.0,0.0,0.0,0.0,0.0,0.0,0.0,0.0,0.0,0.0,0.0,0.0,0.0,0.0,0.0,0.0,0.0,0.0,0.0,0.0,0.0,0.0,0.0,0.0,0.0,0.0,0.0,0.0,0.0,0.0,0.0,0.0,0.0,0.0,0.0,0.0,0.0,0.0,0.0,0.0,0.0,0.0,0.0,0.0,0.0,0.0,0.0,0.0,0.0,0.0,0.0,0.0,0.0,0.0,0.0,0.0,0.0,0.0,0.0,0.0,0.0,0.0,0.0,0.0,0.0,0.0,0.0,0.0,0.0,0.0,0.0,0.0,0.0,0.0,0.0,0.0,0.0,0.0,0.0,0.0,0.0,0.0,0.0,0.0,0.0,0.0,0.0,0.0,0.0,0.0,0.0,0.0,0.0,0.0,0.0,0.0,0.0,0.0,0.0,0.0,0.0,0.0,0.0,0.0,0.0,0.0,0.0,0.0,0.0,0.0,0.0,0.0,0.0,0.0,0.0,0.0,0.0,0.0,0.0,0.0,0.0,0.0,0.0,0.0,0.0,0.0,0.0,0.0,0.0,0.0,0.0,0.0,0.0,0.0,0.0,0.0,0.0,0.0,0.0,0.0,0.0,0.0,0.0,0.0,0.0,0.0,0.0,0.0,0.0,0.0,0.0,0.0,0.0,0.0,0.0,0.0,0.0,0.0,0.0,0.0,0.0,0.0,0.0,0.0,0.0,0.0,0.0,0.0,0.0,0.0,0.0,0.0,0.0,0.0,0.0,0.0,0.0,0.0,0.0,0.0,0.0,0.0,0.0,0.0,0.0,0.0,0.0,0.0,0.0,0.0,0.0,0.0,0.0,0.0,0.0,0.0,0.0,0.0,0.0,0.0,0.0,0.0,0.0,0.0,0.0,0.0,0.0,0.0,0.0,0.0,0.0,0.0,0.0,0.0,0.0,0.0,0.0,0.0,0.0,0.0,0.0,0.0,0.0,0.0,0.0,0.0,0.0,0.0,0.0,0.0,0.0,0.0,0.0,0.0,0.0,0.0,0.0,0.0,0.0,0.0,0.0,0.0,0.0,0.0,0.0,0.0,0.0,0.0,0.0,0.0,0.0,0.0,0.0,0.0,0.0,0.0,0.0,0.0,0.0,0.0,0.0,0.0,0.0,0.0,0.0,0.0,0.0,0.0,0.0,0.0,0.0,0.0,0.0,0.0,0.0,0.0,0.0,0.0,0.0,0.0,0.0,0.0,0.0,0.0,0.0,0.0,0.0,0.0,0.0,0.0,0.0,0.0,0.0,0.0,0.0,0.0,0.0,0.0,0.0,0.0,0.0,0.0,0.0,0.0,0.0,0.0,0.0,0.0,0.0,0.0,0.0,0.0,0.0,0.0,0.0,0.0,0.0,0.0,0.0,0.0,0.0,0.0,0.0,0.0,0.0,0.0,0.0,0.0,0.0,0.0,0.0,0.0,0.0,0.0,0.0,0.0,0.0,0.0,0.0,0.0,0.0,0.0,0.0,0.0,0.0,0.0,0.0,0.0,0.0,0.0,0.0,0.0,0.0,0.0,0.0,0.0,0.0,0.0,0.0,0.0,0.0,0.0,0.0,0.0,0.0,0.0,0.0,0.0,0.0,0.0,0.0,0.0,0.0,0.0,0.0,0.0,0.0,0.0,0.0,0.0,0.0,0.0,0.0,0.0,0.0,0.0,0.0,0.0,0.0,0.0,0.0,0.0,0.0,0.0,0.0,0.0,0.0,0.0,0.0,0.0,0.0,0.0,0.0,0.0,0.0,0.0,0.0,0.0,0.0,0.0,0.0,0.0,0.0,0.0,0.0,0.0,0.0,0.0,0.0,0.0,0.0,0.0,0.0,0.0,0.0,0.0,0.0,0.0,0.0,0.0,0.0,0.0,0.0,0.0,0.0,0.0,0.0,0.0,0.0,0.0,0.0,0.0,0.0,0.0,0.0,0.0,0.0,0.0,0.0,0.0,0.0,0.0,0.0,0.0,0.0,0.0,0.0,0.0,0.0,0.0,0.0,0.0,0.0,0.0,0.0,0.0,0.0,0.0,0.0,0.0,0.0,0.0,0.0,0.0,0.0,0.0,0.0,0.0,0.0,0.0,0.0,0.0,0.0,0.0,0.0,0.0,0.0,0.0,0.0,0.0,0.0,0.0,0.0,0.0,0.0,0.0,0.0,0.0,0.0,0.0,0.0,0.0,0.0,0.0,0.0,0.0,0.0,0.0,0.0,0.0,0.0,0.0,0.0,0.0,0.0,0.0,0.0,0.0,0.0,0.0,0.0,0.0,0.0,0.0,0.0,0.0,0.0,0.0,0.0,0.0,0.0,0.0,0.0,0.0,0.0,0.0,0.0,0.0,0.0,0.0,0.0,0.0,0.0,0.0,0.0,0.0,0.0,0.0,0.0,0.0,0.0,0.0,0.0,0.0,0.0,0.0,0.0,0.0,0.0,0.0,0.0,0.0,0.0,0.0,0.0,0.0,0.0,0.0,0.0,0.0,0.0,0.0,0.0,0.0,0.0,0.0,0.0,0.0,0.0,0.0,0.0,0.0,0.0,0.0,0.0,0.0,0.0,0.0,0.0,0.0,0.0,0.0,0.0,0.0,0.0,0.0,0.0,0.0,0.0,0.0,0.0,0.0,0.0,0.0,0.0,0.0,0.0,0.0,0.0,0.0,0.0,0.0,0.0,0.0,0.0,0.0,0.0,0.0,0.0,0.0,0.0,0.0,0.0,0.0,0.0,0.0,0.0,0.0,0.0,0.0,0.0,0.0,0.0,0.0,0.0,0.0,0.0,0.0,0.0,0.0,0.0,0.0,0.0,0.0,0.0,0.0,0.0,0.0,0.0,0.0,0.0,0.0,0.0,0.0,0.0,0.0,0.0,0.0,0.0,0.0,0.0,0.0,0.0,0.0,0.0,0.0,0.0,0.0,0.0,0.0,0.0,0.0,0.0,0.0,0.0,0.0,0.0,0.0,0.0,0.0,0.0,0.0,0.0,0.0,0.0,0.0,0.0,0.0,0.0,0.0,0.0,0.0,0.0,0.0,0.0,0.0,0.0,0.0,0.0,0.0,0.0,0.0,0.0,0.0,0.0,0.0,0.0,0.0,0.0,0.0,0.0,0.0,0.0,0.0,0.0,0.0,0.0,0.0,0.0,0.0,0.0,0.0,0.0,0.0,0.0,0.0,0.0,0.0,0.0,0.0,0.0,0.0,0.0,0.0,0.0,0.0,0.0,0.0,0.0,0.0,0.0,0.0,0.0,0.0,0.0,0.0,0.0,0.0,0.0,0.0,0.0,0.0,0.0,0.0,0.0,0.0,0.0,0.0,0.0,0.0,0.0,0.0,0.0,0.0,0.0,0.0,0.0,0.0,0.0,0.0,0.0,0.0,0.0,0.0,0.0,0.0,0.0,0.0,0.0,0.0,0.0,0.0,0.0,0.0,0.0,0.0,0.0,0.0,0.0,0.0,0.0,0.0,0.0,0.0,0.0,0.0,0.0,0.0,0.0,0.0,0.0,0.0,0.0,0.0,0.0,0.0,0.0,0.0,0.0,0.0,0.0,0.0,0.0,0.0,0.0,0.0,0.0,0.0,0.0,0.0,0.0,0.0,0.0,0.0,0.0,0.0,0.0,0.0,0.0,0.0,0.0,0.0,0.0,0.0,0.0,0.0,0.0,0.0,0.0,0.0,0.0,0.0,0.0,0.0,0.0,0.0,0.0,0.0,0.0,0.0,0.0,0.0,0.0,0.0,0.0,0.0,0.0,0.0,0.0,0.0,0.0,0.0,0.0,0.0,0.0,0.0,0.0,0.0,0.0,0.0,0.0,0.0,0.0,0.0,0.0,0.0,0.0,0.0,0.0,0.0,0.0,0.0,0.0,0.0,0.0,0.0,0.0,0.0,0.0,0.0,0.0,0.0,0.0,0.0,0.0,0.0,0.0,0.0,0.0,0.0,0.0,0.0,0.0,0.0,0.0,0.0,0.0,0.0,0.0,0.0,0.0,0.0,0.0,0.0,0.0,0.0,0.0,0.0,0.0,0.0,0.0,0.0,0.0,0.0,0.0,0.0,0.0,0.0,0.0,0.0,0.0,0.0,0.0,0.0,0.0,0.0,0.0,0.0,0.0,0.0,0.0,0.0,0.0,0.0,0.0,0.0,0.0,0.0,0.0,0.0,0.0,0.0,0.0,0.0,0.0,0.0,0.0,0.0,0.0,0.0,0.0,0.0,0.0,0.0,0.0,0.0,0.0,0.0,0.0,0.0,0.0,0.0,0.0,0.0,0.0,0.0,0.0,0.0,0.0,0.0,0.0,0.0,0.0,0.0,0.0,0.0,0.0,0.0,0.0,0.0,0.0,0.0,0.0,0.0,0.0,0.0,0.0,0.0,0.0,0.0,0.0,0.0,0.0,0.0,0.0,0.0,0.0,0.0,0.0,0.0,0.0,0.0,0.0,0.0,0.0,0.0,0.0,0.0,0.0,0.0,0.0,0.0,0.0,0.0,0.0,0.0,0.0,0.0,0.0,0.0,0.0,0.0,0.0,0.0,0.0,0.0,0.0,0.0,0.0,0.0,0.0,0.0,0.0,0.0,0.0,0.0,0.0,0.0,0.0,0.0,0.0,0.0,0.0,0.0,0.0,0.0,0.0,0.0,0.0,0.0,0.0,0.0,0.0,0.0,0.0,0.0,0.0,0.0,0.0,0.0,0.0,0.0,0.0,0.0,0.0,0.0,0.0,0.0,0.0,0.0,0.0,0.0,0.0,0.0,0.0,0.0,0.0,0.0,0.0,0.0,0.0,0.0,0.0,0.0,0.0,0.0,0.0,0.0,0.0,0.0,0.0,0.0,0.0,0.0,0.0,0.0,0.0,0.0,0.0,0.0,0.0,0.0,0.0,0.0,0.0,0.0,0.0,0.0,0.0,0.0,0.0,0.0,0.0,0.0,0.0,0.0,0.0,0.0,0.0,0.0,0.0,0.0,0.0,0.0,0.0,0.0,0.0,0.0,0.0,0.0,0.0,0.0,0.0,0.0,0.0,0.0,0.0,0.0,0.0,0.0,0.0,0.0,0.0,0.0,0.0,0.0,0.0,0.0,0.0,0.0,0.0,0.0,0.0,0.0,0.0,0.0,0.0,0.0,0.0,0.0,0.0,0.0,0.0,0.0,0.0,0.0,0.0,0.0,0.0,0.0,0.0,0.0,0.0,0.0,0.0,0.0,0.0,0.0,0.0,0.0,-0.726,0.0,0.0,0.0,0.0,0.0,0.0,0.0,0.0,0.0,0.0,0.0,0.0,0.0,0.0,0.0,0.0,0.0,0.0,0.0,0.0,0.0,0.0,0.0,0.0,0.0,0.0,0.0,0.0,0.0,0.0,0.0,0.0,0.0,0.0,0.0,0.0,0.0,0.0,2.5731,2.5731,2.2964,1.7739,2.1869,2.4097,2.4815,0.0,0.0,0.0,0.0,0.0,0.0,0.0,0.0,0.0,0.0,0.0,0.0,0.0,0.0,0.0,0.0,0.0,0.0,0.0,0.0,0.0,0.0,0.0,0.0,0.0,0.0,0.0,0.0,0.0,0.0,0.0,0.0,0.0,0.0,0.0,0.0,0.0,0.0,0.0,0.0,0.0,0.0,0.0,0.0,0.0,0.0,0.0,0.0,0.0,0.0,0.0,0.0,0.0,0.0,0.0,0.0,0.0,0.0,0.0,0.0,0.0,0.0,0.0,0.0,0.0,0.0,0.0,0.0,0.0,0.0,0.0,-0.6924,0.0,0.0,0.0,0.0,0.0,0.0,0.0,0.0,0.0,0.0,0.0,0.0,0.0,0.0,0.0,0.0,0.0,0.0,0.0,0.0,0.0,0.0,0.0,0.0,0.0,0.0,0.0,0.0,0.0,0.0,0.0,0.0,0.0,0.0,0.0,2.4042,2.5045,2.5708,2.4699,2.1988,1.7645,1.989,2.1711,2.3076,2.4177,0.0,0.0,0.0,0.0,0.0,0.0,0.0,0.0,0.0,0.0,0.0,0.0,0.0,0.0,0.0,0.0,0.0,0.0,0.0,0.0,0.0,0.0,0.0,0.0,0.0,0.0,0.0,0.0,0.0,0.0,0.0,0.0,0.0,0.0,0.0,0.0,0.0,0.0,0.0,0.0,0.0,0.0,0.0,0.0,0.0,0.0,0.0,0.0,0.0,0.0,0.0,0.0,0.0,0.0,0.0,0.0,0.0,0.0,0.0,0.0,0.0,0.0,0.0,-0.894,-0.894,-0.894,-0.894,-0.894,-0.894,-0.894,-0.8045,-0.6589,0.0,0.0,0.0,0.0,0.0,0.0,0.0,0.0,0.0,0.0,0.0,0.0,0.0,0.0,0.0,0.0,0.0,0.0,0.0,0.0,0.0,0.0,0.9891,1.056,1.2057,1.3193,1.3974,0.0,0.0,0.0,0.0,0.0,0.0,2.1006,2.0991,2.2561,2.572,2.0961,1.8341,1.7565,1.8018,1.8846,2.0135,2.024,2.0202,1.9997,0.0,0.0,0.0,0.0,0.0,0.0,0.0,0.0,0.0,0.0,0.0,0.0,0.0,0.0,0.0,0.0,0.0,0.0,0.0,0.0,0.0,0.0,0.0,0.0,0.0,0.0,0.0,0.0,0.0,0.0,0.0,0.0,0.0,0.0,0.0,0.0,0.0,0.0,0.0,0.0,0.0,0.7943,0.5347,0.0,0.0,0.0,0.0,0.0,0.0,0.0,0.0,0.0,0.0,0.0,0.0,0.0,0.0,-0.8937,-0.894,-0.894,-0.894,-0.894,-0.894,-0.894,-0.894,-0.894,-0.894,-0.894,0.0,-0.67,-0.6478,0.0,0.0,0.0,0.0,0.0,0.0,0.0,0.0,0.0,0.0,0.0,0.0,0.0,0.0,0.0,0.0,0.0,0.0,0.0,0.0,0.0,0.8909,0.9395,1.0719,1.1346,1.198,1.271,0.0,0.0,0.0,0.0,1.9586,1.9252,1.8342,1.8949,2.12,1.8736,1.763,1.756,1.756,1.7357,1.6845,1.6293,1.6911,1.8275,1.6813,0.0,0.0,0.0,0.0,0.0,0.0,0.0,0.0,0.0,0.0,0.0,0.0,0.0,0.0,0.0,0.0,0.0,0.0,0.0,0.0,0.0,0.0,0.0,0.0,0.0,0.0,0.0,0.0,0.0,0.0,0.0,0.0,0.0,0.0,0.0,0.0,0.0,0.0,0.0,0.7482,0.5908,0.4668,0.4908,0.4697,0.0,0.0,0.0,0.0,0.0,0.0,0.0,0.0,0.0,-0.6589,-0.6702,-0.7371,-0.8937,-0.894,-0.894,-0.894,-0.894,-0.894,-0.894,-0.894,-0.894,-0.894,-0.894,-0.8491,-0.7817,-0.7035,-0.6366,-0.5586,0.0,0.0,0.0,0.0,0.0,-0.0112,0.0,0.0,0.0,0.0,0.0,0.0,0.0,0.0,0.0,0.0,0.0,0.0,0.77,0.8024,0.8425,0.9383,0.9809,1.0533,1.1865,1.4004,0.0,0.0,1.8028,1.824,1.7567,1.5724,1.5326,1.6509,1.7206,1.7555,1.7629,1.6804,1.5819,1.4652,1.3367,1.389,1.5777,1.4702,1.3654,1.2724,0.0,0.0,0.0,0.0,0.0,0.0,0.0,0.0,0.0,0.0,0.0,0.0,0.0,0.0,0.0,0.0,0.0,0.0,0.0,0.0,0.0,0.0,0.0,0.0,0.0,0.0,0.0,0.0,0.0,0.0,0.0,0.0,0.0,0.0,0.0,0.0,0.0,0.568,0.3671,0.4441,0.3791,0.3466,0.0,0.0,0.0,0.0,0.0,0.0,-0.2682,-0.2794,-0.4131,-0.7149,-0.726,-0.7817,-0.8937,-0.894,-0.894,-0.894,-0.894,-0.894,-0.894,-0.894,-0.894,-0.894,-0.894,-0.894,-0.8826,-0.7706,-0.726,-0.7146,-0.5472,-0.4467,-0.3682,-0.3458,-0.1895,-0.0223,0.0,0.0,0.0,0.0,0.0,0.0,0.0,0.0,0.0,0.0,0.0,0.5018,0.7733,0.8038,0.8038,0.8137,0.9271,1.0498,1.1808,1.321,1.4558,1.5832,1.594,1.594,1.594,1.3009,1.2091,1.3479,1.6237,1.7642,1.7543,1.482,1.3955,1.4548,1.2209,1.1319,1.1428,1.1319,1.1319,1.1324,1.2724,0.0,0.0,0.0,0.0,0.0,0.0,0.0,0.0,0.0,0.0,0.0,0.0,0.0,0.0,0.0,0.0,0.0,0.0,0.0,0.0,0.0,0.0,0.0,0.0,0.0,0.0,0.0,0.0,0.0,0.0,0.0,0.0,0.0,0.0,0.0,0.0,0.0,0.0,0.4118,0.2011,0.0,0.0,0.0,0.0,0.0,0.0,-0.1232,-0.4247,-0.4359,-0.5697,-0.8716,-0.8826,-0.8826,-0.894,-0.894,-0.894,-0.894,-0.894,-0.894,-0.894,-0.894,-0.894,-0.894,-0.894,-0.894,-0.8937,-0.8826,-0.8826,-0.8602,-0.6695,-0.5913,-0.5688,-0.479,-0.2557,-0.0777,0.0,0.0,0.0,0.0,0.0,0.0,0.0,0.0,0.0,0.0805,0.2907,0.5003,0.7733,0.8038,0.8038,0.8038,0.845,0.9236,1.0569,1.1085,1.231,1.4456,1.372,1.2987,1.2168,1.1382,1.0845,1.0429,1.5281,1.7587,1.746,1.2744,1.0634,1.0946,1.0085,0.9109,0.8355,0.9251,0.9699,0.9699,1.0241,1.0131,0.0,0.0,0.0,0.0,0.0,0.0,0.0,0.0,0.0,0.0,0.0,0.0,0.0,0.0,0.0,0.0,0.0,0.0,0.0,0.0,0.0,0.0,0.0,0.0,0.0,0.0,0.0,0.0,0.0,0.0,0.0,0.0,0.0,0.0,0.0,0.0,0.0,0.1671,0.0671,0.0,0.2012,0.0896,0.0,0.0,0.0,-0.0896,-0.2905,-0.3911,-0.5363,-0.7371,-0.838,-0.894,-0.894,-0.894,-0.894,-0.894,-0.894,-0.894,-0.894,-0.894,-0.894,-0.894,-0.894,-0.894,-0.894,-0.894,-0.894,-0.8826,-0.8152,-0.7814,-0.7814,-0.7473,-0.6684,-0.6008,0.0,0.0,0.0,0.0,0.0,0.0,0.0,0.0,0.0,0.0101,0.2204,0.439,0.7018,0.7733,0.8038,0.8038,0.8038,0.8556,0.99,0.9985,1.0988,1.3132,1.1925,1.0449,0.8862,0.963,0.9602,0.8779,1.2764,1.4685,1.4586,1.0687,0.8924,0.8882,0.8906,0.7805,0.6031,0.7035,0.7371,0.7482,0.7823,0.7937,0.7937,0.0,0.0,0.0,0.0,0.0,0.0,0.0,0.0,0.0,0.0,0.0,0.0,0.0,0.0,0.0,0.0,0.0,0.0,0.0,0.0,0.0,0.0,0.0,0.0,0.0,0.0,0.0,0.0,0.0,0.0,0.0,0.0,0.0,0.0,0.0,0.2235,0.0223,0.0,0.056,0.2012,0.0896,0.0,0.0,0.0,-0.0448,-0.1453,-0.2457,-0.4131,-0.6589,-0.7595,-0.838,-0.8937,-0.894,-0.894,-0.894,-0.894,-0.894,-0.894,-0.894,-0.894,-0.894,-0.894,-0.894,-0.894,-0.894,-0.894,-0.894,-0.894,-0.894,-0.894,-0.894,-0.894,-0.894,0.0,0.0,0.0,0.0,0.0,0.0,0.0,-1.0518,-0.6534,-0.2523,0.03,0.299,0.57,0.712,0.7939,0.8038,0.8038,0.8553,0.99,0.9912,1.0378,1.1639,1.0492,0.8584,0.5951,0.7446,0.8316,0.8471,0.8673,0.8893,0.8917,0.8849,0.8682,0.8634,0.8768,0.7182,0.447,0.436,0.4359,0.4472,0.5596,0.6049,0.6272,0.0,0.0,0.0,0.0,0.0,0.0,0.0,0.0,0.0,0.0,0.0,0.0,0.0,0.0,0.0,0.0,0.0,0.0,0.0,0.0,0.0,0.0,0.0,0.0,0.0,0.0,0.0,0.0,0.0,0.0,0.0,0.0,0.0,0.0,0.0,0.0,0.0,0.0,0.056,0.2012,0.0784,0.0,0.0,0.0,0.0,0.0,0.0,-0.2008,-0.6478,-0.67,-0.7371,-0.8937,-0.894,-0.894,-0.894,-0.894,-0.894,-0.894,-0.894,-0.894,-0.894,-0.894,-0.894,-0.894,-0.894,-0.894,-0.894,-0.894,-0.894,-0.894,-0.894,-0.894,-0.894,0.0,0.0,0.0,0.0,0.0,0.0,0.0,-1.048,-0.6517,-0.25,-0.0502,0.1907,0.5603,0.6307,0.6918,0.7939,0.8038,0.8144,0.8553,0.7627,0.6793,0.6246,0.6722,0.6275,0.4554,0.5116,0.5711,0.646,0.6705,0.7487,0.8816,0.6674,0.4561,0.2564,0.4698,0.5266,0.4365,0.2127,0.1232,0.1679,0.6281,0.8094,0.7639,0.0,0.0,0.0,0.0,0.0,0.0,0.0,0.0,0.0,0.0,0.0,0.0,0.0,0.0,0.0,0.0,0.0,0.0,0.0,0.0,0.0,0.0,0.0,0.0,0.0,0.0,0.0,0.0,0.0,0.0,0.0,0.0,0.0,0.0,0.0,0.0,0.0,0.0,0.0112,0.056,0.0224,0.0,0.0,0.0,0.0,0.0,0.0,-0.1563,-0.5027,-0.6144,-0.7371,-0.8937,-0.894,-0.894,-0.894,-0.894,-0.894,-0.894,-0.894,-0.894,-0.894,-0.894,-0.894,-0.894,-0.894,-0.894,-0.894,-0.894,-0.894,-0.894,-0.894,-0.894,-0.894,0.0,0.0,0.0,0.0,0.0,0.0,0.0,-1.2504,-0.8969,-0.4995,-0.2814,-0.0403,0.311,0.4005,0.4912,0.6242,0.6334,0.6329,0.6337,0.5567,0.4519,0.3262,0.3948,0.3671,0.2399,0.3002,0.3702,0.4257,0.4589,0.5369,0.6379,0.3792,0.1672,0.0112,0.1789,0.2575,0.2464,0.0784,0.0,0.0336,0.381,0.5158,0.4819,0.134,0.0,0.0223,0.2008,0.4786,0.7561,0.6352,0.0,0.0,0.0,0.0,0.0,0.0,0.0,0.0,0.0,0.0,0.0,0.0,0.0,0.0,0.0,0.0,0.0,0.0,0.0,0.0,0.0,0.0,0.0,0.0,0.0,0.0,0.0,0.0,0.0,0.0,0.0,0.0,0.0,0.0,0.0,0.0,0.0,0.0,0.0,0.0,-0.1342,-0.4359,-0.5361,-0.6813,-0.8826,-0.894,-0.894,-0.894,-0.894,-0.894,-0.894,-0.894,-0.894,0.0,-0.894,-0.894,-0.894,-0.894,-0.894,0.0,0.0,0.0,0.0,0.0,-0.894,-0.894,0.0,0.0,0.0,0.0,0.0,0.0,0.0,-1.5506,-1.2595,-0.8549,-0.5949,-0.3435,-0.0605,0.0905,0.2316,0.3664,0.3939,0.3924,0.374,0.3799,0.3223,0.1783,0.1819,0.1204,0.0,0.1234,0.1908,0.1908,0.2463,0.2684,0.2573,0.0782,0.0,0.0,0.0,0.0,0.0,0.0,0.0,0.0,0.0,0.0,0.0,0.0,0.0,0.0,0.0,0.2452,0.5577,0.5802,0.0,0.0,0.0,0.0,0.0,0.0,0.0,0.0,0.0,0.0,0.0,0.0,0.0,0.0,0.0,0.0,0.0,0.0,0.0,0.0,0.0,0.0,0.0,0.0,0.0,0.0,0.0,0.0,0.0,0.0,0.0,0.0,0.0,0.0,0.0,0.0,0.0,0.0,0.0,0.0,0.0,0.0,0.0,-0.5919,-0.8826,-0.894,-0.894,-0.894,-0.894,-0.894,-0.894,-0.894,-0.894,-0.894,-0.894,-0.894,-0.894,-0.894,-0.894,-0.894,-0.894,-0.894,-0.894,-0.894,-0.894,0.0,0.0,0.0,0.0,0.0,0.0,0.0,0.0,-1.623,-1.3647,-0.8832,-0.7746,-0.6022,-0.2397,-0.0703,0.0715,0.2108,0.3285,0.3547,0.2469,0.2408,0.1811,0.0434,0.0436,0.022,0.0,0.0224,0.0449,0.0449,0.056,0.056,0.056,0.0224,0.0,0.0,0.0,0.0,0.0,0.0,0.0,0.0,0.0,0.0,0.0,0.0,0.0,0.0,0.0,0.123,0.3128,0.4357,0.6026,0.7808,0.8927,0.9372,0.0,0.0,0.0,0.0,0.0,0.0,0.0,0.0,0.0,0.0,0.0,0.0,0.0,0.0,0.0,0.0,0.0,0.0,0.0,0.0,0.0,0.0,0.0,0.0,0.0,0.0,0.0,0.0,0.0,0.0,0.0,0.0,0.0,0.0,0.0,0.0,0.0,-0.436,-0.447,-0.5919,-0.8826,-0.894,-0.894,-0.894,0.0,0.0,-0.894,-0.894,-0.894,-0.894,-0.894,-0.894,-0.894,-0.894,-0.894,-0.894,-0.894,-0.894,-0.894,-0.894,-0.894,-0.894,0.0,0.0,0.0,0.0,0.0,0.0,0.0,-1.8371,-1.6034,-1.2953,-1.0769,-0.8489,-0.5805,-0.4232,-0.2459,-0.0437,0.1165,0.1672,0.1063,0.0966,0.0653,0.0,0.0,0.0,0.0,0.0,0.0,0.0,0.0,0.0,0.0,0.0,0.0,0.0,0.0,0.0,0.0,0.0,0.0,0.0,0.0,0.0,0.0,0.0,0.0,0.0,0.0,0.1455,0.3463,0.4247,0.5922,0.7931,0.8716,0.894,0.894,0.0,0.0,0.0,0.0,0.0,0.0,0.0,0.0,0.0,0.0,0.0,0.0,0.0,0.0,0.0,0.0,0.0,0.0,0.0,0.0,0.0,0.0,0.0,0.0,0.0,0.0,0.0,0.0,0.0,0.0,0.0,0.0,0.0,0.0,0.0,-0.1344,-0.436,-0.447,-0.5919,-0.8826,-0.894,-0.894,-0.894,-0.894,-0.894,-0.894,-0.894,-0.894,-0.894,-0.894,-0.894,-0.894,-0.894,-0.894,-0.894,-0.894,-0.894,-0.894,-0.894,-0.894,-0.894,0.0,0.0,0.0,0.0,0.0,0.0,0.0,0.0,-1.8479,-1.7029,-1.3773,-1.0895,-0.9265,-0.7805,-0.5784,-0.2893,-0.1526,-0.0865,-0.0874,-0.0878,-0.0884,-0.0895,-0.0896,-0.0896,-0.0896,-0.0896,-0.0672,-0.0448,-0.0672,-0.0672,-0.0448,-0.0785,-0.0897,-0.0897,-0.0897,-0.0897,-0.0896,-0.0896,-0.0896,-0.0896,-0.056,-0.0448,-0.0448,-0.0112,0.0,0.0,0.0,0.1791,0.4136,0.4359,0.6255,0.8491,0.8826,0.894,0.894,0.894,0.894,0.0,0.0,0.0,0.0,0.0,0.0,0.0,0.0,0.3019,0.2461,0.2461,0.112,0.0,0.0,0.0,0.0,0.0,0.0,0.0,0.0,0.0,0.0,0.0,0.0,0.0,0.0,0.0,0.0,0.0,0.0,0.0,0.0,0.0,-0.1344,-0.436,-0.447,-0.5919,-0.8826,-0.894,-0.894,-0.894,-0.894,-0.894,-0.894,-0.894,-0.894,-0.894,-0.894,-0.894,-0.894,-0.894,-0.894,-0.894,-0.894,-0.894,-0.894,-0.894,-0.894,-0.894,0.0,0.0,0.0,0.0,0.0,0.0,0.0,0.0,0.0,-1.7268,-1.5526,-1.3607,-1.1135,-0.9511,-0.7413,-0.455,-0.4069,-0.398,-0.4036,-0.398,-0.4016,-0.4024,-0.4024,-0.4024,-0.4024,-0.4024,-0.3353,-0.19,-0.3353,-0.3242,-0.2012,-0.3365,-0.4046,-0.4046,-0.4046,-0.4038,-0.4024,-0.4024,-0.4024,-0.3913,-0.246,-0.19,-0.1789,-0.0448,0.0,0.0,0.0,0.1008,0.2682,0.4023,0.5586,0.7149,0.8491,0.894,0.894,0.894,0.894,0.894,0.894,0.782,0.6366,0.4918,0.3463,0.2125,0.0,0.0448,0.0336,0.0336,0.0112,0.0,0.0,0.0,0.0,0.0,0.0,0.0,0.0,0.0,0.0,0.0,0.0,0.0,0.0,0.0,0.0,0.0,0.0,0.0,0.0,0.0,-0.1344,-0.436,-0.447,-0.5919,-0.8826,-0.894,-0.894,-0.894,-0.894,-0.894,-0.894,-0.894,-0.894,-0.894,-0.894,-0.894,-0.894,-0.894,-0.894,-0.894,-0.894,-0.894,-0.894,-0.894,-0.894,-0.894,0.0,0.0,0.0,0.0,0.0,0.0,0.0,0.0,0.0,0.0,-1.8326,-1.6087,-1.4894,-1.2041,-0.9573,-0.8399,-0.6728,-0.5764,-0.5722,-0.5,-0.447,-0.447,-0.447,-0.447,-0.447,-0.447,-0.4136,-0.3576,-0.4136,-0.4136,-0.3576,-0.4247,-0.4475,-0.4482,-0.4467,-0.4458,-0.4451,-0.4451,-0.4458,-0.447,-0.3799,-0.3576,-0.3353,-0.1902,-0.1231,-0.1119,-0.0336,0.0896,0.0,0.4023,0.5475,0.6924,0.8491,0.894,0.894,0.894,0.894,0.8491,0.6813,0.5919,0.4804,0.2461,0.1344,0.0784,0.0112,0.0,0.0,0.0,0.0,0.0,0.0,0.0,0.0,0.0,0.0,0.0,0.0,0.0,0.0,0.0,0.0,0.0,0.0,0.0,0.0,0.0,0.0,0.0,0.0,0.0,-0.1344,-0.436,-0.447,-0.5919,-0.8826,-0.894,-0.894,-0.894,-0.894,-0.894,-0.894,-0.894,-0.894,-0.894,-0.894,-0.894,-0.894,-0.894,-0.894,-0.894,-0.894,-0.894,-0.894,-0.894,-0.894,-0.894,0.0,0.0,0.0,0.0,0.0,0.0,0.0,0.0,0.0,0.0,0.0,-1.7777,-1.6963,-1.3758,-1.1594,-1.1679,-0.9286,-0.7868,-0.7868,-0.646,-0.5697,-0.5697,-0.5697,-0.5697,-0.5697,-0.5697,-0.5475,-0.5139,-0.5475,-0.5475,-0.5139,-0.5575,-0.5686,-0.5697,-0.5675,-0.5665,-0.5665,-0.5665,-0.5678,-0.5697,-0.5252,-0.5139,-0.4916,-0.3463,-0.2794,-0.2571,-0.0672,0.0896,0.2347,0.3463,0.4804,0.6366,0.782,0.8266,0.838,0.8826,0.8605,0.782,0.5697,0.447,0.3353,0.112,0.0336,0.0,0.0,0.0,0.0,0.0,0.0,0.0,0.0,0.0,0.0,0.0,0.0,0.0,0.0,0.0,0.0,0.0,0.0,0.0,0.0,0.0,0.0,0.0,0.0,0.0,0.0,-0.0336,-0.1791,-0.4472,-0.4916,-0.6366,-0.8826,-0.894,-0.894,-0.894,-0.894,-0.894,-0.894,-0.894,-0.894,-0.894,-0.894,-0.894,-0.894,-0.894,-0.894,-0.894,-0.894,-0.894,-0.894,-0.894,-0.894,-0.894,0.0,0.0,0.0,0.0,0.0,0.0,0.0,0.0,0.0,0.0,0.0,0.0,0.0,-1.409,-1.3259,-1.3244,-1.186,-1.0992,-1.0992,-0.9585,-0.8716,-0.8716,-0.8716,-0.8716,-0.8716,-0.8716,-0.8045,-0.6591,-0.8045,-0.8042,-0.67,-0.8042,-0.8716,-0.8716,-0.8712,-0.8712,-0.8712,-0.8712,-0.8712,-0.8602,-0.726,-0.6591,-0.6478,-0.5027,-0.447,-0.4024,-0.112,0.0896,0.2235,0.2235,0.324,0.4804,0.6255,0.6813,0.7035,0.8491,0.7931,0.6702,0.67,0.4467,0.2235,0.2124,0.1007,0.0,0.0,0.0,0.0,0.0,0.0,0.0,0.0,0.0,0.0,0.0,0.0,0.0,0.0,0.0,0.0,0.0,0.0,0.0,0.0,0.0,0.0,0.0,0.0,0.0,0.0,-0.1343,-0.2905,-0.447,-0.5919,-0.7371,-0.8937,-0.894,-0.894,-0.894,-0.894,-0.894,-0.894,-0.894,-0.894,-0.894,-0.894,-0.894,-0.894,-0.894,-0.894,-0.894,-0.894,-0.894,-0.894,-0.894,-0.894,-0.894,0.0,0.0,0.0,0.0,0.0,0.0,0.0,0.0,0.0,0.0,0.0,0.0,0.0,0.0,0.0,0.0,-1.6212,-1.4944,-1.4014,-1.2615,-1.1864,-1.1864,-1.1864,-1.1864,-1.1864,-1.0891,-1.0123,-0.9567,-0.9147,-0.8602,-0.8156,-0.8716,-0.894,-0.894,-0.894,-0.894,-0.894,-0.894,-0.894,-0.8826,-0.8377,-0.8156,-0.8042,-0.6478,-0.5919,-0.5697,0.0,-0.2011,-0.0447,0.1564,0.2571,0.324,0.4804,0.5919,0.6813,0.726,0.6366,0.5027,0.4021,0.3016,0.2012,0.1008,0.0336,0.0,0.0,0.0,0.0,0.0,0.0,0.0,0.0,0.0,0.0,0.0,0.0,0.0,0.0,0.0,0.0,0.0,0.0,0.0,0.0,0.0,0.0,0.0,0.0,0.0,0.0,-0.1454,-0.2905,-0.447,-0.5919,-0.7371,-0.8937,-0.894,-0.894,-0.894,-0.894,-0.894,-0.894,-0.894,-0.894,-0.894,-0.894,-0.894,-0.894,-0.894,-0.894,-0.894,-0.894,-0.894,-0.894,-0.894,-0.894,-0.894,0.0,0.0,0.0,0.0,0.0,0.0,0.0,0.0,0.0,0.0,0.0,0.0,0.0,0.0,0.0,0.0,0.0,-1.7167,-1.6243,-1.433,-1.3264,-1.3264,-1.3264,-1.3048,-1.2512,-1.1538,-1.0891,-1.0347,-0.9915,-0.9372,-0.8937,-1.0025,-1.0147,-0.9739,-0.9739,-0.9739,-0.9735,-0.968,-0.935,-0.8937,-0.9482,-0.9372,-0.8826,-0.782,-0.7485,0.0,-0.5808,-0.4357,-0.2681,-0.0223,0.1006,0.1678,0.3242,0.4691,0.5919,0.5919,0.4804,0.3465,0.2459,0.1789,0.1231,0.0224,0.0,0.0,0.0,0.0,0.0,0.0,0.0,0.0,0.0,0.0,0.0,0.0,0.0,0.0,0.0,0.0,0.0,0.0,0.0,0.0,0.0,0.0,0.0,0.0,0.0,0.0,0.0,-0.1902,-0.3463,-0.447,-0.6478,-0.7931,-0.8937,-0.894,-0.894,-0.894,-0.894,-0.894,-0.894,-0.894,-0.894,-0.894,-0.894,-0.894,-0.894,-0.894,-0.894,-0.894,-0.894,-0.894,-0.8937,-0.891,-0.8903,-0.8906,0.0,0.0,0.0,0.0,0.0,0.0,0.0,0.0,0.0,0.0,0.0,0.0,0.0,0.0,0.0,0.0,0.0,0.0,-1.7586,-1.5062,-1.3588,-1.348,-1.348,-1.2832,-1.1428,-1.1324,-1.0676,-0.9265,-1.0566,-1.0457,-0.9154,-1.1973,-1.2559,-1.1228,-1.1228,-1.1117,-1.1113,-1.1063,-1.0284,-0.9047,-1.0457,-1.0131,-0.894,-0.894,-0.894,-0.8716,-0.7371,-0.5919,-0.4359,-0.2794,-0.1231,0.0224,0.1789,0.3129,0.4247,0.4359,0.3242,0.2124,0.2124,0.1119,0.0,0.0,0.0,0.0,0.0,0.0,0.0,0.0,0.0,0.0,0.0,0.0,-0.0113,-0.0114,-0.023,-0.023,-0.023,-0.0115,-0.0114,0.0,0.0,0.0,0.0,0.0,0.0,-0.0224,0.0,-0.0112,-0.0112,-0.3019,-0.4582,-0.4582,-0.7371,-0.894,-0.894,-0.894,-0.894,-0.894,-0.894,-0.894,-0.894,-0.894,-0.894,-0.894,-0.894,-0.894,-0.894,-0.894,-0.894,-0.894,-0.894,-0.894,-0.893,-0.8862,-0.9061,-0.9297,0.0,0.0,0.0,0.0,0.0,0.0,0.0,0.0,0.0,0.0,0.0,0.0,0.0,0.0,0.0,0.0,0.0,0.0,-1.9191,-1.8352,-1.7522,-1.6499,-1.6499,-1.628,-1.5962,-1.4877,-1.4126,-1.3691,-1.3048,-1.2512,-1.2186,-1.2945,-1.3063,-1.2762,-1.2762,-1.2151,-1.1121,-1.1075,-1.0276,-0.8937,-0.9265,-0.9265,-0.894,-0.894,-0.894,-0.8826,-0.8491,-0.7371,-0.5697,-0.3128,-0.1231,0.0224,0.1789,0.1678,0.1343,0.2459,0.1678,0.056,0.056,0.0336,0.0,0.0,0.0,0.0,0.0,0.0,0.0,0.0,0.0,0.0,0.0,0.0,0.0,-0.1688,-0.2588,0.0,-0.3376,-0.2363,0.0,-0.1679,-0.0672,-0.0448,-0.1566,-0.1677,0.0,0.0,-0.2236,-0.1677,-0.1677,-0.4467,-0.6144,-0.6144,-0.7931,-0.894,-0.894,-0.894,-0.894,-0.894,-0.894,-0.894,-0.894,-0.894,-0.894,-0.894,-0.894,-0.894,-0.894,-0.894,-0.894,-0.894,-0.894,-0.894,-0.893,-0.8862,-1.1682,-1.5424,0.0,0.0,0.0,0.0,0.0,0.0,0.0,0.0,0.0,0.0,0.0,0.0,0.0,0.0,0.0,0.0,0.0,0.0,0.0,-1.993,-1.9013,-1.7687,-1.7582,-1.7259,-1.6605,-1.5849,-1.5097,-1.4449,-1.4341,-1.3911,-1.3372,-1.4561,-1.4798,-1.4191,-1.4207,-1.347,-1.2051,-1.2022,-1.0892,0.0,0.0,-0.9482,-0.894,-0.894,-0.894,-0.894,-0.894,-0.7931,-0.6366,-0.4021,-0.2683,-0.179,-0.1005,-0.1341,-0.179,-0.1005,-0.1341,-0.1791,-0.1119,-0.1455,-0.1679,-0.0336,-0.0448,-0.0784,-0.0112,0.0,0.0,0.0,0.0,0.0,0.0,-0.1231,-0.2241,0.0,0.0,0.0,-0.4516,-0.3726,-0.3153,0.0,-0.2461,0.0,-0.3129,-0.3242,-0.3576,0.0,-0.3688,-0.3242,-0.3242,-0.547,-0.6702,-0.6702,-0.8156,-0.894,-0.894,-0.894,-0.894,-0.894,-0.894,-0.894,-0.894,-0.894,-0.894,-0.894,0.0,-0.894,-0.894,-0.894,-0.894,-0.894,-0.894,-0.894,-0.8927,-0.8937,-1.2545,-1.7623,0.0,0.0,0.0,0.0,0.0,0.0,0.0,0.0,0.0,0.0,0.0,0.0,0.0,0.0,0.0,0.0,0.0,0.0,0.0,0.0,-1.9524,-1.8192,-1.7989,-1.7239,-1.5943,-1.5737,-1.5097,-1.3911,-1.5097,-1.5097,-1.3911,-1.6393,-1.6881,-1.5666,-1.5677,-1.4887,-1.3583,-1.3571,-1.2013,-0.9588,-1.0891,-1.0676,-0.9482,0.0,-0.9482,-0.9482,-0.9265,-0.8371,-0.703,-0.5584,-0.4804,-0.447,-0.447,-0.447,-0.447,-0.447,-0.447,-0.4247,-0.2905,-0.3463,-0.3913,-0.1232,-0.1566,-0.2125,-0.0672,-0.0336,-0.0224,0.0,0.0,0.0,0.0,-0.1343,-0.247,-0.2507,0.0,-0.5131,-0.5131,-0.4901,-0.4766,-0.4814,-0.4582,-0.4582,-0.4806,-0.4804,-0.4918,-0.5029,-0.5029,-0.5027,-0.4804,-0.6144,-0.7035,-0.7035,-0.8266,-0.894,-0.894,-0.894,-0.894,-0.894,-0.894,-0.894,-0.894,-0.894,-0.894,-0.894,0.0,0.0,-0.894,-0.894,-0.894,-0.894,-0.894,-0.8933,-0.891,-0.8889,-1.2567,-1.76,0.0,0.0,0.0,0.0,0.0,0.0,0.0,0.0,0.0,0.0,-2.8866,-2.7507,0.0,0.0,0.0,0.0,0.0,0.0,0.0,0.0,0.0,-2.1041,-1.9826,-1.9109,-1.8894,-1.7765,-1.7147,-1.6823,-1.7147,-1.7041,-1.6829,-1.7364,-1.7483,-1.7179,-1.7239,-1.6424,-1.5076,-1.5087,-1.4023,-1.2512,-1.2832,-1.2729,-1.2512,-1.2512,0.0,0.0,-1.1214,-1.0558,-1.0116,-0.8592,-0.6478,-0.447,-0.447,-0.447,-0.447,-0.447,-0.447,-0.447,-0.4136,-0.4247,-0.4359,-0.3801,-0.3913,-0.3688,-0.2125,-0.1789,-0.1454,-0.0224,0.0,0.0,0.0,-0.2238,-0.4139,-0.4151,-0.6393,-0.8187,-0.8187,-0.7065,-0.6274,0.0,-0.525,-0.5029,-0.6255,-0.6366,0.0,0.0,0.0,-0.7595,-0.6366,-0.7706,-0.8491,-0.8491,-0.8716,-0.894,-0.894,-0.894,-0.894,-0.894,-0.894,-0.894,-0.894,-0.894,-0.894,-0.894,0.0,0.0,-0.894,-0.894,-0.894,-0.894,-0.894,-0.8903,-0.8955,-0.8872,-1.2632,-1.7576,0.0,0.0,0.0,0.0,0.0,0.0,0.0,-3.3081,-3.2895,-3.2314,-3.0636,-2.8995,-2.7766,-2.7084,-2.639,0.0,0.0,0.0,0.0,0.0,0.0,0.0,-2.0333,-1.9627,-1.9627,-1.8297,-1.7582,-1.7582,0.0,-1.7582,-1.7582,-1.7582,-1.7582,-1.7582,-1.7582,-1.6753,-1.5358,-1.5364,-1.4556,-1.3264,-1.3264,-1.3264,-1.3264,0.0,0.0,0.0,-1.2512,-1.2186,-1.2186,-1.1433,-1.0206,-0.8766,-0.7246,-0.6813,-0.6813,-0.6813,-0.6813,-0.6591,-0.5808,-0.6253,-0.6366,-0.4918,-0.5029,-0.525,-0.3687,-0.3353,-0.3242,-0.2461,-0.2349,-0.2349,-0.2349,-0.4134,-0.5697,-0.5697,-0.7482,-0.894,-0.894,-0.8266,-0.782,-0.782,-0.726,-0.7038,-0.7817,-0.782,0.0,0.0,0.0,0.0,-0.7931,-0.8491,-0.894,-0.894,-0.894,-0.894,-0.894,-0.894,-0.894,-0.894,-0.894,-0.894,-0.894,-0.894,-0.894,-0.894,-0.894,0.0,-0.894,-0.894,-0.894,-0.894,-0.894,-0.8916,-0.9219,-1.2285,-1.5212,-1.7635,0.0,0.0,0.0,0.0,0.0,0.0,0.0,-3.3081,-3.3081,-3.3081,-3.2204,-3.0643,-2.8293,-2.7735,-2.722,0.0,0.0,0.0,0.0,0.0,0.0,0.0,0.0,-2.0436,-2.0436,0.0,0.0,-1.7996,-1.7793,0.0,0.0,0.0,0.0,0.0,-1.7582,-1.6983,-1.5921,-1.5921,-1.5229,0.0,0.0,-1.4234,0.0,0.0,0.0,0.0,0.0,-1.3804,-1.3696,-1.3372,-1.3264,-1.294,-1.0566,-0.9588,-0.9265,-0.9047,-0.894,-0.8602,-0.7485,-0.8042,-0.8377,-0.6031,-0.6366,-0.6813,-0.5363,-0.4918,-0.4918,-0.4582,-0.447,-0.447,-0.447,-0.5697,-0.6702,-0.6702,-0.7931,-0.894,-0.894,-0.894,-0.894,-0.894,-0.894,0.0,-0.894,-0.894,0.0,0.0,0.0,0.0,-0.894,-0.894,-0.894,-0.894,-0.894,-0.894,-0.894,-0.894,-0.894,-0.894,-0.894,-0.894,-0.894,-0.894,-0.894,-0.894,-0.894,0.0,0.0,-0.894,-0.894,-0.894,-0.894,-0.893,-0.9471,-1.4033,-1.6547,-1.7574,0.0,0.0,0.0,0.0,0.0,0.0,0.0,-3.3081,-3.3081,-3.3081,-3.3031,-3.2005,-2.9499,-2.8261,-2.7589,0.0,0.0,0.0,0.0,0.0,0.0,0.0,0.0,0.0,0.0,0.0,0.0,-1.942,-1.8199,0.0,0.0,0.0,0.0,0.0,0.0,-1.747,-1.7351,-1.7351,0.0,0.0,0.0,0.0,0.0,0.0,0.0,0.0,0.0,-1.5204,-1.4984,-1.3696,-1.3264,-1.3264,-1.2945,-1.1969,-1.0676,-0.9265,-0.894,-0.8826,-0.8716,-0.8826,-0.8826,-0.8602,-0.8602,-0.8266,-0.6813,-0.6478,-0.6142,-0.4804,-0.447,-0.447,-0.447,-0.5697,-0.6702,-0.6702,-0.7931,-0.894,-0.894,-0.894,-0.894,-0.894,0.0,0.0,-0.894,0.0,0.0,0.0,0.0,0.0,0.0,-0.894,-0.894,-0.894,-0.894,-0.894,-0.894,-0.894,-0.894,-0.894,-0.894,-0.894,-0.894,-0.894,-0.894,-0.894,0.0,0.0,0.0,-0.894,-0.894,-0.894,-0.894,-0.8899,-0.8948,-0.954,-1.3086,-1.7556,0.0,0.0,0.0,0.0,0.0,0.0,-3.3081,-3.3081,-3.3081,-3.3081,-3.3081,-3.2413,-3.0629,-2.9385,-2.8038,-2.6572,0.0,0.0,0.0,0.0,0.0,0.0,0.0,0.0,0.0,0.0,-1.9627,-1.9627,-1.8297,0.0,0.0,0.0,0.0,0.0,0.0,0.0,-1.7582,-1.7582,0.0,0.0,0.0,0.0,0.0,0.0,0.0,0.0,0.0,0.0,-1.6605,-1.6068,-1.5855,-1.5743,-1.4877,-1.4126,-1.3259,-1.0891,-1.0241,-1.0025,-0.9154,-0.894,-0.894,-0.894,-0.894,-0.8716,-0.8156,-0.8042,-0.7817,-0.726,-0.7149,-0.7149,-0.7149,-0.7595,-0.8042,-0.8042,-0.8491,-0.894,-0.894,-0.894,-0.894,-0.894,-0.894,0.0,0.0,0.0,0.0,0.0,0.0,0.0,0.0,-0.894,-0.894,-0.894,-0.894,-0.894,-0.894,-0.894,-0.894,-0.894,-0.894,-0.894,-0.894,-0.894,-0.894,-0.894,0.0,0.0,0.0,-0.894,-0.894,-0.894,-0.894,-0.8896,-0.8937,-0.8869,-1.2622,-1.7649,0.0,0.0,0.0,0.0,0.0,-3.3081,-3.3081,-3.3081,-3.2932,-3.261,-3.255,-3.191,-3.0281,-2.9385,-2.8038,-2.5927,-2.5742,0.0,0.0,0.0,0.0,0.0,0.0,0.0,0.0,0.0,-2.0231,-2.0231,-1.8506,-1.7582,0.0,0.0,0.0,0.0,0.0,0.0,0.0,0.0,0.0,0.0,0.0,0.0,0.0,0.0,0.0,0.0,0.0,0.0,0.0,0.0,0.0,-1.747,-1.6387,-1.6062,-1.5524,-1.262,-1.1755,-1.1538,-1.0457,-1.0241,-1.0241,-1.0241,-0.9915,-0.9588,-0.9588,-0.9265,-0.894,-0.894,-0.894,-0.894,-0.894,-0.894,-0.894,-0.894,-0.894,-0.894,-0.894,-0.894,-0.894,-0.894,0.0,0.0,0.0,0.0,0.0,0.0,0.0,0.0,0.0,-0.894,-0.894,-0.894,-0.894,-0.894,-0.894,-0.894,-0.894,-0.894,-0.894,-0.894,-0.894,-0.894,-0.894,-0.894,0.0,0.0,0.0,-0.894,-0.894,-0.894,-0.894,-0.8896,-0.9163,-1.0891,-1.4116,-1.7649,0.0,0.0,0.0,0.0,0.0,0.0,-3.3081,-3.3081,-3.2635,-3.1357,-3.1229,-3.0342,-2.7915,-2.7639,-2.7125,-2.583,-2.5742,0.0,0.0,0.0,0.0,0.0,0.0,0.0,0.0,0.0,-2.1651,-2.1651,-1.8909,-1.7582,-1.7582,-1.7582,-1.7582,-1.7582,0.0,0.0,0.0,0.0,0.0,0.0,0.0,0.0,0.0,0.0,0.0,0.0,0.0,0.0,0.0,0.0,0.0,0.0,0.0,-1.7582,-1.7041,-1.4126,-1.327,-1.3264,-1.3264,-1.3264,-1.3264,-1.3264,-1.2186,-1.1109,-1.1109,-0.9915,-0.894,-0.894,-0.894,-0.894,-0.894,-0.894,-0.894,-0.894,-0.894,-0.894,-0.894,-0.894,-0.894,0.0,0.0,0.0,0.0,0.0,0.0,0.0,0.0,0.0,0.0,-0.894,-0.894,-0.894,-0.894,-0.894,-0.894,-0.894,-0.894,-0.894,-0.894,-0.894,-0.894,-0.894,-0.894,0.0,0.0,0.0,0.0,-0.894,-0.894,-0.894,-0.894,-0.8896,-0.9614,-1.5412,-1.7561,-1.7649,0.0,0.0,0.0,0.0,0.0,0.0,0.0,-3.1761,-3.1344,-3.0162,-2.9963,-2.9333,-2.782,-2.7578,-2.7125,-2.583,-2.5742,0.0,0.0,0.0,0.0,0.0,0.0,0.0,0.0,0.0,-2.3076,-2.3076,-2.0333,-1.8991,-1.8948,-1.8073,-1.7582,-1.7582,-1.7582,0.0,0.0,0.0,0.0,0.0,0.0,0.0,0.0,0.0,0.0,0.0,0.0,0.0,0.0,0.0,0.0,0.0,0.0,0.0,0.0,-1.6499,-1.5524,-1.4556,-1.3588,-1.3264,-1.3053,-1.2077,-1.1433,-1.0891,-0.9809,-0.9265,-0.894,-0.894,-0.894,-0.894,-0.894,-0.894,-0.894,-0.894,-0.894,-0.894,-0.894,0.0,0.0,-0.894,0.0,0.0,0.0,0.0,0.0,0.0,0.0,0.0,0.0,-0.894,-0.894,-0.894,-0.894,-0.894,-0.894,-0.894,-0.894,-0.894,-0.894,-0.894,-0.894,-0.894,0.0,0.0,0.0,0.0,0.0,-0.894,-0.894,-0.894,-0.894,-0.8869,-0.9652,-1.5497,-1.7615,-1.7635,0.0,0.0,0.0,0.0,0.0,0.0,0.0,-3.1942,-3.1276,-2.9646,-2.9397,-2.8769,-2.711,-2.6896,-2.6572,-2.5732,-2.5742,0.0,0.0,0.0,0.0,0.0,0.0,0.0,0.0,-2.4402,-2.3692,-2.3692,-2.0923,-1.962,-1.9576,-1.8213,-1.7582,-1.7582,-1.7582,-1.7582,0.0,0.0,0.0,0.0,0.0,0.0,-1.7582,0.0,0.0,0.0,0.0,0.0,0.0,0.0,0.0,0.0,0.0,0.0,0.0,0.0,-1.6935,-1.6068,-1.5204,-1.4883,-1.4669,-1.3804,-1.3156,-1.229,-1.0891,-1.0131,-0.9592,-0.9047,-0.894,-0.894,-0.894,-0.894,-0.894,-0.894,-0.894,-0.894,-0.894,0.0,0.0,-0.894,0.0,0.0,0.0,0.0,0.0,0.0,0.0,0.0,0.0,0.0,-0.894,-0.894,-0.894,-0.894,-0.894,-0.894,-0.894,-0.894,-0.894,-0.894,-0.894,-0.894,0.0,0.0,0.0,0.0,0.0,-0.894,-0.894,-0.894,-0.894,-0.8855,-0.9622,-1.5485,-1.7589,-1.7582,0.0,0.0,0.0,0.0,0.0,0.0,0.0,-3.2931,-3.2022,-2.9624,-2.9227,-2.8273,-2.5946,-2.5742,-2.5742,-2.5742,0.0,0.0,0.0,0.0,0.0,0.0,0.0,0.0,-2.5742,-2.451,-2.3791,-2.3791,-2.1188,-1.9864,-1.9897,-1.8478,-1.7793,-1.7701,-1.7793,-1.7681,0.0,0.0,0.0,0.0,0.0,0.0,0.0,0.0,0.0,0.0,0.0,0.0,0.0,0.0,0.0,0.0,0.0,0.0,0.0,0.0,0.0,0.0,0.0,-1.7582,-1.7582,-1.7477,-1.6387,-1.499,-1.3588,-1.2186,0.0,-0.9482,-0.9265,-0.9265,-0.9265,-0.9265,-0.9265,-0.9265,-0.9265,-0.9265,0.0,-0.9265,0.0,0.0,0.0,0.0,0.0,0.0,0.0,0.0,0.0,0.0,0.0,0.0,-0.894,-0.894,-0.894,-0.894,-0.894,-0.894,-0.894,-0.894,-0.894,-0.894,-0.894,-0.894,0.0,0.0,0.0,0.0,0.0,-0.894,-0.894,-0.894,-0.894,-0.8855,-0.9622,-1.5485,-1.7589,-1.7582,0.0,0.0,0.0,0.0,0.0,0.0,0.0,0.0,0.0,0.0,-2.7411,-2.6344,-2.5742,-2.5742,-2.5742,0.0,0.0,0.0,0.0,0.0,0.0,0.0,0.0,0.0,-2.5742,-2.543,-2.5226,-2.5226,-2.3538,-2.275,-2.2685,-2.1391,-2.0117,-1.9132,-1.9131,-1.8561,0.0,0.0,0.0,0.0,0.0,0.0,0.0,0.0,0.0,0.0,-1.7582,-1.7582,0.0,0.0,0.0,0.0,0.0,0.0,0.0,0.0,-1.7582,-1.7582,-1.7582,0.0,-1.7364,-1.6174,-1.5636,-1.499,0.0,-1.3048,-1.2729,-1.2295,-1.2295,-1.2295,-1.2295,-1.2295,-1.2295,-1.2295,-1.2295,-1.2295,-1.2295,0.0,0.0,0.0,0.0,0.0,0.0,0.0,0.0,0.0,0.0,0.0,0.0,0.0,-0.894,-0.894,-0.894,-0.894,-0.894,-0.894,-0.894,-0.894,-0.894,-0.894,-0.894,-0.894,0.0,0.0,0.0,0.0,-0.894,-0.894,-0.894,-0.894,-0.894,-0.8855,-0.9622,-1.5485,-1.7589,-1.7582,0.0,0.0,0.0,0.0,0.0,0.0,0.0,0.0,0.0,0.0,0.0,0.0,0.0,0.0,0.0,0.0,0.0,0.0,0.0,0.0,0.0,0.0,0.0,-2.5742,-2.5742,-2.5742,-2.5742,-2.5742,-2.4337,-2.369,-2.3615,-2.1628,-2.0374,-1.9539,-1.8909,-1.8269,0.0,0.0,0.0,0.0,-1.7582,0.0,0.0,0.0,0.0,0.0,-1.7582,-1.7582,0.0,-1.7582,-1.7582,-1.7582,0.0,0.0,0.0,0.0,-1.7582,-1.7582,-1.7582,-1.7582,-1.7364,-1.6605,-1.6387,-1.6068,-1.4556,-1.4234,-1.4126,-1.348,-1.3264,-1.3264,-1.3264,-1.3264,-1.3264,-1.3264,-1.3264,0.0,0.0,0.0,0.0,0.0,0.0,0.0,0.0,0.0,0.0,0.0,0.0,0.0,0.0,0.0,-0.9588,-0.8937,-0.894,-0.894,-0.894,-0.894,-0.894,-0.894,-0.894,-0.894,-0.894,-0.894,0.0,0.0,0.0,0.0,-0.894,-0.894,-0.894,-0.894,-0.894,-0.8855,-0.9622,-1.5485,-1.7589,-1.7582,0.0,0.0,0.0,0.0,0.0,0.0,0.0,0.0,0.0,0.0,0.0,0.0,0.0,0.0,0.0,0.0,0.0,0.0,0.0,0.0,0.0,0.0,0.0,-2.5742,-2.5742,-2.5742,-2.5742,-2.5742,-2.4324,-2.3724,-2.3626,-2.1086,-1.9834,-1.9545,-1.8373,-1.7786,0.0,0.0,-1.7582,0.0,-1.7582,0.0,0.0,0.0,0.0,0.0,0.0,0.0,0.0,-1.7582,-1.7793,-1.7891,-1.7687,0.0,0.0,0.0,0.0,0.0,-1.7582,-1.7786,-1.7891,-1.7687,-1.7582,-1.7259,-1.6062,-1.5743,-1.5417,-1.4234,-1.3911,-1.3911,-1.3911,-1.3911,-1.3911,0.0,0.0,0.0,0.0,0.0,0.0,0.0,0.0,0.0,0.0,0.0,0.0,0.0,0.0,0.0,0.0,0.0,0.0,-0.9265,-0.9047,-0.894,-0.894,-0.894,-0.894,-0.894,-0.894,-0.894,-0.894,-0.894,-0.894,0.0,0.0,0.0,-0.894,-0.894,-0.894,-0.894,-0.894,-0.8862,-0.9637,-1.5491,-1.7602,-1.7609,0.0,0.0,0.0,0.0,0.0,0.0,0.0,0.0,0.0,0.0,0.0,0.0,0.0,0.0,0.0,0.0,0.0,0.0,0.0,0.0,0.0,-2.5742,-2.5742,-2.5742,-2.5742,-2.5742,-2.5742,-2.5742,-2.438,-2.3743,-2.3643,-2.2147,-2.0735,-1.9612,-1.942,-1.8708,-1.7582,-1.7582,-1.7582,-1.7582,-1.7582,0.0,0.0,0.0,0.0,0.0,0.0,0.0,0.0,-1.7582,-1.8297,-1.9117,-1.7996,0.0,0.0,0.0,0.0,0.0,-1.7582,-1.8401,-1.9013,-1.7891,-1.7582,-1.7582,-1.7259,-1.7252,-1.7147,-1.6935,-1.6929,-1.6929,-1.6929,-1.6929,-1.6929,0.0,0.0,0.0,0.0,0.0,0.0,0.0,0.0,0.0,0.0,0.0,0.0,0.0,0.0,0.0,0.0,0.0,0.0,-1.0781,-0.9588,-0.894,-0.894,-0.894,-0.894,-0.894,-0.894,-0.894,-0.894,-0.894,-0.894,0.0,0.0,-0.894,-0.894,-0.894,-0.894,-0.894,-0.894,-0.8889,-0.9599,-1.5412,-1.7554,-1.7623,0.0,0.0,0.0,0.0,0.0,0.0,0.0,0.0,0.0,0.0,0.0,0.0,0.0,0.0,0.0,0.0,0.0,0.0,0.0,0.0,0.0,-2.5742,-2.5742,-2.5742,-2.5742,-2.5742,-2.5742,-2.5742,-2.5045,-2.4796,-2.4786,-2.3427,-2.1632,-1.9627,-1.9627,-1.8812,-1.7582,-1.7582,-1.7582,-1.7582,0.0,0.0,0.0,0.0,0.0,0.0,0.0,0.0,0.0,0.0,-1.9213,-1.8506,-1.8603,0.0,0.0,0.0,0.0,0.0,-1.7786,-1.8094,-1.8401,-1.7786,-1.8094,-1.8506,-1.7793,-1.7582,-1.7582,-1.7582,-1.7582,-1.7582,-1.7582,-1.7582,-1.7582,-1.7582,0.0,0.0,0.0,0.0,0.0,0.0,0.0,0.0,0.0,0.0,0.0,0.0,0.0,0.0,0.0,0.0,0.0,0.0,-1.0688,-0.9926,-0.894,-0.894,-0.894,-0.894,-0.894,-0.894,-0.894,-0.894,-0.894,-0.894,0.0,-0.894,-0.894,-0.894,-0.894,-0.894,-0.894,-0.8896,-0.961,-1.5456,-1.7569,-1.7556,0.0,0.0,0.0,0.0,0.0,0.0,0.0,0.0,0.0,0.0,0.0,0.0,0.0,0.0,0.0,0.0,0.0,0.0,0.0,0.0,-2.5742,-2.5742,-2.5742,-2.5742,-2.5742,-2.5742,-2.5742,-2.5742,-2.5352,-2.5039,-2.4716,-2.3683,-2.2064,-2.0135,-2.0135,-1.9317,-1.8094,-1.8094,-1.8094,-1.8094,0.0,0.0,0.0,0.0,0.0,0.0,0.0,0.0,0.0,0.0,0.0,0.0,0.0,0.0,0.0,-1.8506,-1.8812,-1.9324,-1.7996,-1.8094,-1.8401,-1.7786,-1.8401,-1.8812,-1.7786,-1.7582,-1.7582,-1.7582,-1.7582,-1.7582,-1.7582,-1.7582,0.0,-1.7582,0.0,0.0,0.0,0.0,0.0,0.0,0.0,0.0,0.0,0.0,0.0,0.0,0.0,0.0,0.0,0.0,0.0,0.0,-1.1428,-1.0449,-0.8916,-0.893,-0.894,-0.894,-0.894,-0.894,-0.894,-0.894,-0.894,-0.894,-0.894,-0.894,-0.894,-0.894,-0.894,-0.894,-0.894,-0.8886,-0.9584,-1.5421,-1.7616,-1.7582,0.0,0.0,0.0,0.0,0.0,0.0,0.0,0.0,0.0,0.0,0.0,0.0,0.0,0.0,0.0,0.0,0.0,0.0,0.0,0.0,-2.5742,-2.5742,-2.5742,-2.5742,-2.5742,-2.5742,-2.5742,-2.5742,-2.4486,-2.3247,-2.1954,-2.1853,-2.1752,-2.155,-2.155,-2.0735,-1.942,-1.942,-1.942,-1.942,-1.942,0.0,0.0,0.0,0.0,0.0,0.0,0.0,0.0,0.0,0.0,0.0,0.0,0.0,-2.1245,-1.9826,-1.9524,-1.9324,-1.7996,-1.9413,-2.0837,-1.8192,-1.7687,-1.7687,-1.7582,-1.7582,-1.7582,-1.7582,-1.7582,-1.7582,-1.7582,-1.7582,-1.7582,-1.7582,0.0,0.0,0.0,0.0,0.0,0.0,0.0,0.0,0.0,0.0,0.0,0.0,0.0,0.0,0.0,0.0,0.0,0.0,0.0,-0.9061,-0.8951,-0.8906,-0.894,-0.894,-0.894,-0.894,-0.894,-0.894,-0.894,-0.894,-0.894,-0.894,-0.894,-0.894,-0.894,-0.894,-0.894,-0.8859,-0.963,-1.5479,-1.7582,-1.7582,0.0,0.0,0.0,0.0,0.0,0.0,0.0,0.0,0.0,0.0,0.0,0.0,0.0,0.0,0.0,0.0,0.0,0.0,0.0,-2.5742,-2.5742,-2.5742,-2.5742,-2.5742,-2.5742,-2.5742,-2.5742,-2.5742,-2.5156,-2.4646,-2.4196,-2.4196,-2.3791,-2.2876,-2.2055,-2.1448,-2.0845,-1.993,-2.0135,-2.0947,-2.0947,-2.1752,0.0,0.0,0.0,0.0,0.0,0.0,0.0,0.0,-2.3076,-2.1853,-2.2667,-2.2968,-2.2667,-2.1347,-2.1448,-2.1862,-2.0531,-2.0939,-2.1448,-2.0436,-2.0128,-1.9922,-1.9013,-1.8812,-1.9117,-1.9922,-1.942,-1.8603,-1.7786,0.0,-1.7582,0.0,0.0,0.0,0.0,0.0,0.0,0.0,0.0,0.0,0.0,0.0,0.0,0.0,0.0,0.0,0.0,0.0,0.0,0.0,0.0,-1.2591,-0.8948,-0.8862,-0.8896,-0.894,-0.894,-0.894,-0.894,-0.894,-0.894,-0.894,-0.894,-0.894,-0.894,-0.894,-0.894,-0.894,-0.894,-0.8855,-0.9622,-1.5485,-1.7589,-1.7582,0.0,0.0,0.0,0.0,0.0,0.0,0.0,0.0,0.0,0.0,0.0,0.0,0.0,0.0,0.0,0.0,0.0,0.0,-2.5742,-2.5742,-2.5742,-2.5742,-2.5742,-2.5742,-2.5742,-2.5742,-2.5742,-2.5742,-2.5742,-2.5742,-2.5732,-2.5226,-2.4815,-2.4304,-2.2976,-2.2366,-2.2265,-2.1253,-2.1456,-2.2366,-2.2366,-2.3176,0.0,0.0,0.0,0.0,0.0,0.0,0.0,0.0,-2.4205,-2.2567,-2.3899,-2.3998,-2.3484,-2.2567,-2.2968,-2.3384,-2.2055,-2.2055,-2.2257,-2.1853,-2.2055,-2.2064,-2.1151,-2.0538,-2.0538,-2.155,-2.0538,-1.9324,-1.8401,-1.7891,0.0,0.0,0.0,0.0,0.0,0.0,0.0,0.0,0.0,0.0,0.0,0.0,0.0,0.0,0.0,0.0,0.0,0.0,0.0,0.0,0.0,0.0,-1.1706,-0.9825,-0.8859,-0.8906,-0.893,-0.894,-0.894,-0.894,-0.894,-0.894,-0.894,-0.894,-0.894,-0.894,-0.894,-0.894,-0.894,-0.8855,-0.9622,-1.5485,-1.7589,-1.7582,0.0,0.0,0.0,0.0,0.0,0.0,0.0,0.0,0.0,0.0,0.0,0.0,0.0,0.0,0.0,0.0,0.0,0.0,-2.5742,-2.5742,-2.5742,-2.5742,-2.5742,-2.5742,-2.5742,-2.5742,-2.5742,-2.5742,-2.5742,-2.5742,-2.5635,-2.4304,-2.4402,-2.5635,-2.4304,-2.3692,-2.3692,-2.3692,-2.3692,-2.3692,-2.3692,-2.4501,-2.5742,0.0,0.0,0.0,0.0,0.0,0.0,0.0,-2.4815,-2.3998,-2.5323,-2.4815,-2.3692,-2.3692,-2.3692,-2.3384,-2.2055,-2.2667,-2.3384,-2.2055,-2.2767,-2.3692,-2.3692,-2.2667,-2.1752,-2.1752,-2.0641,-1.9627,-1.9627,-1.8499,0.0,0.0,0.0,0.0,0.0,0.0,0.0,0.0,0.0,0.0,0.0,0.0,0.0,0.0,0.0,0.0,0.0,0.0,0.0,0.0,0.0,0.0,-1.7562,-1.1819,-0.8944,-0.8944,-0.8903,-0.894,-0.894,-0.894,-0.894,-0.894,-0.894,-0.894,-0.894,-0.894,-0.894,-0.894,-0.894,-0.8855,-0.9622,-1.5485,-1.7589,-1.7589,0.0,0.0,0.0,0.0,0.0,0.0,0.0,0.0,0.0,0.0,0.0,0.0,0.0,0.0,0.0,0.0,0.0,0.0,-2.5742,-2.5742,-2.5742,-2.5742,-2.5742,-2.5742,-2.5742,-2.5742,-2.5742,-2.5742,-2.5742,-2.5742,-2.5732,-2.5323,-2.5323,-2.5635,-2.4304,-2.4196,-2.502,-2.4097,-2.4205,-2.5128,-2.5128,-2.5333,-2.5742,0.0,0.0,0.0,0.0,0.0,0.0,0.0,0.0,0.0,-2.5538,-2.543,-2.5128,-2.5128,-2.5128,-2.502,-2.4609,-2.4815,-2.502,-2.4609,-2.4815,-2.5128,-2.5128,-2.4097,-2.3076,-2.3076,-2.2776,-2.2165,-2.1245,-1.993,0.0,0.0,0.0,0.0,0.0,0.0,0.0,0.0,0.0,0.0,0.0,0.0,0.0,0.0,0.0,0.0,0.0,0.0,0.0,0.0,0.0,0.0,-1.7562,-1.5851,-1.293,-0.8944,-0.8855,-0.8893,-0.894,-0.894,-0.894,-0.894,-0.894,-0.894,-0.894,-0.894,-0.894,-0.894,-0.894,-0.8882,-0.9584,-1.5406,-1.7648,-1.7596,0.0,0.0,0.0,0.0,0.0,0.0,0.0,0.0,0.0,0.0,-2.8402,-2.6825,0.0,0.0,0.0,0.0,0.0,0.0,0.0,-2.721,-2.721,-2.721,-2.721,-2.6935,-2.6486,-2.5917,-2.5742,-2.5742,-2.5742,-2.5742,-2.5742,-2.5742,-2.5742,-2.5635,-2.4815,-2.4922,-2.5635,-2.4815,-2.4922,-2.5742,-2.5742,-2.5742,-2.5742,0.0,0.0,0.0,0.0,0.0,0.0,0.0,0.0,0.0,-2.5742,-2.5742,-2.5742,-2.5742,-2.5742,-2.5742,-2.5742,-2.5742,-2.5742,-2.5742,-2.5742,-2.5742,-2.5742,-2.5118,-2.4501,-2.4501,-2.4097,-2.3484,-2.2667,-2.1347,0.0,0.0,0.0,0.0,0.0,0.0,0.0,0.0,0.0,0.0,0.0,0.0,0.0,0.0,0.0,0.0,0.0,0.0,0.0,0.0,0.0,0.0,-1.7589,-1.7643,-1.5869,-1.2318,-1.0062,-0.8872,-0.894,-0.894,-0.894,-0.894,-0.894,-0.894,-0.894,-0.894,-0.894,-0.894,-0.894,-0.8879,-0.9349,-1.2827,-1.5612,-1.7583,0.0,0.0,0.0,0.0,0.0,0.0,0.0,0.0,0.0,0.0,-3.0226,-2.8591,0.0,0.0,0.0,0.0,0.0,0.0,0.0,0.0,-2.9407,-2.9407,-2.9315,-2.868,-2.7494,-2.6294,-2.5742,-2.5742,-2.5742,-2.5742,-2.5742,-2.5742,-2.5742,-2.5742,-2.5742,-2.5742,-2.5742,-2.5742,-2.5742,-2.5742,-2.5742,-2.5742,-2.5742,-2.5742,0.0,0.0,0.0,0.0,0.0,0.0,0.0,0.0,-2.5742,-2.5742,-2.5742,-2.5742,-2.5742,-2.5742,-2.5742,-2.5742,-2.5742,-2.5742,-2.5742,-2.5742,-2.5742,-2.5742,-2.5742,-2.5742,0.0,-2.389,-2.389,0.0,0.0,0.0,0.0,0.0,0.0,0.0,0.0,0.0,0.0,0.0,0.0,0.0,0.0,0.0,0.0,0.0,0.0,0.0,0.0,0.0,0.0,0.0,-1.7582,-1.7589,-1.7609,0.0,-1.1738,-0.8862,-0.893,-0.8937,-0.894,-0.894,-0.894,-0.894,-0.894,-0.894,-0.894,-0.894,-0.894,-0.8859,-0.896,-0.9511,-1.3021,-1.7595,0.0,0.0,0.0,0.0,0.0,0.0,0.0,0.0,0.0,0.0,0.0,0.0,0.0,0.0,0.0,0.0,0.0,0.0,0.0,0.0,-2.9407,-2.9407,-2.8495,-2.74,-2.611,-2.583,-2.5742,-2.5742,-2.5742,-2.5742,-2.5742,-2.5742,-2.5742,-2.5742,-2.5742,-2.5742,-2.5742,-2.5742,-2.5742,-2.5742,-2.5742,-2.5742,-2.5742,-2.5742,-2.5742,0.0,0.0,0.0,0.0,0.0,0.0,0.0,-2.5742,-2.5742,-2.5742,-2.5742,-2.5742,-2.5742,-2.5742,-2.5742,-2.5742,-2.5742,-2.5742,-2.5742,-2.5742,-2.5742,-2.5742,-2.5742,-2.543,-2.5226,-2.5226,0.0,0.0,0.0,0.0,0.0,0.0,0.0,0.0,0.0,0.0,0.0,0.0,0.0,0.0,0.0,0.0,0.0,0.0,0.0,0.0,0.0,0.0,-1.7582,-1.7582,-1.7609,-1.7583,0.0,-1.1644,-0.89,-0.8859,-0.8913,-0.894,-0.894,-0.894,-0.894,-0.894,-0.894,-0.894,-0.894,-0.894,-0.8886,-0.9479,-1.3996,-1.6574,-1.7616,0.0,0.0,0.0,0.0,0.0,0.0,0.0,0.0,0.0,0.0,0.0,0.0,0.0,0.0,0.0,0.0,0.0,0.0,0.0,0.0,-3.1146,-3.1146,-2.9954,-2.9039,-2.8391,-2.721,-2.6572,-2.6572,-2.6014,-2.5742,-2.5742,-2.5742,-2.5742,-2.5742,-2.5742,-2.5742,-2.5742,-2.5742,-2.5742,-2.5742,-2.5742,-2.5742,-2.5742,-2.5742,-2.5742,-2.5742,-2.5742,0.0,0.0,0.0,0.0,0.0,0.0,0.0,-2.5742,-2.5742,-2.5742,-2.5742,-2.5742,-2.5742,-2.5742,-2.5742,-2.5742,-2.5742,-2.5742,-2.5742,-2.5742,-2.5742,-2.5742,-2.5742,0.0,0.0,0.0,0.0,0.0,0.0,0.0,0.0,0.0,0.0,0.0,0.0,0.0,0.0,0.0,0.0,0.0,0.0,0.0,0.0,0.0,0.0,-1.7891,-1.7582,-1.7582,-1.7582,-1.7649,-1.7556,-1.4545,-1.1549,-0.8948,-0.8906,-0.894,-0.894,-0.894,-0.894,-0.894,-0.894,-0.894,-0.894,-0.894,-0.8896,-0.9614,-1.5418,-1.7567,-1.7649,0.0,0.0,0.0,0.0,0.0,0.0,0.0,0.0,0.0,0.0,0.0,0.0,0.0,0.0,0.0,0.0,0.0,0.0,0.0,0.0,0.0,-3.2797,-3.1777,-3.1122,-3.0855,-2.8958,-2.7955,-2.7955,-2.6849,-2.6197,-2.6014,-2.583,-2.5742,-2.5742,-2.5742,-2.5742,-2.5742,-2.5742,-2.5742,-2.5742,-2.5742,-2.5742,-2.5742,-2.5742,-2.5742,-2.5742,-2.5742,-2.5742,-2.5742,-2.5742,0.0,0.0,0.0,0.0,-2.5742,-2.5742,-2.5742,-2.5742,-2.5742,-2.5742,-2.5742,-2.5742,-2.5742,-2.5742,-2.5742,-2.5742,-2.5742,-2.5742,-2.5742,0.0,0.0,0.0,0.0,0.0,0.0,0.0,0.0,0.0,0.0,0.0,0.0,0.0,0.0,0.0,0.0,0.0,0.0,0.0,0.0,0.0,-1.9826,-1.9627,-1.8304,-1.7582,-1.7582,-1.7582,-1.7635,-1.7636,-1.7549,-1.507,-1.0401,-0.9343,-0.8927,-0.894,-0.894,-0.894,-0.894,-0.894,-0.894,-0.894,-0.894,-0.8889,-0.9486,-1.4342,-1.6706,-1.7623,0.0,0.0,0.0,0.0,0.0,0.0,0.0,0.0,0.0,0.0,-3.3081,0.0,0.0,0.0,0.0,0.0,0.0,0.0,-3.3081,0.0,0.0,-3.15,-3.1311,-3.0676,-2.9681,-2.9315,-2.9131,-2.9131,-2.8947,-2.8402,-2.7315,-2.6197,-2.5742,-2.5742,-2.5742,-2.5742,-2.5742,-2.5742,-2.5742,-2.5742,-2.5742,-2.5742,-2.5742,-2.5742,-2.5742,-2.5742,-2.5742,-2.5742,-2.5742,-2.5742,-2.5742,0.0,0.0,0.0,-2.5742,-2.5742,-2.5742,-2.5742,-2.5742,-2.5742,-2.5742,-2.5742,-2.5742,-2.5742,-2.5742,-2.5742,-2.5742,0.0,0.0,0.0,0.0,0.0,0.0,0.0,0.0,0.0,0.0,0.0,0.0,0.0,0.0,0.0,0.0,0.0,0.0,0.0,0.0,0.0,0.0,-2.1541,-2.0837,-1.9627,-1.8304,-1.7582,-1.7582,-1.7582,-1.7589,-1.7609,-1.7616,-1.7161,-1.6235,-1.1197,-0.8882,-0.894,-0.894,-0.894,-0.894,-0.894,-0.894,-0.894,-0.894,-0.8859,-0.8963,-0.9738,-1.325,-1.7602,0.0,0.0,0.0,0.0,0.0,0.0,0.0,0.0,0.0,0.0,0.0,-3.3081,0.0,0.0,0.0,-3.3081,-3.3081,-3.3081,-3.3081,-3.3081,-3.2884,-3.2326,-3.2239,-3.2052,-3.1512,-3.0765,-3.0406,-3.0406,-2.9772,-2.9131,-2.8588,-2.7305,-2.638,-2.5742,-2.5742,-2.5742,-2.5742,-2.5742,-2.5742,-2.5742,-2.5742,-2.5742,-2.5742,-2.5742,-2.5742,-2.5742,-2.5742,-2.5742,-2.5742,-2.5742,-2.5742,-2.5742,-2.5742,0.0,0.0,0.0,-2.5742,-2.5742,-2.5742,-2.5742,-2.5742,-2.5742,-2.5742,-2.5742,-2.5742,-2.5742,-2.5742,0.0,0.0,0.0,0.0,0.0,0.0,0.0,0.0,0.0,0.0,0.0,0.0,0.0,0.0,0.0,0.0,0.0,0.0,0.0,0.0,0.0,-2.3998,-2.2567,-2.1448,-2.0845,-1.8708,-1.7582,-1.7582,-1.7582,-1.7582,-1.7582,-1.7642,-1.7629,-1.7528,-1.4968,-1.195,-0.8882,-0.892,-0.894,-0.894,-0.894,-0.894,-0.8937,-0.8896,-0.8955,-0.9338,-1.2529,-1.5429,-1.7569,0.0,0.0,0.0,0.0,0.0,0.0,0.0,0.0,0.0,0.0,0.0,0.0,0.0,0.0,0.0,0.0,-3.324,-3.3081,-3.3081,-3.3081,-3.3081,-3.3081,-3.3081,-3.3081,-3.3081,-3.2152,-3.1677,-3.1677,-3.0777,-3.0135,-2.9863,-2.8947,-2.7851,-2.6562,-2.6014,-2.5742,-2.5742,-2.5742,-2.5742,-2.5732,-2.6014,-2.6197,-2.6197,-2.6562,-2.6658,-2.6562,-2.6294,-2.6197,-2.61,-2.583,-2.5742,-2.5742,-2.5742,-2.5742,0.0,0.0,0.0,-2.5742,-2.5742,-2.5742,-2.5742,-2.5742,-2.5742,-2.5742,0.0,0.0,-2.5742,0.0,0.0,0.0,0.0,0.0,0.0,0.0,0.0,0.0,0.0,0.0,0.0,0.0,0.0,0.0,0.0,0.0,0.0,0.0,0.0,0.0,-2.5742,-2.3484,-2.2055,-2.1752,-1.9723,-1.8297,-1.7582,-1.7582,-1.7582,-1.7582,-1.7582,-1.7635,-1.7623,-1.7649,-1.5279,-1.1046,-0.9556,-0.8913,-0.8913,-0.8933,-0.894,-0.8933,-0.8862,-0.984,-1.1624,-1.5976,-1.7649,-1.7603,0.0,0.0,0.0,0.0,0.0,0.0,0.0,0.0,0.0,0.0,0.0,0.0,-3.4987,-3.3887,-3.3471,-3.4511,-3.3713,-3.3081,-3.3081,-3.3081,-3.3081,-3.3081,-3.3081,0.0,-3.3081,-3.3068,-3.2982,-3.2982,-3.2982,-3.2326,-3.1122,-3.1033,-3.0406,-2.9131,-2.6744,-2.5742,-2.5742,-2.5742,-2.5742,-2.583,-2.704,-2.7494,-2.7589,-2.8773,-2.9223,-2.9039,-2.7955,-2.7494,-2.7315,-2.611,-2.5742,-2.5742,-2.5742,-2.5742,-2.5742,0.0,0.0,0.0,-2.5742,-2.5742,-2.5742,-2.5742,-2.5742,-2.5742,0.0,0.0,0.0,0.0,0.0,0.0,0.0,0.0,0.0,0.0,0.0,0.0,0.0,0.0,0.0,0.0,0.0,0.0,0.0,0.0,0.0,0.0,0.0,0.0,-2.5742,-2.4402,-2.2976,-2.1752,-2.1541,-2.0231,-1.7582,-1.7582,-1.7582,-1.7582,-1.7582,-1.7589,-1.7595,-1.7616,-1.7443,-1.687,-1.1268,-0.8951,-0.8845,-0.891,-0.894,-0.8933,-0.8862,-1.2318,-1.7162,-1.7495,-1.7589,-1.7589,0.0,0.0,0.0,0.0,0.0,0.0,0.0,0.0,0.0,0.0,0.0,0.0,0.0,-3.5683,-3.4966,-3.4746,-3.3713,-3.3081,-3.3081,-3.3081,-3.3081,-3.3081,-3.3081,-3.3081,-3.3081,-3.3081,-3.3081,-3.3081,-3.3081,-3.2884,-3.2426,-3.1589,-3.0944,-3.0496,-2.8855,-2.8028,-2.8028,-2.721,-2.74,-2.8028,-2.7767,-2.8038,-2.8773,-2.9223,-2.9407,-2.9315,-2.8947,-2.8226,-2.7494,-2.703,-2.639,-2.5742,-2.5742,-2.5742,-2.5742,-2.5742,-2.5742,-2.5742,-2.5742,-2.5742,-2.5742,-2.5742,-2.5742,-2.5742,-2.5742,-2.5742,0.0,0.0,0.0,0.0,0.0,0.0,0.0,0.0,0.0,0.0,0.0,0.0,0.0,0.0,0.0,0.0,0.0,0.0,0.0,0.0,0.0,0.0,-2.5742,-2.4402,-2.3484,-2.2976,-2.2156,-2.0837,-1.8909,-1.7996,-1.7582,-1.7582,-1.7582,-1.7582,-1.7582,-1.7629,-1.7649,-1.7437,-1.5363,-1.237,-0.8948,-0.8862,-0.8872,-0.8866,-0.8907,-1.245,-1.7615,-1.7589,-1.7622,-1.7582,0.0,0.0,0.0,0.0,0.0,0.0,0.0,0.0,0.0,-3.7501,0.0,0.0,0.0,0.0,-3.5894,-3.5278,-3.4568,-3.4024,-3.3628,-3.3641,-3.3471,-3.3167,-3.3081,-3.3081,-3.3081,-3.3081,-3.3081,-3.3081,-3.3081,-3.3081,-3.3068,-3.2239,-3.1865,-3.1777,-3.0956,-3.0135,-2.9315,-2.8495,-2.868,-2.9407,-2.8947,-2.9315,-3.0045,-3.0508,-3.0598,-3.0598,-3.0135,-2.9498,-2.8773,-2.8319,-2.7673,-2.6839,-2.6476,-2.6014,-2.5742,-2.5742,-2.5742,-2.5742,-2.5742,-2.5742,-2.5742,-2.5742,-2.5742,-2.5742,-2.5742,0.0,0.0,0.0,0.0,0.0,0.0,0.0,0.0,0.0,0.0,0.0,0.0,0.0,0.0,0.0,0.0,0.0,0.0,0.0,0.0,0.0,0.0,0.0,-2.5742,-2.4815,-2.4402,-2.4402,-2.2667,-2.1245,-2.0333,-1.8909,-1.8094,-1.7582,-1.7582,-1.7582,-1.7582,-1.7582,-1.7582,-1.7589,-1.7563,-1.5363,-1.1702,-0.9689,-0.891,-0.9128,-1.1078,-1.4207,-1.7649,-1.7629,-1.7582,-1.7582,0.0,0.0,0.0,0.0,0.0,0.0,0.0,0.0,-3.9017,-3.7994,0.0,0.0,0.0,0.0,0.0,-3.629,-3.6198,-3.5814,-3.4815,-3.4746,-3.4275,-3.3154,-3.3154,-3.3154,-3.3081,-3.3081,-3.3081,-3.3081,-3.3081,-3.3081,-3.3081,-3.3081,-3.3081,-3.3081,-3.3081,-3.1789,-2.9498,-2.9498,-2.9498,-2.959,-3.0765,-3.1211,-3.14,-3.2612,-3.3081,0.0,-3.1689,-3.1223,0.0,-2.9863,0.0,0.0,-2.8038,-2.6754,-2.5732,-2.5732,-2.5732,-2.5742,0.0,0.0,0.0,-2.5742,0.0,0.0,-2.5742,0.0,0.0,0.0,0.0,0.0,0.0,0.0,0.0,0.0,0.0,0.0,0.0,0.0,0.0,0.0,0.0,0.0,0.0,0.0,0.0,0.0,0.0,-2.5742,-2.5742,-2.5742,-2.5742,-2.5742,-2.3176,-2.1752,-2.1752,-2.0333,-1.8916,-1.7582,-1.7582,-1.7582,-1.7582,-1.7582,-1.7582,-1.7582,-1.7582,-1.7655,-1.7197,-1.15,-0.9169,-0.9723,-1.5351,-1.7556,-1.7649,-1.7629,-1.7582,-1.7582,0.0,0.0,0.0,0.0,0.0,-3.9424,-3.9424,-3.9424,-3.9265,0.0,0.0,0.0,-3.8943,-3.7979,-3.7343,-3.7343,-3.6682,-3.6053,-3.5814,-3.5814,-3.5359,-3.4275,-3.4275,-3.3869,-3.3167,-3.3081,-3.3081,-3.3081,-3.3081,-3.3081,-3.3081,-3.3081,-3.3081,-3.3081,-3.3081,-3.2711,-3.2064,-3.1134,-3.1235,-3.2064,-3.1412,-3.1777,0.0,0.0,0.0,0.0,0.0,-3.1952,-3.1134,0.0,-3.0135,-2.9315,-2.9039,-2.8038,-2.703,-2.703,-2.639,-2.5742,-2.5742,0.0,0.0,0.0,0.0,0.0,0.0,0.0,0.0,0.0,0.0,0.0,0.0,0.0,0.0,0.0,0.0,0.0,0.0,0.0,0.0,0.0,0.0,0.0,0.0,0.0,0.0,0.0,-2.5742,-2.5742,-2.5742,-2.5742,-2.5742,-2.5742,-2.3998,-2.2667,-2.1752,-2.0333,-1.8916,-1.7582,-1.7582,-1.7582,-1.7582,-1.7582,-1.7582,-1.7582,-1.7582,-1.7602,-1.7417,-1.5885,-1.5232,-1.5345,-1.697,-1.7609,-1.7629,-1.7595,-1.7582,-1.7582,0.0,0.0,0.0,0.0,0.0,-3.9424,-3.9424,-3.9424,-3.9424,0.0,0.0,0.0,-3.9424,-3.8855,-3.8472,-3.8472,-3.789,-3.7329,-3.693,-3.6852,-3.6383,-3.5359,-3.5359,-3.4815,-3.3797,-3.3797,-3.3556,-3.3081,-3.3081,-3.3081,-3.3081,-3.3081,-3.3081,-3.3081,-3.3081,-3.3081,-3.3068,-3.2326,0.0,0.0,-3.2326,0.0,0.0,-3.3081,-3.3081,0.0,0.0,0.0,-3.1965,-3.1965,-3.1134,0.0,0.0,-2.9315,-2.8226,-2.7767,-2.703,-2.639,-2.583,-2.5742,-2.5742,-2.5742,0.0,0.0,-2.5742,-2.5742,0.0,0.0,0.0,0.0,0.0,0.0,0.0,0.0,0.0,0.0,0.0,0.0,0.0,0.0,0.0,0.0,0.0,0.0,0.0,0.0,-2.5742,-2.5742,-2.5742,-2.5742,-2.5742,-2.5742,-2.4402,-2.3076,-2.1744,-2.0333,-1.8916,-1.7582,-1.7582,-1.7582,-1.7582,-1.7582,-1.7582,-1.7582,-1.7582,-1.7582,-1.7589,-1.7556,-1.7589,-1.7589,-1.7589,-1.7649,-1.7582,-1.7582,-1.7582,-1.7582,0.0,0.0,-3.9424,-3.9424,-3.9424,-3.9424,-3.9424,-3.9424,-3.9424,0.0,-3.9424,-3.9424,-3.9424,-3.9424,-3.9424,-3.9424,-3.9424,-3.9017,-3.8069,-3.7994,-3.7496,-3.6448,-3.6369,-3.5828,-3.4746,-3.4664,-3.4191,-3.3081,-3.3081,-3.3081,-3.3081,-3.3081,-3.3081,-3.3081,-3.3081,0.0,-3.3081,0.0,0.0,-3.3081,-3.3081,-3.3081,0.0,0.0,-3.3081,-3.3081,-3.3081,-3.3081,-3.3081,-3.3081,-3.2326,0.0,0.0,0.0,0.0,-2.8319,-2.7767,-2.7315,-2.6197,-2.583,-2.5742,-2.5742,0.0,0.0,-2.5742,-2.5742,0.0,0.0,0.0,0.0,0.0,0.0,0.0,0.0,0.0,0.0,0.0,0.0,0.0,0.0,0.0,0.0,0.0,0.0,-2.5742,-2.5742,-2.5742,-2.5742,-2.5742,-2.5742,-2.5742,-2.5742,-2.4402,-2.3076,-2.1744,-2.0333,-1.8916,-1.7582,-1.7582,-1.7582,-1.7582,-1.7582,-1.7582,-1.7582,-1.7582,-1.7582,-1.7582,-1.7582,-1.7582,-1.7582,-1.7582,-1.7582,-1.7582,-1.7582,-1.7582,-1.7582,-3.9424,-3.9424,-3.9424,-3.9424,-3.9424,-3.9424,-3.9424,-3.9424,-3.9424,-3.9424,-3.9424,-3.9424,-3.9424,-3.9424,-3.9424,-3.9424,-3.9424,-3.9337,-3.9104,-3.9104,-3.862,-3.751,-3.751,-3.6632,-3.4746,-3.4664,-3.4191,-3.3081,-3.3081,-3.3081,-3.3081,-3.3081,-3.3081,-3.3081,-3.3081,-3.3081,-3.3081,0.0,0.0,-3.3081,-3.3081,0.0,-3.3081,-3.3081,-3.3081,-3.3081,-3.3081,-3.3081,-3.3081,-3.3081,-3.2884,-3.2698,0.0,0.0,0.0,-3.0586,0.0,-2.7589,-2.7315,-2.6476,-2.5742,0.0,0.0,0.0,-2.5742,-2.5742,-2.5742,0.0,0.0,0.0,0.0,0.0,0.0,0.0,0.0,0.0,0.0,0.0,0.0,0.0,0.0,0.0,0.0,0.0,-2.5742,-2.5742,-2.5742,-2.5742,-2.5742,-2.5742,-2.5742,-2.5742,-2.4402,-2.3076,-2.1744,-2.0333,-1.8916,-1.7582,-1.7582,-1.7582,-1.7582,-1.7582,-1.7582,-1.7582,-1.7582,-1.7582,-1.7582,-1.7582,-1.7582,-1.7582,-1.7582,-1.7582,-1.7582,-1.7582,-1.7582,-1.7582,-3.9424,-3.9424,-3.9424,-3.9424,-3.9424,-3.9424,-3.9424,-3.9424,-3.9424,-3.9424,-3.9424,-3.9424,-3.9424,-3.9424,-3.9424,-3.9424,-3.9424,-3.9424,-3.9424,-3.9424,-3.9177,-3.862,-3.862,-3.7829,-3.6253,-3.6253,-3.5682,-3.4637,-3.4095,-3.3869,-3.3869,-3.3313,-3.3081,-3.3081,-3.3081,-3.3081,-3.3081,0.0,-3.3081,-3.3081,-3.3081,0.0,-3.3081,-3.3081,-3.3081,-3.3081,-3.3081,-3.3081,-3.3081,-3.3081,-3.3081,0.0,0.0,-3.2698,-3.2052,0.0,-2.9954,-2.8412,0.0,0.0,0.0,-2.5742,0.0,0.0,0.0,-2.5742,-2.5742,0.0,0.0,0.0,0.0,0.0,0.0,0.0,0.0,0.0,0.0,0.0,0.0,0.0,0.0,0.0,0.0,0.0,-2.5742,-2.5742,-2.5742,-2.5742,-2.5742,-2.5742,-2.5742,-2.5742,-2.4402,-2.3076,-2.1744,-2.0333,-1.8916,-1.7582,-1.7582,-1.7582,-1.7582,-1.7582,-1.7582,-1.7582,-1.7582,-1.7582,-1.7582,-1.7582,-1.7582,-1.7582,-1.7582,-1.7582,-1.7582,-1.7582,-1.7582,-1.7582,-3.9454,-3.9424,-3.9424,-3.9424,-3.9424,-3.9424,-3.9424,-3.9424,-3.9424,-3.9424,-3.9424,-3.9424,-3.9424,-3.9424,-3.9424,-3.9424,-3.9424,-3.9424,-3.9424,-3.9424,-3.9424,-3.9424,-3.9424,-3.887,-3.7829,-3.7829,-3.7252,-3.6198,-3.5359,-3.4897,-3.4664,-3.3797,-3.3313,-3.3081,-3.3081,-3.3081,-3.3081,0.0,0.0,-3.3081,0.0,-3.3081,-3.3081,-3.3081,-3.3081,-3.3081,-3.3081,-3.3081,-3.3081,-3.3081,-3.3081,-3.3081,-3.3081,-3.3081,0.0,0.0,0.0,0.0,0.0,0.0,0.0,0.0,0.0,-2.5742,0.0,0.0,0.0,0.0,0.0,0.0,0.0,0.0,0.0,0.0,0.0,0.0,0.0,0.0,0.0,0.0,0.0,0.0,0.0,0.0,-2.5742,-2.5742,-2.5742,-2.5742,-2.5742,-2.5742,-2.5742,-2.5742,-2.4402,-2.3076,-2.1744,-2.0333,-1.8916,-1.7582,-1.7582,-1.7582,-1.7582,-1.7582,-1.7582,-1.7582,-1.7582,-1.7582,-1.7582,-1.7582,-1.7582,-1.7582,-1.7582,-1.7582,-1.7582,-1.7582,-1.7582,-1.7582,-3.9661,-3.9424,-3.9424,-3.9424,-3.9424,-3.9424,-3.9424,-3.9424,-3.9424,-3.9424,-3.9424,-3.9424,-3.9424,-3.9424,-3.9424,-3.9424,-3.9424,-3.9424,-3.9424,-3.9424,-3.9424,-3.9424,-3.9424,-3.887,-3.7829,-3.7829,-3.7252,-3.6198,-3.6132,-3.5588,-3.4664,-3.4594,-3.4037,-3.3081,-3.3081,-3.3081,-3.3081,0.0,-3.3081,0.0,-3.3081,-3.3081,0.0,-3.3081,-3.3081,-3.3081,-3.3081,-3.3081,-3.3081,0.0,-3.3081,-3.3081,0.0,-3.3081,-3.3068,-3.2896,0.0,0.0,0.0,0.0,0.0,0.0,-2.6572,0.0,0.0,0.0,0.0,0.0,0.0,0.0,0.0,0.0,0.0,0.0,0.0,0.0,0.0,0.0,0.0,0.0,0.0,0.0,0.0,0.0,0.0,-2.5742,-2.5742,-2.5742,-2.5742,-2.5742,-2.5742,-2.5742,-2.4402,-2.3076,-2.1744,-2.0333,-1.8916,-1.7582,-1.7582,-1.7582,-1.7582,-1.7582,-1.7582,-1.7582,-1.7582,-1.7582,-1.7582,-1.7582,-1.7582,-1.7582,-1.7582,-1.7582,-1.7582,-1.7582,-1.7582,-1.7582,-4.1075,-4.0894,-4.0894,-4.0894,-4.0516,-4.0185,-4.0185,-3.9737,-3.961,-4.0115,-3.9737,-3.9424,-3.9424,-3.9424,-3.9424,-3.9424,-3.9424,-3.9424,0.0,-3.9424,-3.9424,-3.9424,-3.9424,-3.9177,-3.8708,-3.8708,-3.8546,-3.8055,-3.7405,-3.6618,-3.5588,-3.4979,-3.4108,-3.3154,-3.3713,0.0,-3.3154,0.0,-3.3628,0.0,0.0,0.0,0.0,-3.3081,-3.3081,-3.3081,-3.3081,-3.3081,-3.3081,0.0,-3.3081,0.0,0.0,0.0,0.0,0.0,0.0,0.0,0.0,0.0,0.0,0.0,0.0,0.0,-2.583,0.0,-2.5742,0.0,0.0,0.0,0.0,0.0,0.0,0.0,0.0,0.0,0.0,0.0,0.0,0.0,0.0,0.0,0.0,0.0,0.0,0.0,0.0,-2.5742,-2.5742,-2.5742,-2.5742,-2.5742,-2.5128,-2.4205,-2.2868,-2.2265,-2.0947,-1.8708,-1.8708,-1.8297,-1.7582,-1.7582,-1.7582,-1.7582,-1.7582,-1.7582,-1.7582,-1.7582,-1.7582,-1.7582,-1.7582,-1.7582,-1.7582,-1.7582,-1.7582,-1.7582,-4.2704,-4.2298,-4.1997,-4.1981,-4.1478,-4.108,-4.108,-4.0309,-3.999,-4.0622,-3.992,-3.9424,-3.9424,-3.9424,-3.9424,-3.9424,-3.9424,-3.9424,0.0,-3.9424,-3.9424,-3.9424,-3.9424,-3.9424,-3.9424,-3.9424,-3.9424,-3.9424,-3.862,-3.7663,-3.6604,-3.5922,-3.4979,-3.394,-3.4511,-3.4428,-3.394,0.0,-3.3953,-3.3471,-3.324,-3.3081,-3.3081,-3.3081,-3.3081,-3.3081,-3.3081,-3.3081,-3.3081,-3.3081,-3.3081,0.0,-3.3081,0.0,0.0,0.0,0.0,0.0,-3.1677,0.0,0.0,0.0,0.0,0.0,0.0,0.0,0.0,0.0,0.0,0.0,0.0,0.0,-2.5693,-2.5576,0.0,0.0,0.0,0.0,0.0,0.0,0.0,0.0,0.0,0.0,0.0,0.0,-2.5742,0.0,-2.5742,-2.5742,-2.5742,-2.5742,-2.5742,-2.502,-2.3683,-2.3384,-2.1963,-1.9627,-1.922,-1.8506,-1.7582,-1.7582,-1.7582,-1.7582,-1.7582,-1.7582,-1.7582,-1.7582,-1.7582,-1.7582,-1.7582,-1.7582,-1.7582,-1.7582,-1.7582,-1.7582,-4.4514,-4.3171,-4.2005,-4.1997,-4.1997,-4.1933,-4.1933,-4.1213,-4.069,-4.069,0.0,0.0,0.0,0.0,0.0,0.0,0.0,-3.9424,-3.9424,0.0,-3.9424,-3.9424,-3.9424,-3.9424,-3.9424,-3.9424,-3.9424,-3.9424,-3.9337,-3.8782,-3.7753,-3.7753,-3.7098,-3.6053,-3.5129,-3.5197,-3.5974,-3.4024,-3.3713,-3.4594,-3.3556,-3.3081,-3.3081,0.0,-3.3081,-3.3081,-3.3081,0.0,0.0,-3.3081,-3.3081,0.0,0.0,0.0,0.0,0.0,0.0,0.0,0.0,0.0,0.0,-2.967,0.0,0.0,0.0,0.0,-2.5742,0.0,0.0,0.0,0.0,-2.5742,-2.5596,-2.5166,-2.5449,0.0,0.0,0.0,0.0,0.0,0.0,0.0,0.0,0.0,0.0,-2.5742,-2.5742,0.0,-2.5742,-2.5742,-2.5742,-2.5742,-2.5742,-2.502,-2.3683,-2.2366,-2.1041,-1.9627,-1.8297,-1.7687,-1.7582,-1.7582,-1.7582,-1.7582,-1.7582,-1.7582,-1.7582,-1.7582,-1.7582,-1.7582,-1.7582,-1.7582,-1.7582,-1.7582,-1.7582,-1.7582,-4.4587,-4.4152,-4.3706,-4.3706,0.0,-4.2847,-4.2847,-4.2125,-4.1804,0.0,0.0,0.0,0.0,-4.0638,-4.0239,0.0,0.0,-3.9424,-3.9424,-3.9424,0.0,-3.9424,-3.9424,-3.9424,-3.9424,-3.9424,-3.9424,-3.9424,-3.9424,-3.887,-3.7829,-3.7829,-3.7266,-3.6212,-3.6554,-3.6554,0.0,0.0,0.0,0.0,0.0,-3.3081,-3.3081,0.0,0.0,-3.3081,-3.3081,-3.3081,0.0,-3.3081,-3.3081,-3.3081,-3.3081,-3.3081,-3.3081,-3.3081,-3.3081,0.0,0.0,0.0,-3.2152,-3.0855,0.0,0.0,0.0,0.0,0.0,0.0,0.0,0.0,0.0,-2.5742,-2.5684,-2.5537,-2.5635,-2.5684,0.0,0.0,0.0,0.0,0.0,0.0,0.0,0.0,0.0,-2.5742,-2.5742,-2.5742,0.0,-2.5742,-2.5742,-2.5742,-2.5742,-2.502,-2.3683,-2.3276,-2.1862,-1.9627,-1.9117,-1.8506,-1.7582,-1.7582,-1.7582,-1.7582,-1.7582,-1.7582,-1.7582,-1.7582,-1.7582,-1.7582,-1.7582,-1.7582,-1.7582,-1.7582,-1.7582,-1.7582,-4.4587,-4.4587,-4.4587,0.0,0.0,-4.3756,-4.3756,0.0,0.0,0.0,-4.252,0.0,-4.1997,0.0,-4.069,0.0,-3.992,-3.9424,-3.9424,-3.9424,0.0,-3.9424,-3.9424,-3.9424,-3.9424,-3.9424,-3.9424,-3.9424,-3.9424,-3.9031,-3.8383,-3.8383,-3.7979,-3.7329,-3.7663,-3.7663,-3.7315,-3.7252,-3.671,0.0,0.0,-3.3484,0.0,0.0,-3.3081,-3.3081,0.0,-3.3081,-3.3081,-3.3081,-3.3081,-3.3081,-3.3081,-3.3081,-3.3081,-3.3081,-3.3081,-3.3081,-3.3081,-3.3081,0.0,-3.15,-3.1223,0.0,-2.868,0.0,0.0,0.0,0.0,0.0,0.0,-2.611,-2.6197,-2.5732,-2.5742,-2.5742,0.0,-2.5742,0.0,0.0,0.0,0.0,0.0,0.0,-2.5742,-2.5742,-2.5742,-2.5742,0.0,0.0,-2.5742,-2.5742,-2.5742,-2.5333,-2.4402,-2.3484,-2.2064,-2.0333,-1.9317,-1.8401,-1.7582,-1.7582,-1.7582,-1.7582,-1.7582,-1.7582,-1.7582,-1.7582,-1.7582,-1.7582,-1.7582,-1.7582,-1.7582,-1.7582,-1.7627,-1.7546,-4.4587,-4.4587,0.0,0.0,-4.4587,0.0,0.0,0.0,-4.3366,0.0,-4.2645,-4.2125,-4.2125,-4.1346,-4.0743,-4.0743,-3.9935,-3.9424,-3.9424,-3.9424,0.0,0.0,-3.9424,-3.9424,-3.9424,-3.9424,-3.9424,-3.9424,-3.9424,-3.9424,-3.9424,-3.9424,-3.9424,-3.9337,-3.8308,0.0,-3.9265,-3.7238,-3.693,-3.7601,-3.5534,-3.4108,-3.3154,-3.3167,0.0,-3.3081,-3.3081,-3.3081,-3.3081,-3.3081,-3.3081,-3.3081,-3.3081,-3.3081,-3.3081,-3.3081,-3.3081,-3.3081,-3.3081,-3.3081,-3.2797,-3.1589,0.0,0.0,0.0,0.0,-2.9223,0.0,0.0,0.0,0.0,0.0,-2.7189,-2.5984,-2.5703,-2.5713,-2.5732,0.0,0.0,0.0,0.0,0.0,0.0,-2.5742,-2.5742,-2.5742,-2.5742,-2.5742,0.0,0.0,0.0,-2.5742,-2.5742,-2.5635,-2.5635,-2.3076,-2.1752,-2.1643,-1.9013,-1.7687,-1.7687,-1.7582,-1.7582,-1.7582,-1.7582,-1.7582,-1.7582,-1.7582,-1.7582,-1.7582,-1.7582,-1.7575,-1.7562,-1.7562,-1.7617,-1.7606,-4.4587,-4.4587,-4.4587,0.0,-4.4587,-4.4587,0.0,0.0,0.0,0.0,-4.4064,-4.3931,-4.3931,-4.2567,-4.1674,-4.1674,-4.0255,0.0,0.0,0.0,0.0,-3.9424,-3.9424,-3.9424,-3.9424,-3.9424,-3.9424,-3.9424,-3.9424,-3.9424,-3.9424,-3.9424,-3.9424,-3.9424,-3.9104,-3.9104,-3.9337,-3.8782,-3.8308,-3.7601,-3.5534,-3.4511,0.0,0.0,-3.3081,-3.3081,-3.3081,-3.3081,-3.3081,-3.3081,-3.3081,-3.3081,-3.3081,-3.3081,-3.3081,-3.3081,-3.3081,-3.3081,-3.3081,-3.3081,-3.2982,-3.2698,-3.2612,-3.2239,0.0,0.0,0.0,0.0,0.0,0.0,0.0,0.0,0.0,-2.662,-2.5889,-2.5361,-2.5693,0.0,0.0,-2.5742,0.0,0.0,0.0,-2.5742,-2.5742,-2.5742,-2.5742,0.0,0.0,0.0,0.0,-2.5742,-2.5742,-2.5226,-2.4196,-2.3484,-2.2667,-2.1651,-1.993,-1.9117,-1.9013,-1.8094,-1.7582,-1.7582,-1.7582,-1.7582,-1.7582,-1.7582,-1.7582,-1.7582,-1.7582,-1.7566,-1.7605,-1.7605,-1.7565,-1.7463,-4.4587,0.0,0.0,-4.4587,0.0,0.0,-4.4587,0.0,0.0,-4.4587,-4.4587,0.0,-4.4587,-4.335,-4.2522,-4.235,-4.0997,0.0,-3.9424,0.0,0.0,-3.9424,-3.9424,-3.9424,-3.9424,-3.9424,-3.9424,-3.9424,-3.9424,-3.9424,-3.9424,-3.9424,-3.9424,-3.9424,-3.9424,-3.9424,-3.9424,-3.9424,-3.8531,-3.7021,-3.5828,0.0,0.0,-3.3313,-3.3081,-3.3043,-3.2792,-3.2867,-3.3081,-3.3081,-3.3081,-3.3081,-3.3081,-3.3081,-3.3031,-3.2767,-3.2704,-3.2654,-3.2403,-3.234,-3.234,-3.234,-3.234,-3.2159,-3.1431,-3.1881,-3.1796,0.0,0.0,0.0,0.0,0.0,0.0,-2.6763,-2.5593,-2.4873,0.0,0.0,0.0,0.0,-2.5332,0.0,0.0,0.0,-2.5742,-2.5742,0.0,0.0,0.0,0.0,0.0,-2.5742,-2.5742,-2.5323,-2.4609,-2.3998,-2.3076,-2.1651,-2.0231,-1.9324,-1.8708,-1.7891,-1.7582,-1.7582,-1.7582,-1.7582,-1.7582,-1.7582,-1.7582,-1.7575,-1.756,-1.7565,-1.7516,-1.7035,-1.6767,-1.6734,-4.4587,0.0,0.0,0.0,0.0,0.0,0.0,-4.4587,0.0,-4.4587,0.0,-4.4587,-4.4587,-4.3739,-4.3056,-4.2832,0.0,-4.0477,-3.9496,-3.9424,-3.9424,-3.9424,-3.9424,-3.9424,-3.9424,-3.9424,-3.9424,-3.9424,-3.9424,-3.9424,-3.9424,-3.9424,-3.9424,-3.9424,-3.9424,0.0,0.0,-3.9424,-3.8294,-3.6604,-3.6235,-3.5035,-3.3369,-3.3126,-3.2918,-3.2792,-3.229,-3.2478,-3.2955,-3.288,-3.2855,-3.2855,-3.2855,-3.2855,-3.2754,-3.2252,-3.2102,-3.2001,-3.1524,-3.1386,-3.1386,-3.1386,-3.1386,-3.1386,-3.1386,-3.1386,-3.1128,-3.0085,-3.0692,0.0,0.0,0.0,0.0,-2.6366,0.0,0.0,0.0,0.0,0.0,0.0,0.0,0.0,0.0,0.0,0.0,0.0,0.0,0.0,0.0,0.0,0.0,0.0,-2.5742,0.0,-2.5742,0.0,-2.3076,-2.1954,-2.0333,-1.9013,-1.7891,-1.7687,-1.7582,-1.7582,-1.7582,-1.7582,-1.7582,-1.7542,-1.7502,-1.7448,-1.7421,-1.7482,-1.7306,-1.6248,-1.5804,-1.5778,0.0,0.0,0.0,0.0,0.0,-4.4587,-4.4587,-4.4587,-4.4587,-4.4587,-4.4587,-4.4587,-4.4587,-4.3152,-4.2397,-4.2768,-4.087,0.0,0.0,0.0,0.0,-3.9424,-3.9424,-3.9424,-3.9424,-3.9424,-3.9424,0.0,0.0,-3.9424,-3.9424,-3.9424,-3.9424,-3.9424,-3.9424,0.0,-3.9424,-3.9424,0.0,-3.8664,-3.6297,-3.5203,-3.4803,-3.2995,-3.2077,-3.1662,-3.1574,-3.1888,-3.229,-3.1838,-3.1687,-3.1687,-3.1687,-3.1687,-3.1662,-3.1562,-3.1537,-3.1512,-3.1411,-3.1386,-3.1386,-3.1386,-3.1386,-3.1386,-3.1386,-3.1386,-3.1304,-3.1128,-3.1223,-3.1304,-3.0857,0.0,0.0,0.0,0.0,0.0,0.0,0.0,0.0,0.0,0.0,0.0,0.0,0.0,0.0,0.0,0.0,0.0,0.0,0.0,0.0,0.0,0.0,0.0,0.0,0.0,0.0,-2.3285,-2.0845,-1.9531,-1.922,-1.8094,-1.7582,-1.7582,-1.7582,-1.7582,-1.7562,-1.7321,-1.7081,-1.6854,-1.6686,-1.672,-1.6785,-1.6064,-1.5789,-1.5803,0.0,0.0,0.0,0.0,0.0,0.0,0.0,-4.4587,0.0,-4.4587,-4.4587,-4.4587,-4.4587,-4.3856,-4.3096,-4.243,-4.139,-4.0393,-3.9481,-3.9424,-3.9424,-3.9424,-3.9424,0.0,-3.9424,-3.9424,-3.9424,-3.9424,0.0,-3.9424,-3.9424,-3.9424,-3.9424,-3.9424,0.0,-3.9424,0.0,0.0,0.0,-3.8473,-3.5849,-3.4508,-3.3869,-3.2324,-3.1625,-3.1348,-3.1085,-3.116,-3.1386,-3.1386,-3.1386,-3.1386,-3.1386,-3.1386,-3.1336,-3.1072,-3.0984,-3.0922,-3.0645,-3.0557,-3.0557,-3.0557,-3.0557,-3.0557,-3.0557,-3.0557,-3.0557,-3.0557,-3.0557,-3.0386,-2.9775,-2.8152,0.0,0.0,0.0,0.0,0.0,0.0,0.0,0.0,0.0,0.0,0.0,0.0,0.0,0.0,0.0,0.0,0.0,0.0,0.0,0.0,0.0,0.0,0.0,0.0,0.0,-2.3692,-2.1651,-2.0333,-1.9524,-1.8192,-1.7582,-1.7582,-1.7582,-1.7495,-1.7335,-1.7041,-1.6747,-1.648,-1.6374,-1.6306,-1.6155,-1.5929,-1.5836,-1.5832,0.0,-4.4587,0.0,0.0,-4.4587,0.0,-4.4587,-4.4587,-4.4587,-4.4587,-4.4587,-4.4587,-4.4587,-4.439,-4.3739,-4.2619,-4.1901,-4.097,-3.9854,-3.9496,-3.9424,-3.9424,-3.9424,-3.9424,-3.9424,-3.9424,-3.9424,0.0,0.0,0.0,-3.92,-3.9349,-3.9424,0.0,0.0,0.0,0.0,0.0,-3.7556,-3.7346,-3.5004,-3.362,-3.2866,-3.1669,-3.1148,-3.0997,-3.0583,-3.0444,-3.0507,-3.0922,-3.1047,-3.1047,-3.1047,-3.1047,-3.0972,-3.0557,-3.0444,-3.0344,-2.9905,-2.9792,-2.9792,-2.9792,-2.9792,-2.9792,-2.9792,-2.9792,-2.9792,-2.9792,-2.9792,-2.9456,-2.8335,-2.7452,0.0,0.0,0.0,0.0,0.0,0.0,0.0,0.0,0.0,0.0,0.0,0.0,0.0,0.0,0.0,0.0,0.0,0.0,0.0,0.0,0.0,-2.5742,-2.5742,0.0,-2.4716,0.0,-2.2357,-2.1143,-2.0033,-1.854,-1.7893,-1.7893,-1.7526,-1.7228,-1.6947,-1.6714,-1.644,-1.6179,-1.6283,-1.6039,-1.5832,-1.5832,-1.5832,-1.5832,0.0,0.0,0.0,0.0,0.0,0.0,0.0,-4.4587,-4.4587,-4.4587,-4.4587,-4.4587,-4.4587,-4.3614,-4.3366,-4.4263,-4.15,-4.0023,-4.0876,-3.994,-3.9424,-3.9424,-3.9424,-3.9424,-3.9424,-3.9424,-3.9424,0.0,0.0,-3.9095,0.0,-3.9125,0.0,0.0,0.0,0.0,0.0,-3.6783,-3.5761,-3.5598,-3.367,-3.3199,-3.3293,-3.1409,-3.0382,-2.993,-2.988,-2.9867,-2.988,-2.993,-2.9942,-2.9942,-2.9942,-2.9942,-2.993,-2.988,-2.9867,-2.9854,-2.9804,-2.9792,-2.9792,-2.9792,-2.9792,-2.9792,-2.9792,-2.9792,-2.9792,-2.9792,-2.9792,-2.9456,-2.8335,-2.8004,-2.7602,0.0,0.0,0.0,0.0,0.0,0.0,0.0,0.0,0.0,0.0,0.0,0.0,0.0,0.0,0.0,0.0,0.0,0.0,-2.5742,0.0,-2.5742,-2.5742,-2.4501,0.0,-2.3692,-2.2357,-2.1651,-2.1432,-1.9821,-1.9093,-1.8977,-1.7392,-1.6627,-1.6353,-1.6326,-1.6139,-1.5872,-1.5872,-1.5852,-1.5832,-1.5832,-1.5832,-1.5832,0.0,0.0,0.0,0.0,0.0,0.0,0.0,-4.4587,-4.4587,-4.4587,-4.4587,-4.4587,-4.4587,-4.4169,-4.4081,-4.4544,-4.3304,-4.2125,-4.1143,-4.0524,-3.992,-3.9409,-3.9424,-3.9424,-3.9424,-3.9424,-3.9424,0.0,0.0,0.0,0.0,0.0,0.0,0.0,0.0,-3.897,-3.8082,-3.6289,-3.5524,-3.5472,-3.4694,-3.3831,-3.2822,-3.1461,-3.0471,-2.9792,-2.9792,-2.9792,-2.9792,-2.9792,-2.9792,-2.9792,-2.9792,-2.9792,-2.9792,-2.9792,-2.9792,-2.9792,-2.9792,-2.9792,-2.9792,-2.9792,-2.9792,-2.9792,-2.9792,-2.9792,-2.9792,-2.9792,-2.9792,-2.9456,-2.8335,-2.8096,-2.751,0.0,0.0,0.0,0.0,0.0,0.0,0.0,0.0,-2.3135,0.0,0.0,0.0,0.0,0.0,0.0,0.0,0.0,0.0,-2.4941,0.0,-2.4941,-2.4941,-2.4355,-2.4146,-2.4051,-2.2777,-2.2091,-2.2082,-1.9787,-1.836,-1.7652,-1.6864,-1.638,-1.6259,-1.6079,-1.5939,-1.5832,-1.5832,-1.5832,-1.5832,-1.5832,-1.5832,-1.5832,-4.4587,0.0,-4.4587,0.0,-4.4587,-4.4587,-4.4587,-4.4587,-4.4587,-4.4587,-4.4587,-4.4587,-4.4587,-4.4587,-4.4626,-4.4608,-4.4614,-4.3673,-4.15,-4.0956,-4.0309,-3.9409,-3.9424,0.0,-3.9424,-3.9424,-3.9424,-3.9424,-3.9215,0.0,0.0,0.0,0.0,0.0,-3.8395,-3.8304,-3.7293,-3.6008,-3.5525,-3.5474,-3.5486,-3.4488,-3.289,-3.1669,-3.0758,-3.0216,-2.9934,-2.9792,-2.9792,-2.9792,-2.9792,-2.9792,-2.9792,-2.9792,-2.9792,-2.9792,-2.9792,-2.9792,-2.9792,-2.9792,-2.9792,-2.9792,-2.9792,-2.9792,-2.9792,-2.9792,-2.9792,-2.9792,-2.9792,-2.9456,-2.8335,-2.8347,-2.7855,-2.563,0.0,0.0,0.0,0.0,0.0,0.0,-2.3135,-2.3135,-2.3135,0.0,0.0,0.0,0.0,0.0,0.0,0.0,0.0,0.0,0.0,0.0,0.0,-2.4414,-2.4414,-2.4414,-2.3467,-2.299,-2.2887,-2.0175,-1.8064,-1.6433,-1.6233,-1.6146,-1.6126,-1.5912,-1.5832,-1.5832,-1.5832,-1.5832,-1.5832,-1.5832,-1.5832,-1.5832,-4.4587,-4.4587,-4.4587,-4.4587,-4.4587,-4.4587,-4.4587,-4.4587,-4.4587,-4.4587,-4.4587,-4.4587,-4.4587,-4.4587,-4.4587,-4.4587,-4.4574,-4.3887,-4.2094,-4.1213,-4.0309,0.0,0.0,-3.9424,-3.9424,-3.9424,-3.9424,-3.9424,0.0,0.0,-3.7419,0.0,-3.6836,-3.7404,-3.7421,-3.7434,-3.7292,-3.6069,-3.5504,-3.5484,-3.548,-3.486,-3.3808,-3.1888,-3.118,-3.1044,-3.0139,-2.9792,-2.9792,-2.9792,-2.9792,-2.9792,-2.9792,-2.9792,-2.9792,-2.9792,-2.9792,-2.9792,-2.9792,-2.9792,-2.9792,-2.9792,-2.9792,-2.9792,-2.9792,-2.9792,-2.9792,-2.9792,-2.9792,-2.9456,-2.8335,-2.9028,-2.9052,-2.6812,0.0,0.0,0.0,0.0,0.0,0.0,-2.3135,-2.3135,-2.3135,0.0,0.0,0.0,0.0,0.0,0.0,0.0,0.0,-2.4414,-2.4414,0.0,-2.4414,-2.4414,-2.4414,-2.4414,-2.4414,-2.4414,-2.4312,-2.1418,-1.8534,-1.5838,-1.5838,-1.5832,-1.5832,-1.5832,-1.5832,-1.5832,-1.5832,-1.5832,-1.5832,-1.5832,-1.5832,-1.5832,-4.4587,-4.4587,-4.4587,-4.4587,-4.4587,-4.4587,-4.4587,-4.4587,-4.4587,-4.4587,-4.4587,-4.4587,-4.4587,-4.4587,-4.4587,0.0,-4.4626,-4.3879,0.0,-4.1739,-4.0961,-3.9481,-3.9424,-3.92,-3.8736,-3.8721,-3.8497,-3.8048,0.0,0.0,0.0,-3.6582,-3.6357,-3.6103,-3.6094,-3.6114,-3.6099,-3.5639,-3.5504,-3.5519,-3.5472,-3.4472,-3.2961,-3.2393,-3.1328,-3.0216,-2.9934,-2.9792,-2.9792,-2.9792,-2.9792,-2.9792,-2.9792,-2.9792,-2.9792,-2.9792,-2.9792,-2.9792,-2.9792,-2.9792,-2.9792,-2.9792,-2.9792,-2.9792,-2.9792,-2.9792,-2.9792,-2.9792,-2.9792,-2.9702,-2.9365,-2.9546,-2.9287,-2.7855,0.0,0.0,0.0,0.0,0.0,0.0,-2.3135,-2.3135,0.0,-2.3135,0.0,0.0,0.0,0.0,0.0,0.0,0.0,0.0,-2.3545,0.0,-2.3545,-2.3545,-2.3545,-2.3545,-2.3545,-2.3079,-2.2224,-2.0446,-1.8775,-1.7037,-1.6204,-1.5832,-1.5832,-1.5832,-1.5832,-1.5832,-1.5832,-1.5832,-1.5832,-1.5832,-1.5832,-1.5832,-4.4519,-4.4587,-4.4587,-4.4587,-4.4587,-4.4587,-4.4587,-4.4587,-4.4587,-4.4587,-4.4333,-4.4147,-4.4147,-4.4449,0.0,-4.4626,-4.4587,0.0,-4.1756,-4.1597,-4.0711,-3.8732,-3.8661,-3.8467,-3.8033,0.0,0.0,-3.7404,-3.718,-3.6746,-3.6118,-3.6118,-3.5893,-3.5504,-3.5504,-3.5504,-3.5504,-3.5504,-3.5504,-3.5504,-3.5504,-3.4773,-3.3616,-3.3241,-3.2191,-3.0846,-3.0846,-3.0432,-2.9856,-3.0216,-3.0075,-2.9792,-2.9792,-2.9792,-2.9792,-2.9792,-2.9792,-2.9792,-2.9792,-2.9792,-2.9792,-2.9792,-2.9792,-2.9792,-2.9792,-2.9792,-2.9792,-2.9792,-2.9792,-2.9792,-2.9792,-2.9792,-2.9443,-2.8267,0.0,-2.6141,-2.4957,0.0,0.0,0.0,0.0,0.0,0.0,-2.3135,0.0,0.0,0.0,0.0,0.0,0.0,0.0,-2.3135,-2.3135,0.0,-2.3135,-2.3135,-2.3135,-2.3135,-2.3135,-2.2492,-2.1293,-2.0034,-1.8864,-1.7598,-1.6386,-1.5832,-1.5832,-1.5832,-1.5832,-1.5832,-1.5832,-1.5832,-1.5832,-1.5832,-1.5832,-1.5832,-4.4282,-4.4434,0.0,0.0,-4.4434,0.0,-4.4418,-4.4418,-4.4418,-4.4418,-4.3792,-4.3335,-4.3335,-4.4,-4.4446,-4.449,0.0,0.0,0.0,-4.0956,-3.988,-3.7503,-3.7404,0.0,-3.7345,-3.7345,-3.7315,-3.7285,-3.6701,-3.6103,-3.5504,-3.5504,-3.5504,-3.5504,-3.5504,-3.5504,-3.5504,-3.5504,-3.5504,-3.5504,-3.5504,-3.5519,-3.5404,-3.4409,-3.3449,-3.2593,-3.2522,-3.1415,-2.9998,-3.0833,-3.0482,-2.9792,-2.9792,-2.9792,-2.9792,-2.9792,-2.9792,-2.9792,-2.9792,-2.9792,-2.9792,-2.9792,-2.9792,-2.9792,-2.9792,-2.9792,-2.9792,-2.9792,-2.9792,-2.9792,-2.9792,-2.9792,-2.9443,-2.8426,-2.7279,-2.6224,-2.5041,0.0,0.0,0.0,0.0,0.0,0.0,-2.3135,-2.3135,0.0,0.0,0.0,0.0,0.0,-2.3135,-2.3135,-2.3135,-2.3135,-2.3135,-2.3135,-2.3135,-2.3135,-2.3135,-2.2492,-2.1391,-2.0124,-1.8864,-1.7777,-1.6386,-1.5832,-1.5832,-1.5832,-1.5832,-1.5832,-1.5832,-1.5832,-1.5832,-1.5832,-1.5832,-1.5832,0.0,0.0,-4.2861,-4.2871,-4.2841,-4.2828,-4.2828,-4.2828,-4.2828,-4.2828,-4.2675,-4.2557,-4.2557,-4.2749,-4.3022,-4.3413,-4.3068,-4.2451,-4.1436,-4.063,-3.9314,-3.7473,-3.7404,-3.718,-3.6716,-3.6701,-3.6462,-3.5953,-3.5804,-3.5654,-3.5504,-3.5504,-3.5504,-3.5504,-3.5504,-3.5504,-3.5504,-3.5504,-3.5504,-3.5504,-3.5504,-3.5517,-3.5383,-3.439,-3.3449,-3.2536,-3.1815,-3.1254,-3.0758,-3.0279,-2.9998,-2.9792,-2.9792,-2.9792,-2.9792,-2.9792,-2.9792,-2.9792,-2.9792,-2.9792,-2.9792,-2.9792,-2.9792,-2.9792,-2.9792,-2.9792,-2.9792,-2.9792,-2.9792,-2.9792,-2.9792,-2.9792,-2.9702,-2.9443,-2.8438,-2.736,-2.6224,-2.5136,0.0,0.0,-2.3135,-2.3135,-2.3135,-2.3135,-2.3135,0.0,0.0,0.0,0.0,0.0,-2.3135,-2.3135,-2.3135,-2.3135,-2.3135,-2.3135,-2.3135,-2.3135,-2.3135,-2.296,-2.2589,-2.0494,-1.9314,-1.8948,-1.6749,-1.5832,-1.5832,-1.5832,-1.5832,-1.5832,-1.5832,-1.5832,-1.5832,-1.5832,-1.5832,-1.5832,-4.2244,-4.2281,-4.2303,-4.232,-4.2303,-4.2286,-4.2286,-4.2286,-4.2286,-4.2286,-4.1999,-4.1796,-4.1796,-4.1491,-4.1425,-4.1697,-4.1454,-4.136,-4.1493,-4.0227,-3.8714,-3.7121,-3.6706,-3.6387,-3.6043,-3.6028,-3.5863,-3.5504,-3.5504,-3.5504,-3.5504,-3.5504,-3.5504,-3.5504,-3.5504,-3.5504,-3.5504,-3.5504,-3.5504,-3.5504,-3.5504,-3.5523,-3.5452,-3.4875,-3.4109,-3.3241,-3.3185,-3.2607,-3.1829,-3.1769,-3.1132,-3.0419,-3.0419,-3.0139,-2.9792,-2.9792,-2.9792,-2.9792,-2.9792,-2.9792,-2.9792,-2.9792,-2.9792,-2.9792,-2.9792,-2.9792,-2.9792,-2.9792,-2.9792,-2.9792,-2.9792,-2.9792,-2.9792,-2.9792,-2.8858,-2.7763,-2.6637,-2.5546,0.0,-2.3222,-2.3135,-2.3135,-2.3135,-2.3135,-2.3135,-2.3135,0.0,0.0,-2.3135,-2.3135,-2.3135,-2.3135,-2.3135,-2.3135,-2.3135,-2.3135,-2.3135,-2.3135,-2.3135,-2.3135,-2.3047,-2.0584,-1.9497,-1.9397,-1.6842,-1.5832,-1.5832,-1.5832,-1.5832,-1.5832,-1.5832,-1.5832,-1.5832,-1.5832,-1.5832,-1.5832,-4.1839,-4.1996,-4.1984,-4.1987,-4.195,-4.1948,-4.1948,-4.1948,-4.1948,-4.1948,-4.1424,-4.1035,-4.1035,-4.046,-4.007,-4.007,-4.0118,-4.0354,-4.1,-3.9641,-3.8106,-3.6523,-3.5831,-3.5504,-3.5504,-3.5504,-3.5504,-3.5504,-3.5504,-3.5504,-3.5504,-3.5504,-3.5504,-3.5504,-3.5504,-3.5504,-3.5504,-3.5504,-3.5504,-3.5504,-3.5504,-3.5504,-3.5504,-3.5504,-3.4986,-3.4312,-3.4986,-3.4192,-3.289,-3.338,-3.2522,-3.118,-3.1044,-3.0419,-2.9792,-2.9792,-2.9792,-2.9792,-2.9792,-2.9792,-2.9792,-2.9792,-2.9792,-2.9792,-2.9792,-2.9792,-2.9792,-2.9792,-2.9792,-2.9792,-2.9792,-2.9792,-2.9792,-2.9792,-2.8858,-2.7763,-2.6637,0.0,-2.4382,-2.3222,-2.3135,-2.3135,-2.3135,-2.3135,-2.3135,-2.3135,-2.3135,0.0,0.0,-2.3135,-2.3135,-2.3135,-2.3135,-2.3135,-2.3135,-2.3135,-2.3135,-2.3135,-2.3135,-2.296,-2.2765,-2.0674,-1.9579,-1.9131,-1.703,-1.6015,-1.5832,-1.5832,-1.5832,-1.5832,-1.5832,-1.5832,-1.5832,-1.5832,-1.5832,-1.5832,-4.0426,-4.0443,-4.0409,-4.0443,-4.046,-4.0426,-4.0426,-4.0426,-4.0426,-4.0426,-4.0324,-4.0257,-4.0257,-4.0155,-4.007,-4.007,-4.0071,-3.9621,-3.8472,-3.855,-3.778,-3.5748,-3.5554,-3.5504,-3.5504,-3.5504,-3.5504,-3.5504,-3.5504,-3.5504,-3.5504,-3.5504,-3.5504,-3.5504,-3.5504,-3.5504,-3.5504,-3.5504,-3.5504,-3.5504,-3.5504,-3.5504,-3.5504,-3.5504,-3.5424,-3.5213,-3.4461,-3.4027,-3.3533,-3.2105,-3.1462,-3.1044,-3.0279,-2.9934,-2.9792,-2.9792,-2.9792,-2.9792,-2.9792,-2.9792,-2.9792,-2.9792,-2.9792,-2.9792,-2.9792,-2.9792,-2.9792,-2.9792,-2.9792,-2.9792,-2.9792,-2.9792,-2.9792,-2.9792,-2.8858,-2.7763,-2.6637,0.0,-2.4382,-2.3222,-2.3135,-2.3135,-2.3135,-2.3135,-2.3135,-2.3135,-2.3135,-2.3135,-2.3135,-2.3135,-2.3135,-2.3135,-2.3135,-2.3135,-2.3135,-2.3135,-2.3135,-2.3135,-2.3135,-2.2589,-2.1569,-2.1203,-1.9943,-1.7963,-1.7591,-1.6756,-1.5832,-1.5832,-1.5832,-1.5832,-1.5832,-1.5832,-1.5832,-1.5832,-1.5832,-1.5832,-4.007,-4.007,-4.007,-4.007,-4.007,-4.007,-4.007,-4.007,-4.007,-4.007,-4.007,-4.007,-4.007,-4.007,-4.007,-4.007,-4.007,-3.9428,-3.7888,-3.7754,-3.744,-3.6784,-3.5973,-3.5504,-3.5504,-3.5504,-3.5504,-3.5504,-3.5504,-3.5504,-3.5504,-3.5504,-3.5504,-3.5504,-3.5504,-3.5504,-3.5504,-3.5504,-3.5504,-3.5504,-3.5504,-3.5504,-3.5504,-3.5504,-3.5504,-3.5439,-3.4986,-3.4839,-3.4691,-3.3837,-3.3185,-3.2522,-3.1623,-3.0983,-3.0419,-2.9934,-2.9792,-2.9792,-2.9792,-2.9792,-2.9792,-2.9792,-2.9792,-2.9792,-2.9792,-2.9792,-2.9792,-2.9792,-2.9792,-2.9792,-2.9792,-2.9792,-2.9792,-2.9792,-2.8858,0.0,0.0,-2.5546,-2.4382,-2.3222,-2.3135,-2.3135,-2.3135,-2.3135,-2.3135,-2.3135,-2.3135,-2.3135,-2.3135,-2.3135,-2.3135,-2.3135,-2.3135,-2.3135,-2.3135,-2.3135,-2.3135,-2.3135,-2.3135,-2.2775,-2.2217,-2.0935,-1.9761,-1.8596,-1.7217,-1.6386,-1.5832,-1.5832,-1.5832,-1.5832,-1.5832,-1.5832,-1.5832,-1.5832,-1.5832,-1.5805,-4.007,-4.007,-4.007,-4.007,-4.007,-4.007,-4.007,-4.007,-4.007,-4.007,-4.007,-4.007,-4.007,-4.007,-4.007,-4.007,-4.007,-3.9598,-3.8422,-3.7942,-3.7684,-3.7636,-3.6446,-3.5668,-3.5504,-3.5504,-3.5504,-3.5504,-3.5504,-3.5504,-3.5504,-3.5504,-3.5504,-3.5504,-3.5504,-3.5504,-3.5504,-3.5504,-3.5524,-3.5529,-3.5529,-3.5314,-3.504,-3.5179,-3.5149,-3.504,-3.504,-3.504,-3.4976,-3.4753,-3.4024,-3.3093,-3.2179,-3.1194,-3.0368,-2.9606,-2.949,-2.9616,-2.9754,-2.9792,-2.9792,-2.9792,-2.9792,-2.9792,-2.9792,-2.9792,-2.9792,-2.9792,-2.9792,-2.9792,-2.9792,-2.9792,-2.9792,-2.9792,0.0,0.0,0.0,-2.5546,-2.4382,-2.3222,-2.3135,-2.3135,-2.3135,-2.3135,-2.3135,-2.3135,-2.3135,-2.3135,-2.3135,-2.3135,-2.3135,-2.3135,-2.3135,-2.3135,-2.3135,-2.3135,-2.3135,-2.3135,-2.3135,-2.2775,-2.2227,-2.0674,-1.9488,-1.858,-1.6936,-1.6109,-1.5832,-1.5832,-1.5832,-1.5832,-1.5832,-1.5792,-1.5732,-1.5732,-1.5685,-1.5591,-4.007,-4.007,-4.007,-4.007,-4.007,-4.007,-4.007,-4.007,-4.007,-4.007,-4.007,-4.007,-4.007,-4.007,-4.007,-4.007,-4.007,-4.0037,-3.9952,-3.9869,-3.9046,-3.7144,-3.6687,-3.6228,-3.5504,-3.5504,-3.5504,-3.5504,-3.5504,-3.5504,-3.5504,-3.5504,-3.5504,-3.5504,-3.5504,-3.5504,-3.5504,-3.5504,-3.5484,-3.5483,-3.5483,-3.4768,-3.3664,-3.4119,-3.4059,-3.3649,-3.3649,-3.3649,-3.3511,-3.262,-3.1735,-3.0868,-2.992,-2.9041,-2.8296,-2.8235,-2.8599,-2.9114,-2.9641,-2.9792,-2.9792,-2.9792,-2.9792,-2.9792,-2.9792,-2.9792,-2.9792,-2.9792,-2.9792,-2.9792,-2.9792,-2.9792,-2.9792,-2.9792,0.0,0.0,-2.6637,-2.5546,-2.4382,-2.3222,-2.3135,-2.3135,-2.3135,-2.3135,-2.3135,-2.3135,-2.3135,-2.3135,-2.3135,-2.3135,-2.3135,-2.3135,-2.3135,-2.3135,-2.3135,-2.3135,-2.3135,-2.3135,-2.3135,-2.1952,-1.977,-2.0755,-1.9298,-1.6103,-1.7131,-1.685,-1.5832,-1.5832,-1.5832,-1.5832,-1.5832,-1.5665,-1.5431,-1.5431,-1.5257,-1.5023,-4.007,-4.007,-4.007,-4.007,-4.007,-4.007,-4.007,-4.007,-4.007,-4.007,-4.007,-4.007,-4.007,-4.007,-4.007,-4.007,-4.007,-4.007,-4.007,-4.0117,-3.9152,-3.7064,-3.627,-3.5782,-3.5504,-3.5504,-3.5504,-3.5504,-3.5504,-3.5504,-3.5504,-3.5504,-3.528,-3.4861,-3.4861,-3.5112,-3.5503,-3.5503,-3.5489,-3.5369,-3.3692,-3.2697,-3.234,-3.3047,-3.3378,-3.3514,-3.3817,-3.3772,-3.3393,-3.2768,-3.2484,-3.2283,-3.1345,-3.0555,-2.9644,-2.8448,-2.8247,-2.8486,-2.8962,-2.9416,-2.9792,-2.9792,-2.9792,-2.9792,-2.9792,-2.9792,-2.9792,-2.9792,-2.9792,-2.9792,-2.9792,-2.9792,-2.9792,-2.9792,0.0,-2.7763,-2.6637,-2.5546,-2.4382,-2.3222,-2.3135,-2.3135,-2.3135,-2.3135,-2.3135,-2.3135,-2.3135,-2.3135,-2.3135,-2.3135,-2.3135,-2.3135,-2.3135,-2.3135,-2.3135,-2.3135,-2.3135,-2.3047,-2.2306,-2.148,-2.0576,-1.9588,-1.8319,-1.6943,-1.6669,-1.6292,-1.5832,-1.5832,-1.5725,-1.5565,-1.5565,-1.5384,-1.513,-1.513,-1.5057,-1.4937,-4.007,-4.007,-4.007,-4.007,-4.007,-4.007,-4.007,-4.007,-4.007,-4.007,-4.007,-4.007,-4.007,-4.007,-4.007,-4.007,-4.007,-4.007,-4.007,-4.0118,-3.928,-3.7328,-3.6444,-3.5804,-3.5504,-3.5504,-3.54,-3.519,-3.519,-3.507,-3.4876,-3.4876,-3.4622,-3.4173,-3.4173,-3.436,-3.4668,-3.4668,-3.447,-3.4076,-3.221,-3.1496,-3.1588,-3.2168,-3.2601,-3.2901,-3.3216,-3.3171,-3.2856,-3.2481,-3.263,-3.2746,-3.2082,-3.0841,-2.9334,-2.7991,-2.7612,-2.7666,-2.7918,-2.8549,-2.9176,-2.9465,-2.9654,-2.9792,-2.9792,-2.9792,-2.9792,-2.9792,-2.9792,-2.9792,-2.9792,-2.9792,-2.9792,-2.9792,-2.9106,-2.8108,-2.6719,-2.5808,-2.4798,-2.3309,-2.3135,-2.3135,-2.3135,-2.3135,-2.3135,-2.3135,-2.3135,-2.3135,-2.3135,-2.3135,-2.3135,-2.3135,-2.3135,-2.3135,-2.3135,-2.3135,-2.3135,-2.3047,-2.2217,-2.1667,-2.1203,-1.9222,-1.8048,-1.7591,-1.6289,-1.5691,-1.5685,-1.5591,-1.5438,-1.5257,-1.5257,-1.5084,-1.4823,-1.4823,-1.4763,-1.4663,-4.007,-4.007,-4.007,-4.007,-4.007,-4.007,-4.007,-4.007,-4.007,-4.007,-4.007,-4.007,-4.007,-4.007,-4.007,-4.007,-4.007,-4.007,-4.007,-4.0095,-3.9405,-3.7838,-3.7297,-3.6531,-3.5489,-3.5489,-3.516,-3.4472,-3.4472,-3.4128,-3.3499,-3.3499,-3.3499,-3.3484,-3.3484,-3.3212,-3.2776,-3.2776,-3.227,-3.1516,-3.1516,-3.1471,-3.1482,-3.1482,-3.1482,-3.1482,-3.1482,-3.1482,-3.1482,-3.1482,-3.1501,-3.1467,-3.1482,-2.9204,-2.6514,-2.6557,-2.6493,-2.6471,-2.6491,-2.7048,-2.7766,-2.8675,-2.9352,-2.9779,-2.9779,-2.9779,-2.9779,-2.9792,-2.9792,-2.9792,-2.9792,-2.9792,-2.9792,-2.9792,-2.9792,-2.904,-2.6812,-2.6483,-2.5641,-2.3387,-2.3135,-2.3135,-2.3135,-2.3135,-2.3135,-2.3135,-2.3135,-2.3135,-2.3135,-2.3135,-2.3135,-2.3135,-2.3135,-2.3135,-2.3135,-2.3135,-2.3135,-2.3135,-2.3047,-2.2482,-2.1203,-2.0025,-1.8856,-1.7569,-1.6068,-1.5391,-1.5371,-1.5084,-1.4963,-1.4963,-1.4963,-1.4776,-1.4516,-1.4516,-1.4335,-1.4088,-4.007,-4.007,-4.007,-4.007,-4.007,-4.007,-4.007,-4.007,-4.007,-4.007,-4.007,-4.007,-4.007,-4.007,-4.007,-4.007,-4.007,-3.98,-3.9091,-3.768,-3.6664,-3.6238,-3.6063,-3.5506,-3.4603,-3.4613,-3.4312,-3.3784,-3.3784,-3.3694,-3.3499,-3.3499,-3.3245,-3.2811,-3.2811,-3.2452,-3.1886,-3.1886,-3.1752,-3.1485,-3.1485,-3.1483,-3.1482,-3.1482,-3.1482,-3.1482,-3.1482,-3.1482,-3.1482,-3.1482,-3.1498,-3.153,-3.1514,-3.0783,-3.0045,-3.0024,-2.8358,-2.6508,-2.6509,-2.6636,-2.7061,-2.8086,-2.8486,-2.8712,-2.9101,-2.9189,-2.9302,-2.9704,-2.9792,-2.9792,-2.9792,-2.9792,-2.9792,-2.9792,-2.9792,-2.904,-2.6812,-2.6483,-2.5641,-2.3387,-2.3135,-2.3135,-2.3135,-2.3135,-2.3135,-2.3135,-2.3135,-2.3135,-2.3135,-2.3135,-2.3135,-2.3135,-2.2852,-2.2705,-2.2705,-2.2988,-2.3135,-2.3047,-2.1936,-2.0808,-1.9732,-1.8136,-1.6892,-1.5756,-1.5305,-1.5097,-1.5084,-1.4997,-1.4843,-1.4656,-1.4656,-1.4476,-1.4215,-1.4215,-1.4162,-1.4088,-4.007,-4.007,-4.007,-4.007,-4.007,-4.007,-4.007,-4.007,-3.9952,-3.958,-3.9529,-3.9445,-3.9242,-3.9225,-3.9225,-3.9225,-3.9393,-3.9091,-3.807,-3.6454,-3.5025,-3.3958,-3.3903,-3.3652,-3.3143,-3.3664,-3.3682,-3.3231,-3.3231,-3.3021,-3.2721,-3.2721,-3.2497,-3.2123,-3.2123,-3.1898,-3.1482,-3.1482,-3.1482,-3.1482,-3.1482,-3.1482,-3.1482,-3.1482,-3.1482,-3.1482,-3.1482,-3.1482,-3.1482,-3.1482,-3.1482,-3.1511,-3.1531,-3.1483,-3.1398,-3.0708,-2.8592,-2.6614,-2.7346,-2.6967,-2.6656,-2.7344,-2.7673,-2.7963,-2.83,-2.8487,-2.8699,-2.9051,-2.9302,-2.9453,-2.9453,-2.9641,-2.9624,-2.9197,-2.9118,-2.8359,-2.613,-2.5808,-2.5136,-2.3299,-2.3135,-2.3135,-2.3135,-2.3135,-2.3066,-2.29,-2.2734,-2.2646,-2.2646,-2.2646,-2.2646,-2.2646,-2.2402,-2.2266,-2.2266,-2.2519,-2.2646,-2.2637,-2.1209,-2.0137,-1.9427,-1.7548,-1.6338,-1.5644,-1.5096,-1.479,-1.4776,-1.4663,-1.4509,-1.4349,-1.4349,-1.4242,-1.4088,-1.4088,-1.4088,-1.4088,-4.0053,-4.0087,-4.0087,-4.0087,-4.0087,-4.0087,-4.0087,-4.0087,-3.9731,-3.8685,-3.8501,-3.8299,-3.7956,-3.7905,-3.7905,-3.7905,-3.8238,-3.8031,-3.7135,-3.6069,-3.4388,-3.1845,-3.1588,-3.1482,-3.1523,-3.2718,-3.3141,-3.2706,-3.2706,-3.2287,-3.1482,-3.1482,-3.1482,-3.1482,-3.1482,-3.1482,-3.1482,-3.1482,-3.1482,-3.1482,-3.1482,-3.1482,-3.1482,-3.1482,-3.1482,-3.1482,-3.1482,-3.1482,-3.1482,-3.1482,-3.1482,-3.1482,-3.1482,-3.1497,-3.119,-2.9643,-2.8167,-2.7213,-2.8423,-2.7652,-2.6483,-2.6521,-2.6976,-2.7493,-2.7518,-2.7763,-2.7949,-2.8097,-2.8511,-2.885,-2.885,-2.9289,-2.9294,-2.8124,-2.7953,-2.7209,-2.4998,-2.4661,-2.4258,-2.3104,-2.3027,-2.3027,-2.3027,-2.3027,-2.2861,-2.248,-2.21,-2.1885,-2.1885,-2.1885,-2.1885,-2.1885,-2.1846,-2.1826,-2.1826,-2.1787,-2.1797,-2.1709,-2.0782,-2.015,-1.9889,-1.78,-1.676,-1.6658,-1.5099,-1.4482,-1.4462,-1.4195,-1.4088,-1.4088,-1.4088,-1.4088,-1.4088,-1.4088,-1.4088,-1.4088,-3.9839,-4.0124,-4.0124,-4.0124,-4.0124,-4.0124,-4.0124,-4.0124,-3.9586,-3.821,-3.7708,-3.7542,-3.7889,-3.7905,-3.7905,-3.7905,-3.7479,-3.711,-3.6855,-3.5448,-3.4314,-3.372,-3.2277,-3.1482,-3.1529,-3.1752,-3.1898,-3.1779,-3.1779,-3.1704,-3.1482,-3.1482,-3.1482,-3.1482,-3.1482,-3.1482,-3.1482,-3.1482,-3.1482,-3.1482,-3.1482,-3.1482,-3.1482,-3.1482,-3.1482,-3.1482,-3.1482,-3.1482,-3.1482,-3.1482,-3.1482,-3.1482,-3.1482,-3.1515,-3.144,-3.1083,-3.0664,-2.9939,-2.7657,-2.6788,-2.648,-2.6514,-2.6615,-2.6771,-2.6751,-2.6754,-2.7095,-2.7911,-2.8197,-2.8285,-2.8285,-2.8386,-2.8151,-2.71,-2.6935,-2.6155,-2.4111,-2.3798,-2.3412,-2.2316,-2.2158,-2.2158,-2.2158,-2.2158,-2.2119,-2.2031,-2.1934,-2.1885,-2.1885,-2.1885,-2.1885,-2.1885,-2.1553,-2.1377,-2.1377,-2.1025,-2.0771,-2.055,-2.0841,-2.0099,-1.8489,-1.7614,-1.6739,-1.5905,-1.4698,-1.4182,-1.4175,-1.4115,-1.4088,-1.4088,-1.4088,-1.4088,-1.4088,-1.4088,-1.4088,-1.4088,-3.8908,-3.8857,-3.8523,-3.8055,-3.7939,-3.7939,-3.7939,-3.7939,-3.7655,-3.6885,-3.6569,-3.6485,-3.676,-3.6806,-3.6806,-3.6806,-3.6451,-3.6231,-3.6231,-3.5404,-3.4758,-3.443,-3.3391,-3.2439,-3.152,-3.2133,-3.2145,-3.1482,-3.1482,-3.1482,-3.1482,-3.1482,-3.1482,-3.1482,-3.1482,-3.1482,-3.1482,-3.1482,-3.1482,-3.1482,-3.1482,-3.1482,-3.1482,-3.1482,-3.1482,-3.1482,-3.1482,-3.1482,-3.1482,-3.1482,-3.1482,-3.1482,-3.1482,-3.1499,-3.1501,-3.1501,-3.1521,-3.109,-2.9329,-2.7723,-2.6473,-2.6471,-2.6533,-2.6502,-2.6469,-2.6507,-2.6689,-2.7231,-2.7532,-2.7708,-2.7708,-2.7921,-2.7631,-2.6071,-2.5831,-2.5137,-2.3041,-2.2727,-2.2503,-2.1967,-2.1885,-2.1885,-2.1885,-2.1699,-2.1582,-2.1582,-2.1377,-2.125,-2.125,-2.125,-2.125,-2.125,-2.1035,-2.0918,-2.0918,-2.0684,-1.9972,-1.8811,-1.9696,-1.9273,-1.7615,-1.6852,-1.5951,-1.4894,-1.4328,-1.4088,-1.4088,-1.4088,-1.4088,-1.4088,-1.4088,-1.4088,-1.4088,-1.4088,-1.4088,-1.4088,-3.7516,-3.7152,-3.6589,-3.5749,-3.5585,-3.5585,-3.5585,-3.5585,-3.5613,-3.5585,-3.5614,-3.5593,-3.5594,-3.5622,-3.5622,-3.5622,-3.5622,-3.5622,-3.5622,-3.547,-3.5207,-3.4624,-3.4316,-3.3379,-3.1704,-3.2835,-3.2826,-3.1482,-3.1507,-3.1507,-3.1482,-3.1482,-3.1482,-3.1482,-3.1482,-3.1482,-3.1482,-3.1482,-3.1482,-3.1482,-3.1482,-3.1482,-3.1482,-3.1482,-3.1482,-3.1482,-3.1482,-3.1482,-3.1482,-3.1482,-3.1482,-3.1482,-3.1482,-3.1482,-3.1482,-3.1482,-3.1483,-3.1478,-3.1487,-2.9075,-2.6514,-2.6508,-2.6533,-2.6533,-2.6533,-2.6533,-2.6533,-2.6533,-2.6816,-2.7143,-2.7143,-2.7519,-2.7213,-2.5283,-2.4977,-2.4293,-2.22,-2.1895,-2.1895,-2.1742,-2.166,-2.166,-2.166,-2.1328,-2.1123,-2.1123,-2.0781,-2.0566,-2.0566,-2.0566,-2.0566,-2.0566,-2.0401,-2.0323,-2.0323,-2.0157,-1.9116,-1.7334,-1.823,-1.8149,-1.7009,-1.6108,-1.5213,-1.4328,-1.4166,-1.4088,-1.4088,-1.4088,-1.4088,-1.4088,-1.4088,-1.4088,-1.4088,-1.4088,-1.4088,-1.4088,-3.5926,-3.5847,-3.578,-3.5616,-3.5616,-3.5616,-3.5616,-3.5616,-3.5599,-3.5611,-3.5611,-3.5594,-3.5577,-3.5622,-3.5622,-3.5622,-3.5622,-3.5622,-3.5622,-3.5052,-3.4688,-3.4576,-3.4021,-3.3292,-3.2454,-3.2664,-3.2327,-3.1482,-3.15,-3.1516,-3.1482,-3.1482,-3.1482,-3.1482,-3.1482,-3.1482,-3.1482,-3.1482,-3.1482,-3.1482,-3.1482,-3.1482,-3.1482,-3.1482,-3.1482,-3.1482,-3.1482,-3.1482,-3.1482,-3.1482,-3.1482,-3.1482,-3.1482,-3.1482,-3.1482,-3.1482,-3.1501,-3.1521,-3.1527,-2.9067,-2.6509,-2.6514,-2.6533,-2.6533,-2.6533,-2.6533,-2.6533,-2.6533,-2.6584,-2.6647,-2.6647,-2.6697,-2.6317,-2.5218,-2.5003,-2.4315,-2.2303,-2.2008,-2.1712,-2.0889,-2.0742,-2.0742,-2.0742,-2.0693,-2.0654,-2.0654,-2.0596,-2.0566,-2.0566,-2.0566,-2.0566,-2.0566,-1.9678,-1.9204,-1.9204,-1.823,-1.7585,-1.7342,-1.7423,-1.6927,-1.5944,-1.5779,-1.5621,-1.5455,-1.4489,-1.4088,-1.4088,-1.4088,-1.4088,-1.4088,-1.4088,-1.4088,-1.4088,-1.4088,-1.4088,-1.4088,-3.5622,-3.5622,-3.5622,-3.5622,-3.5622,-3.5622,-3.5622,-3.5622,-3.5622,-3.5622,-3.5622,-3.5622,-3.5622,-3.5622,-3.5622,-3.5622,-3.5622,-3.5622,-3.5622,-3.5316,-3.5161,-3.5161,-3.4864,-3.4399,-3.3735,-3.4103,-3.3547,-3.2104,-3.1697,-3.1501,-3.1482,-3.1482,-3.1482,-3.1482,-3.1482,-3.1482,-3.1482,-3.1482,-3.1482,-3.1482,-3.1482,-3.1482,-3.1482,-3.1482,-3.1482,-3.1482,-3.1482,-3.1482,-3.1482,-3.1482,-3.1482,-3.1482,-3.1482,-3.1482,-3.1526,-3.1516,-3.1511,-3.1099,-2.9233,-2.7657,-2.6511,-2.6483,-2.6533,-2.6533,-2.6533,-2.6533,-2.6533,-2.6533,-2.6533,-2.6533,-2.6533,-2.6533,-2.6013,-2.4409,-2.4192,-2.3452,-2.1527,-2.1231,-2.1078,-2.0634,-2.0566,-2.0566,-2.0566,-2.0566,-2.0566,-2.0566,-2.0566,-2.0566,-2.0566,-2.0566,-2.0566,-2.0566,-2.0157,-1.9923,-1.9923,-1.9353,-1.855,-1.7342,-1.7342,-1.6764,-1.5696,-1.5696,-1.5379,-1.4817,-1.4334,-1.4088,-1.4088,-1.4088,-1.4088,-1.4088,-1.4088,-1.4088,-1.4088,-1.4088,-1.4088,-1.4088]}]]